[[{"header":{"parameterUnit":"m.s-1","parameterCategory":1,"la1":31.0,"la2":29.5877,"lo1":-88.7671,"lo2":-86.6584,"dx":0.0162,"dy":0.0185,"nx":115,"ny":88,"refTime":"2023-01-07T18:00:00:Z","depth":0,"parameterNumber":2,"parameterNumberName":"U-component_of_WINDS"},"data":[0.0,0.0,0.0,0.0,0.0,0.0,0.0,0.0,0.0,0.0,0.0,0.0,0.0,0.0,0.0,0.0,0.0,0.0,0.0,0.0,0.0,0.0,0.0,0.0,0.0,0.0,0.0,0.0,0.0,0.0,0.0,0.0,0.0,0.0,0.0,0.0,0.0,0.0,0.0,0.0,0.0,0.0,0.0,0.0,0.0,0.0,0.0,0.0,0.0,0.0,0.0,0.0,0.0,0.0,0.0,0.0,0.0,0.0,0.0,0.0,0.0,0.0,0.0,0.0,0.0,0.0,0.0,0.0,0.0,0.0,0.0,0.0,0.0,0.0,0.0,0.0,0.0,0.0,0.0,0.0,0.0,0.0,0.0,0.0,0.0,0.0,0.0,0.0,0.0,0.0,0.0,0.0,0.0,0.0,0.0,0.0,0.0,0.0,0.0,0.0,0.0,0.0,0.0,0.0,0.0,0.0,0.0,0.0,0.0,0.0,0.0,0.0,0.0,0.0,0.0,0.0,0.0,0.0,0.0,0.0,0.0,0.0,0.0,0.0,0.0,0.0,0.0,0.0,0.0,0.0,0.0,0.0,0.0,0.0,0.0,0.0,0.0,0.0,0.0,0.0,0.0,0.0,0.0,0.0,0.0,0.0,0.0,0.0,0.0,0.0,0.0,0.0,0.0,0.0,0.0,0.0,0.0,0.0,0.0,0.0,0.0,0.0,0.0,0.0,0.0,0.0,0.0,0.0,0.0,0.0,0.0,0.0,0.0,0.0,0.0,0.0,0.0,0.0,0.0,0.0,0.0,0.0,0.0,0.0,0.0,0.0,0.0,0.0,0.0,0.0,0.0,0.0,0.0,0.0,0.0,0.0,0.0,0.0,0.0,0.0,0.0,0.0,0.0,0.0,0.0,0.0,0.0,0.0,0.0,0.0,0.0,0.0,0.0,0.0,0.0,0.0,0.0,0.0,0.0,0.0,0.0,0.0,0.0,0.0,0.0,0.0,0.0,0.0,0.0,0.0,0.0,0.0,0.0,0.0,0.0,0.0,0.0,0.0,0.0,0.0,0.0,0.0,0.0,0.0,0.0,0.0,0.0,0.0,0.0,0.0,0.0,0.0,0.0,0.0,0.0,0.0,0.0,0.0,0.0,0.0,0.0,0.0,0.0,0.0,0.0,0.0,0.0,0.0,0.0,0.0,0.0,0.0,0.0,0.0,0.0,0.0,0.0,0.0,0.0,0.0,0.0,0.0,0.0,0.0,0.0,0.0,0.0,0.0,0.0,0.0,0.0,0.0,0.0,0.0,0.0,0.0,0.0,0.0,0.0,0.0,0.0,0.0,0.0,0.0,0.0,0.0,0.0,0.0,0.0,0.0,0.0,0.0,0.0,0.0,0.0,0.0,0.0,0.0,0.0,0.0,0.0,0.0,0.0,0.0,0.0,0.0,0.0,0.0,0.0,0.0,0.0,0.0,0.0,0.0,0.0,0.0,0.0,0.0,0.0,0.0,0.0,0.0,0.0,0.0,0.0,0.0,0.0,0.0,0.0,0.0,0.0,0.0,0.0,0.0,0.0,0.0,0.0,0.0,0.0,0.0,0.0,0.0,0.0,0.0,0.0,0.0,0.0,0.0,0.0,0.0,0.0,0.0,0.0,0.0,0.0,0.0,0.0,0.0,0.0,0.0,0.0,0.0,0.0,0.0,0.0,0.0,0.0,0.0,0.0,0.0,0.0,0.0,0.0,0.0,0.0,0.0,0.0,0.0,0.0,0.0,0.0,0.0,0.0,0.0,0.0,0.0,0.0,0.0,0.0,0.0,0.0,0.0,0.0,0.0,0.0,0.0,0.0,0.0,0.0,0.0,0.0,0.0,0.0,0.0,0.0,0.0,0.0,0.0,0.0,0.0,0.0,0.0,0.0,0.0,0.0,0.0,0.0,0.0,0.0,0.0,0.0,0.0,0.0,0.0,0.0,0.0,0.0,0.0,0.0,0.0,0.0,0.0,0.0,0.0,0.0,0.0,0.0,0.0,0.0,0.0,0.0,0.0,0.0,0.0,0.0,0.0,0.0,0.0,0.0,0.0,0.0,0.0,0.0,0.0,0.0,0.0,0.0,0.0,0.0,0.0,0.0,0.0,0.0,0.0,0.0,0.0,0.0,0.0,0.0,0.0,0.0,0.0,0.0,0.0,0.0,0.0,0.0,0.0,0.0,0.0,0.0,0.0,0.0,0.0,0.0,0.0,0.0,0.0,0.0,0.0,0.0,0.0,0.0,0.0,0.0,0.0,0.0,0.0,0.0,0.0,0.0,0.0,0.0,0.0,0.0,0.0,0.0,0.0,0.0,0.0,0.0,0.0,0.0,0.0,0.0,0.0,0.0,0.0,0.0,0.0,0.0,0.0,0.0,0.0,0.0,0.0,0.0,0.0,0.0,0.0,0.0,0.0,0.0,0.0,0.0,0.0,0.0,0.0,0.0,0.0,0.0,0.0,0.0,0.0,0.0,0.0,0.0,0.0,0.0,0.0,0.0,0.0,0.0,0.0,0.0,0.0,0.0,0.0,0.0,0.0,0.0,0.0,0.0,0.0,0.0,0.0,0.0,0.0,0.0,0.0,0.0,0.0,0.0,0.0,0.0,0.0,0.0,0.0,0.0,0.0,0.0,0.0,0.0,0.0,0.0,0.0,0.0,0.0,0.0,0.0,0.0,0.0,0.0,0.0,0.0,0.0,0.0,0.0,0.0,0.0,0.0,0.0,0.0,0.0,0.0,0.0,0.0,0.0,0.0,0.0,0.0,0.0,0.0,0.0,0.0,0.0,0.0,0.0,0.0,0.0,0.0,0.0,0.0,0.0,0.0,0.0,0.0,0.0,0.0,0.0,0.0,0.0,0.0,0.0,0.0,0.0,0.0,0.0,0.0,0.0,0.0,0.0,0.0,0.0,0.0,0.0,0.0,0.0,0.0,0.0,0.0,0.0,0.0,0.0,0.0,0.0,0.0,0.0,0.0,0.0,0.0,0.0,0.0,0.0,0.0,0.0,0.0,0.0,0.0,0.0,0.0,0.0,0.0,0.0,0.0,0.0,0.0,0.0,0.0,0.0,0.0,0.0,0.0,0.0,0.0,0.0,0.0,0.0,0.0,0.0,0.0,0.0,0.0,0.0,0.0,0.0,0.0,0.0,0.0,0.0,0.0,0.0,0.0,0.0,0.0,0.0,0.0,0.0,0.0,0.0,0.0,0.0,0.0,0.0,0.0,0.0,0.0,0.0,0.0,0.0,0.0,0.0,0.0,0.0,0.0,0.0,0.0,0.0,0.0,0.0,0.0,0.0,0.0,0.0,0.0,0.0,0.0,0.0,0.0,0.0,0.0,0.0,0.0,0.0,0.0,0.0,0.0,0.0,0.0,0.0,0.0,0.0,0.0,0.0,0.0,0.0,0.0,0.0,0.0,0.0,0.0,0.0,0.0,0.0,0.0,0.0,0.0,0.0,0.0,0.0,0.0,0.0,0.0,0.0,0.0,0.0,0.0,0.0,0.0,0.0,0.0,0.0,0.0,0.0,0.0,0.0,0.0,0.0,0.0,0.0,0.0,0.0,0.0,0.0,0.0,0.0,0.0,0.0,0.0,0.0,0.0,0.0,0.0,0.0,0.0,0.0,0.0,0.0,0.0,0.0,0.0,0.0,0.0,0.0,0.0,0.0,0.0,0.0,0.0,0.0,0.0,0.0,0.0,0.0,0.0,0.0,0.0,0.0,0.0,0.0,0.0,0.0,0.0,0.0,0.0,0.0,0.0,0.0,0.0,0.0,0.0,0.0,0.0,0.0,0.0,0.0,0.0,0.0,0.0,0.0,0.0,0.0,0.0,0.0,0.0,0.0,0.0,0.0,0.0,0.0,0.0,0.0,0.0,0.0,0.0,0.0,0.0,0.0,0.0,0.0,0.0,0.0,0.0,0.0,0.0,0.0,0.0,0.0,0.0,0.0,0.0,0.0,0.0,0.0,0.0,0.0,0.0,0.0,0.0,0.0,0.0,0.0,0.0,0.0,0.0,0.0,0.0,0.0,0.0,0.0,0.0,0.0,0.0,0.0,0.0,0.0,0.0,0.0,0.0,0.0,0.0,0.0,0.0,0.0,0.0,0.0,0.0,0.0,0.0,0.0,0.0,0.0,0.0,0.0,0.0,0.0,0.0,0.0,0.0,0.0,0.0,0.0,0.0,0.0,0.0,0.0,0.0,0.0,0.0,0.0,0.0,0.0,-1.3093,0.0,0.0,0.0,-1.3656,0.0,0.0,0.0,0.0,0.0,0.0,0.0,0.0,0.0,0.0,0.0,0.0,0.0,0.0,0.0,0.0,0.0,0.0,0.0,0.0,0.0,0.0,0.0,0.0,0.0,0.0,0.0,0.0,0.0,0.0,0.0,0.0,0.0,0.0,0.0,0.0,0.0,0.0,0.0,0.0,0.0,0.0,0.0,0.0,0.0,0.0,0.0,0.0,0.0,0.0,0.0,0.0,0.0,0.0,0.0,0.0,0.0,0.0,0.0,0.0,0.0,0.0,0.0,0.0,0.0,0.0,0.0,0.0,0.0,0.0,0.0,0.0,0.0,0.0,0.0,0.0,0.0,0.0,0.0,0.0,0.0,0.0,0.0,0.0,0.0,0.0,0.0,0.0,0.0,0.0,0.0,0.0,0.0,0.0,0.0,0.0,0.0,0.0,0.0,0.0,0.0,0.0,0.0,0.0,0.0,0.0,0.0,0.0,0.0,0.0,-1.3136,-1.3084,-1.2904,-1.3011,-1.3441,0.0,0.0,0.0,0.0,0.0,0.0,0.0,0.0,0.0,0.0,0.0,0.0,0.0,0.0,0.0,0.0,0.0,0.0,0.0,0.0,0.0,0.0,0.0,0.0,0.0,0.0,0.0,0.0,0.0,0.0,0.0,0.0,0.0,0.0,0.0,0.0,0.0,0.0,0.0,0.0,0.0,0.0,0.0,0.0,0.0,0.0,0.0,0.0,0.0,0.0,0.0,0.0,0.0,0.0,0.0,0.0,0.0,0.0,0.0,0.0,0.0,0.0,0.0,0.0,0.0,0.0,0.0,0.0,0.0,0.0,0.0,0.0,0.0,0.0,0.0,0.0,0.0,0.0,0.0,0.0,0.0,0.0,0.0,0.0,0.0,0.0,0.0,0.0,0.0,0.0,0.0,0.0,0.0,0.0,0.0,0.0,0.0,0.0,0.0,0.0,0.0,0.0,0.0,0.0,0.0,0.0,0.0,0.0,0.0,0.0,0.0,0.0,-1.294,-1.2922,-1.3037,0.0,0.0,0.0,0.0,0.0,0.0,0.0,0.0,0.0,0.0,0.0,0.0,0.0,0.0,0.0,0.0,0.0,0.0,0.0,0.0,0.0,0.0,0.0,0.0,0.0,0.0,0.0,0.0,0.0,0.0,0.0,0.0,0.0,0.0,0.0,0.0,0.0,0.0,0.0,0.0,0.0,0.0,0.0,0.0,0.0,0.0,0.0,0.0,0.0,0.0,0.0,0.0,0.0,0.0,0.0,0.0,0.0,0.0,0.0,0.0,0.0,0.0,0.0,0.0,0.0,0.0,0.0,0.0,0.0,0.0,0.0,0.0,0.0,0.0,0.0,0.0,0.0,0.0,0.0,0.0,0.0,0.0,0.0,0.0,0.0,0.0,0.0,0.0,0.0,0.0,0.0,0.0,0.0,0.0,0.0,0.0,0.0,0.0,0.0,0.0,0.0,0.0,0.0,0.0,0.0,0.0,0.0,0.0,0.0,0.0,-1.3163,-1.3093,-1.3075,0.0,-1.2862,0.0,0.0,0.0,0.0,0.0,0.0,0.0,0.0,0.0,0.0,0.0,0.0,0.0,0.0,0.0,0.0,0.0,0.0,0.0,0.0,0.0,0.0,0.0,0.0,0.0,0.0,0.0,0.0,0.0,0.0,0.0,0.0,0.0,0.0,0.0,0.0,0.0,0.0,0.0,0.0,0.0,0.0,0.0,0.0,0.0,0.0,0.0,0.0,0.0,0.0,0.0,0.0,0.0,0.0,0.0,0.0,0.0,0.0,0.0,0.0,0.0,0.0,0.0,0.0,0.0,0.0,0.0,0.0,0.0,0.0,0.0,0.0,0.0,0.0,0.0,0.0,0.0,0.0,0.0,0.0,0.0,0.0,0.0,0.0,0.0,0.0,0.0,0.0,0.0,0.0,0.0,0.0,0.0,0.0,0.0,0.0,0.0,0.0,0.0,0.0,0.0,0.0,0.0,0.0,0.0,0.0,0.0,0.0,0.0,0.0,-1.3181,-1.3093,-1.3093,-1.3012,0.0,0.0,0.0,0.0,0.0,0.0,0.0,0.0,0.0,0.0,0.0,0.0,0.0,0.0,0.0,0.0,0.0,0.0,0.0,0.0,0.0,0.0,0.0,0.0,0.0,0.0,0.0,0.0,0.0,0.0,0.0,0.0,0.0,0.0,0.0,0.0,0.0,0.0,0.0,0.0,0.0,0.0,0.0,0.0,0.0,0.0,0.0,0.0,0.0,0.0,0.0,0.0,0.0,0.0,0.0,0.0,0.0,0.0,0.0,0.0,0.0,0.0,0.0,0.0,0.0,0.0,0.0,0.0,0.0,0.0,0.0,0.0,0.0,0.0,0.0,0.0,0.0,0.0,0.0,0.0,0.0,0.0,0.0,0.0,0.0,0.0,0.0,0.0,0.0,0.0,0.0,0.0,0.0,0.0,0.0,0.0,0.0,0.0,0.0,0.0,0.0,0.0,0.0,0.0,0.0,0.0,0.0,0.0,0.0,0.0,-1.3502,-1.3566,-1.3691,-1.3642,-1.3465,-1.3119,0.0,0.0,0.0,0.0,0.0,0.0,0.0,0.0,0.0,0.0,0.0,0.0,0.0,0.0,0.0,0.0,0.0,0.0,0.0,0.0,0.0,0.0,0.0,0.0,0.0,0.0,0.0,0.0,0.0,0.0,0.0,0.0,0.0,0.0,0.0,0.0,0.0,0.0,0.0,0.0,0.0,0.0,0.0,0.0,0.0,0.0,0.0,0.0,0.0,0.0,0.0,0.0,0.0,0.0,0.0,0.0,0.0,0.0,0.0,0.0,0.0,0.0,0.0,0.0,0.0,0.0,0.0,0.0,0.0,0.0,0.0,0.0,0.0,0.0,0.0,0.0,0.0,0.0,0.0,0.0,0.0,0.0,0.0,0.0,0.0,0.0,0.0,0.0,0.0,0.0,0.0,0.0,0.0,0.0,0.0,0.0,0.0,0.0,0.0,0.0,0.0,0.0,0.0,0.0,0.0,0.0,0.0,0.0,-1.4223,-1.4247,-1.4567,-1.5153,-1.5031,-1.4604,0.0,0.0,0.0,0.0,0.0,0.0,0.0,0.0,0.0,0.0,0.0,0.0,0.0,0.0,0.0,0.0,0.0,0.0,0.0,0.0,0.0,0.0,0.0,0.0,0.0,0.0,0.0,0.0,0.0,0.0,0.0,0.0,0.0,0.0,0.0,0.0,0.0,0.0,0.0,0.0,0.0,0.0,0.0,0.0,0.0,0.0,0.0,0.0,0.0,0.0,0.0,0.0,0.0,0.0,0.0,0.0,0.0,0.0,0.0,0.0,0.0,0.0,0.0,0.0,0.0,0.0,0.0,0.0,0.0,0.0,0.0,0.0,0.0,0.0,0.0,0.0,0.0,0.0,0.0,0.0,0.0,0.0,0.0,0.0,0.0,0.0,0.0,0.0,0.0,0.0,0.0,0.0,0.0,0.0,0.0,0.0,0.0,0.0,0.0,0.0,0.0,0.0,0.0,0.0,0.0,0.0,0.0,0.0,0.0,-1.4281,-1.4724,-1.5078,-1.5334,-1.5257,-1.5072,0.0,0.0,0.0,0.0,0.0,0.0,0.0,0.0,0.0,0.0,0.0,0.0,0.0,0.0,0.0,0.0,0.0,0.0,0.0,0.0,0.0,0.0,0.0,0.0,0.0,0.0,0.0,0.0,0.0,0.0,0.0,0.0,0.0,0.0,0.0,0.0,0.0,0.0,0.0,0.0,0.0,0.0,0.0,0.0,0.0,0.0,0.0,0.0,0.0,0.0,0.0,0.0,0.0,0.0,0.0,0.0,0.0,0.0,0.0,0.0,0.0,0.0,0.0,0.0,0.0,0.0,0.0,0.0,0.0,0.0,0.0,0.0,0.0,0.0,0.0,0.0,0.0,0.0,0.0,0.0,0.0,0.0,0.0,0.0,0.0,0.0,0.0,0.0,0.0,0.0,0.0,0.0,0.0,0.0,0.0,0.0,0.0,0.0,0.0,0.0,0.0,0.0,0.0,0.0,0.0,0.0,0.0,0.0,0.0,-1.5325,-1.6015,-1.6365,-1.6398,-1.637,-1.6143,0.0,0.0,0.0,0.0,0.0,0.0,0.0,0.0,0.0,0.0,0.0,0.0,0.0,0.0,0.0,0.0,0.0,0.0,0.0,0.0,0.0,0.0,0.0,0.0,0.0,0.0,0.0,0.0,0.0,0.0,0.0,0.0,0.0,0.0,0.0,0.0,0.0,0.0,0.0,0.0,0.0,0.0,0.0,0.0,0.0,0.0,0.0,0.0,0.0,0.0,0.0,0.0,0.0,0.0,0.0,0.0,0.0,0.0,0.0,0.0,0.0,0.0,0.0,0.0,0.0,0.0,0.0,0.0,0.0,0.0,0.0,0.0,0.0,0.0,0.0,0.0,0.0,0.0,0.0,0.0,0.0,0.0,0.0,0.0,0.0,0.0,0.0,0.0,0.0,0.0,0.0,0.0,0.0,0.0,0.0,0.0,0.0,0.0,0.0,0.0,0.0,0.0,0.0,0.0,0.0,0.0,0.0,0.0,-1.5516,-1.7483,-1.8124,-1.841,-1.8476,-1.8456,-1.7866,0.0,0.0,0.0,0.0,0.0,0.0,0.0,0.0,0.0,0.0,0.0,0.0,0.0,0.0,0.0,0.0,0.0,0.0,0.0,0.0,0.0,0.0,0.0,0.0,0.0,0.0,0.0,0.0,0.0,0.0,0.0,0.0,0.0,0.0,0.0,0.0,0.0,0.0,0.0,0.0,0.0,0.0,0.0,0.0,0.0,0.0,0.0,0.0,0.0,0.0,0.0,0.0,0.0,0.0,0.0,0.0,0.0,0.0,0.0,0.0,0.0,0.0,0.0,0.0,0.0,0.0,0.0,0.0,0.0,0.0,0.0,0.0,0.0,0.0,0.0,0.0,0.0,0.0,0.0,0.0,0.0,0.0,0.0,0.0,0.0,0.0,0.0,0.0,0.0,0.0,0.0,0.0,0.0,0.0,0.0,0.0,0.0,0.0,0.0,0.0,0.0,0.0,0.0,0.0,0.0,0.0,0.0,0.0,0.0,-1.7663,-1.8476,-1.8942,-1.8963,-1.8463,-1.7968,0.0,0.0,0.0,0.0,0.0,0.0,0.0,0.0,0.0,0.0,0.0,0.0,0.0,0.0,0.0,0.0,0.0,0.0,0.0,0.0,0.0,0.0,0.0,0.0,0.0,0.0,0.0,0.0,0.0,0.0,0.0,0.0,0.0,0.0,0.0,0.0,0.0,0.0,0.0,0.0,0.0,0.0,0.0,0.0,0.0,0.0,0.0,0.0,0.0,0.0,0.0,0.0,0.0,0.0,0.0,0.0,0.0,0.0,0.0,0.0,0.0,0.0,0.0,0.0,0.0,0.0,0.0,0.0,0.0,0.0,0.0,0.0,0.0,0.0,0.0,0.0,0.0,0.0,0.0,0.0,0.0,0.0,0.0,0.0,0.0,0.0,0.0,0.0,0.0,0.0,0.0,0.0,0.0,0.0,0.0,0.0,0.0,0.0,0.0,0.0,0.0,0.0,0.0,0.0,0.0,0.0,0.0,0.0,0.0,-1.9383,-1.9863,-2.0137,-2.0164,-1.971,-1.9048,-1.8192,0.0,0.0,0.0,0.0,0.0,0.0,0.0,0.0,0.0,0.0,0.0,0.0,0.0,0.0,0.0,0.0,0.0,0.0,0.0,0.0,0.0,0.0,0.0,0.0,0.0,0.0,0.0,0.0,0.0,0.0,0.0,0.0,0.0,0.0,0.0,0.0,0.0,0.0,0.0,0.0,0.0,0.0,0.0,0.0,0.0,0.0,0.0,0.0,0.0,0.0,0.0,0.0,0.0,0.0,0.0,0.0,0.0,0.0,0.0,0.0,0.0,0.0,0.0,0.0,0.0,0.0,0.0,0.0,0.0,0.0,0.0,0.0,0.0,0.0,0.0,0.0,0.0,0.0,0.0,0.0,0.0,0.0,0.0,0.0,0.0,0.0,0.0,0.0,0.0,0.0,0.0,0.0,0.0,0.0,0.0,0.0,0.0,0.0,0.0,0.0,0.0,0.0,0.0,0.0,0.0,0.0,0.0,0.0,-2.23,-2.2097,-2.1913,-2.1816,-2.1763,-2.0801,0.0,0.0,0.0,0.0,0.0,0.0,0.0,0.0,0.0,0.0,0.0,0.0,0.0,0.0,0.0,0.0,0.0,0.0,0.0,0.0,0.0,0.0,0.0,0.0,0.0,0.0,0.0,0.0,0.0,0.0,0.0,0.0,0.0,0.0,0.0,0.0,0.0,0.0,0.0,0.0,0.0,0.0,0.0,0.0,0.0,0.0,0.0,0.0,0.0,0.0,0.0,0.0,0.0,0.0,0.0,0.0,0.0,0.0,0.0,0.0,0.0,0.0,0.0,0.0,0.0,0.0,0.0,0.0,0.0,0.0,0.0,0.0,0.0,0.0,0.0,0.0,0.0,0.0,0.0,0.0,0.0,0.0,0.0,0.0,0.0,0.0,0.0,0.0,0.0,0.0,0.0,0.0,0.0,0.0,0.0,0.0,0.0,0.0,0.0,0.0,0.0,0.0,0.0,0.0,0.0,0.0,0.0,0.0,0.0,-2.3622,-2.4079,-2.3686,-2.2358,-2.1219,-2.0375,0.0,0.0,0.0,0.0,0.0,0.0,0.0,0.0,0.0,0.0,0.0,0.0,0.0,0.0,0.0,0.0,0.0,0.0,0.0,0.0,0.0,0.0,0.0,0.0,0.0,0.0,0.0,0.0,0.0,0.0,0.0,0.0,0.0,0.0,0.0,0.0,0.0,0.0,0.0,0.0,0.0,0.0,0.0,0.0,0.0,0.0,0.0,0.0,0.0,0.0,0.0,0.0,0.0,0.0,0.0,0.0,0.0,0.0,0.0,0.0,0.0,0.0,0.0,0.0,0.0,0.0,0.0,0.0,0.0,0.0,0.0,0.0,0.0,0.0,0.0,0.0,0.0,0.0,0.0,0.0,0.0,0.0,0.0,0.0,0.0,0.0,0.0,0.0,0.0,0.0,0.0,0.0,0.0,0.0,0.0,0.0,0.0,0.0,0.0,0.0,0.0,0.0,0.0,0.0,0.0,0.0,0.0,0.0,-2.3373,-2.4757,-2.4778,-2.4597,-2.4182,-2.2636,-2.1363,0.0,0.0,0.0,0.0,0.0,0.0,0.0,0.0,0.0,0.0,0.0,0.0,0.0,0.0,0.0,0.0,0.0,0.0,0.0,0.0,0.0,0.0,0.0,0.0,0.0,0.0,0.0,0.0,0.0,0.0,0.0,0.0,0.0,0.0,0.0,0.0,0.0,0.0,0.0,0.0,0.0,0.0,0.0,0.0,0.0,0.0,0.0,0.0,0.0,0.0,0.0,0.0,0.0,0.0,0.0,0.0,0.0,0.0,0.0,0.0,0.0,0.0,0.0,0.0,0.0,0.0,0.0,0.0,0.0,0.0,0.0,0.0,0.0,0.0,0.0,0.0,0.0,0.0,0.0,0.0,0.0,0.0,0.0,0.0,0.0,0.0,0.0,0.0,0.0,0.0,0.0,0.0,0.0,0.0,0.0,0.0,0.0,0.0,0.0,0.0,0.0,0.0,0.0,0.0,0.0,0.0,0.0,0.0,-2.4222,-2.5661,-2.4959,-2.5179,-2.6351,-2.4797,-2.2989,0.0,0.0,0.0,0.0,0.0,0.0,0.0,0.0,0.0,0.0,0.0,0.0,0.0,0.0,0.0,0.0,0.0,0.0,0.0,0.0,0.0,0.0,0.0,0.0,0.0,0.0,0.0,0.0,0.0,0.0,0.0,0.0,0.0,0.0,0.0,0.0,0.0,0.0,0.0,0.0,0.0,0.0,0.0,0.0,0.0,0.0,0.0,0.0,0.0,0.0,0.0,0.0,0.0,0.0,0.0,0.0,0.0,0.0,0.0,0.0,0.0,0.0,0.0,0.0,0.0,0.0,0.0,0.0,0.0,0.0,0.0,0.0,0.0,0.0,0.0,0.0,0.0,0.0,0.0,0.0,0.0,0.0,0.0,0.0,0.0,0.0,0.0,0.0,0.0,0.0,0.0,0.0,0.0,0.0,0.0,0.0,0.0,0.0,0.0,0.0,0.0,0.0,0.0,0.0,0.0,0.0,0.0,0.0,-2.4951,-2.6337,-2.674,-2.6755,-2.6365,-2.4265,-2.2938,0.0,0.0,0.0,0.0,0.0,0.0,0.0,0.0,0.0,0.0,0.0,0.0,0.0,0.0,0.0,0.0,0.0,0.0,0.0,0.0,0.0,0.0,0.0,0.0,0.0,0.0,0.0,0.0,0.0,0.0,0.0,0.0,0.0,0.0,0.0,0.0,0.0,0.0,0.0,0.0,0.0,0.0,0.0,0.0,0.0,0.0,0.0,0.0,-1.6231,0.0,0.0,0.0,0.0,0.0,0.0,0.0,0.0,0.0,0.0,0.0,0.0,0.0,0.0,0.0,0.0,0.0,0.0,0.0,0.0,0.0,0.0,0.0,0.0,0.0,0.0,0.0,0.0,0.0,0.0,0.0,0.0,0.0,0.0,0.0,0.0,0.0,0.0,0.0,0.0,0.0,0.0,0.0,0.0,0.0,0.0,0.0,0.0,0.0,0.0,0.0,0.0,0.0,0.0,0.0,0.0,0.0,0.0,0.0,-2.5914,-2.767,-2.8055,-2.7982,-2.7439,-2.5614,-2.408,0.0,0.0,0.0,0.0,0.0,0.0,0.0,0.0,0.0,0.0,0.0,0.0,0.0,0.0,0.0,0.0,0.0,0.0,0.0,0.0,0.0,0.0,0.0,0.0,0.0,0.0,0.0,0.0,0.0,0.0,0.0,0.0,0.0,0.0,0.0,0.0,0.0,0.0,0.0,0.0,0.0,0.0,0.0,0.0,0.0,0.0,0.0,0.0,0.0,0.0,0.0,0.0,0.0,0.0,0.0,0.0,0.0,0.0,0.0,0.0,0.0,0.0,0.0,0.0,0.0,0.0,0.0,0.0,0.0,0.0,0.0,0.0,0.0,0.0,0.0,0.0,0.0,0.0,0.0,0.0,0.0,0.0,0.0,0.0,0.0,0.0,0.0,0.0,0.0,0.0,0.0,0.0,0.0,0.0,0.0,0.0,0.0,0.0,0.0,0.0,0.0,0.0,0.0,0.0,0.0,0.0,0.0,-2.5075,-2.6826,-2.9196,-2.9102,-2.8996,-2.8943,-2.7494,-2.5615,-2.3279,0.0,0.0,0.0,0.0,0.0,0.0,0.0,0.0,0.0,0.0,0.0,0.0,0.0,0.0,0.0,0.0,0.0,0.0,0.0,0.0,0.0,0.0,0.0,0.0,0.0,0.0,0.0,0.0,0.0,0.0,0.0,0.0,0.0,0.0,0.0,0.0,0.0,0.0,-1.4275,-1.5815,0.0,0.0,0.0,0.0,0.0,0.0,0.0,0.0,-1.7694,0.0,0.0,0.0,0.0,0.0,0.0,0.0,0.0,0.0,0.0,0.0,0.0,0.0,0.0,0.0,0.0,0.0,0.0,0.0,0.0,0.0,0.0,0.0,0.0,0.0,0.0,0.0,0.0,0.0,0.0,0.0,0.0,0.0,0.0,0.0,0.0,0.0,0.0,0.0,0.0,0.0,0.0,0.0,0.0,0.0,0.0,0.0,0.0,0.0,0.0,0.0,0.0,0.0,0.0,0.0,0.0,-2.5569,-2.5616,-2.73,-3.0717,-3.0207,-2.9829,-2.9669,-2.8289,-2.6454,-2.4237,0.0,0.0,0.0,0.0,0.0,0.0,0.0,0.0,0.0,0.0,0.0,0.0,0.0,0.0,0.0,0.0,0.0,0.0,0.0,0.0,0.0,0.0,0.0,0.0,0.0,0.0,0.0,0.0,0.0,0.0,0.0,0.0,0.0,0.0,0.0,0.0,0.0,0.0,0.0,-1.7339,-1.7966,0.0,0.0,0.0,0.0,0.0,0.0,0.0,0.0,-1.8364,0.0,0.0,0.0,0.0,0.0,0.0,0.0,0.0,0.0,0.0,0.0,0.0,0.0,0.0,0.0,0.0,0.0,0.0,0.0,0.0,0.0,0.0,0.0,0.0,0.0,0.0,0.0,0.0,0.0,0.0,0.0,0.0,0.0,0.0,0.0,0.0,0.0,0.0,0.0,0.0,0.0,0.0,0.0,0.0,0.0,0.0,0.0,0.0,0.0,0.0,0.0,0.0,0.0,0.0,0.0,-2.6325,-2.6297,-2.7977,-3.1599,-3.1055,-3.0461,-2.9998,-2.8547,-2.6725,0.0,0.0,0.0,0.0,0.0,0.0,0.0,0.0,0.0,0.0,0.0,0.0,0.0,0.0,0.0,0.0,0.0,0.0,0.0,0.0,0.0,0.0,0.0,0.0,0.0,0.0,0.0,0.0,0.0,0.0,0.0,0.0,0.0,0.0,0.0,0.0,0.0,0.0,0.0,0.0,-1.8413,-1.9226,-2.0543,0.0,0.0,0.0,0.0,0.0,0.0,-2.0042,-1.9263,0.0,0.0,0.0,0.0,0.0,0.0,0.0,0.0,0.0,0.0,0.0,0.0,0.0,0.0,0.0,0.0,0.0,0.0,0.0,0.0,0.0,0.0,0.0,0.0,0.0,0.0,0.0,0.0,0.0,0.0,0.0,0.0,0.0,0.0,0.0,0.0,0.0,0.0,0.0,0.0,0.0,0.0,0.0,0.0,0.0,0.0,0.0,0.0,0.0,0.0,0.0,0.0,0.0,0.0,0.0,-2.7004,-2.701,-2.8721,-3.2293,-3.1802,-3.114,-3.0531,-2.877,-2.6826,0.0,0.0,0.0,0.0,0.0,0.0,0.0,0.0,0.0,0.0,0.0,0.0,0.0,0.0,0.0,0.0,0.0,0.0,0.0,0.0,0.0,0.0,0.0,0.0,0.0,0.0,0.0,0.0,0.0,0.0,0.0,0.0,0.0,0.0,0.0,0.0,0.0,0.0,0.0,0.0,0.0,-2.0658,-2.1828,-2.2054,0.0,0.0,0.0,0.0,-2.2293,-2.1276,0.0,0.0,0.0,0.0,0.0,0.0,0.0,0.0,0.0,0.0,0.0,0.0,0.0,0.0,0.0,0.0,0.0,0.0,0.0,0.0,0.0,0.0,0.0,0.0,0.0,0.0,0.0,0.0,0.0,0.0,0.0,0.0,0.0,0.0,0.0,0.0,0.0,0.0,0.0,0.0,0.0,0.0,0.0,0.0,0.0,0.0,0.0,0.0,0.0,0.0,0.0,0.0,0.0,0.0,0.0,0.0,-2.7375,-2.7638,-2.9497,-3.3034,-3.2544,-3.2124,-3.2005,-2.9296,-2.708,0.0,0.0,0.0,0.0,0.0,0.0,0.0,0.0,0.0,0.0,0.0,0.0,0.0,0.0,0.0,0.0,0.0,0.0,0.0,0.0,0.0,0.0,0.0,0.0,0.0,0.0,0.0,0.0,0.0,0.0,0.0,0.0,0.0,0.0,0.0,0.0,0.0,0.0,0.0,0.0,0.0,-2.2183,-2.2913,-2.3236,-2.34,0.0,0.0,-2.4276,-2.4261,-2.364,0.0,0.0,0.0,0.0,0.0,0.0,0.0,0.0,0.0,0.0,0.0,0.0,0.0,0.0,0.0,0.0,0.0,0.0,0.0,0.0,0.0,0.0,0.0,0.0,0.0,0.0,0.0,0.0,0.0,0.0,0.0,0.0,0.0,0.0,0.0,0.0,0.0,0.0,0.0,0.0,0.0,0.0,0.0,0.0,0.0,0.0,0.0,0.0,0.0,0.0,0.0,0.0,0.0,0.0,0.0,-2.3578,-2.6854,-2.7518,-2.9414,-3.2632,-3.2479,-3.2293,-3.2276,-2.9822,-2.7571,0.0,0.0,0.0,0.0,0.0,0.0,0.0,0.0,0.0,0.0,0.0,0.0,0.0,0.0,0.0,0.0,0.0,0.0,0.0,0.0,0.0,0.0,0.0,0.0,0.0,0.0,0.0,0.0,0.0,0.0,0.0,0.0,0.0,0.0,0.0,0.0,0.0,0.0,0.0,0.0,0.0,0.0,-2.4266,-2.4839,0.0,0.0,0.0,-2.548,-2.4724,0.0,0.0,0.0,0.0,0.0,0.0,0.0,0.0,0.0,0.0,0.0,0.0,0.0,0.0,0.0,0.0,0.0,0.0,0.0,0.0,0.0,0.0,0.0,0.0,0.0,0.0,0.0,0.0,0.0,0.0,0.0,0.0,0.0,0.0,0.0,0.0,0.0,0.0,0.0,0.0,0.0,0.0,0.0,0.0,0.0,0.0,0.0,0.0,0.0,0.0,0.0,0.0,0.0,0.0,0.0,0.0,0.0,-2.7005,-2.8183,-3.0185,-3.3021,-3.2936,-3.2852,-3.2818,-3.0719,0.0,0.0,0.0,0.0,0.0,0.0,0.0,0.0,0.0,0.0,0.0,0.0,0.0,0.0,0.0,0.0,0.0,0.0,0.0,0.0,0.0,0.0,0.0,0.0,0.0,0.0,0.0,-1.1843,0.0,0.0,0.0,0.0,0.0,0.0,0.0,0.0,0.0,0.0,0.0,0.0,0.0,0.0,-2.5191,-2.6029,-2.6869,-2.7571,0.0,0.0,-2.723,-2.6234,-2.6368,-2.5869,0.0,0.0,0.0,0.0,0.0,0.0,0.0,0.0,0.0,0.0,0.0,0.0,0.0,0.0,0.0,0.0,0.0,0.0,0.0,0.0,0.0,0.0,0.0,0.0,0.0,0.0,0.0,0.0,0.0,0.0,0.0,0.0,0.0,0.0,0.0,0.0,0.0,0.0,0.0,0.0,0.0,0.0,0.0,0.0,0.0,0.0,0.0,0.0,0.0,0.0,0.0,0.0,0.0,0.0,-2.6601,-2.8629,-3.0474,-3.2686,-3.5233,-3.4709,-3.4336,-3.4324,-3.2205,-2.9973,0.0,0.0,0.0,0.0,0.0,0.0,0.0,0.0,0.0,0.0,0.0,0.0,0.0,0.0,0.0,0.0,0.0,0.0,0.0,0.0,0.0,0.0,0.0,0.0,0.0,0.0,0.0,0.0,0.0,0.0,0.0,0.0,0.0,0.0,0.0,0.0,0.0,0.0,0.0,0.0,0.0,-2.7757,-2.8382,-2.9415,-3.0598,0.0,-3.1028,-3.0223,-3.0118,-2.9681,-2.8412,-2.5839,0.0,0.0,0.0,0.0,0.0,0.0,0.0,0.0,0.0,0.0,0.0,0.0,0.0,0.0,0.0,0.0,0.0,0.0,0.0,0.0,0.0,0.0,0.0,0.0,0.0,0.0,0.0,0.0,0.0,0.0,0.0,0.0,0.0,0.0,0.0,0.0,0.0,0.0,0.0,0.0,0.0,0.0,0.0,0.0,0.0,0.0,0.0,0.0,0.0,0.0,0.0,0.0,0.0,-2.6808,-2.8475,-3.0925,-3.3219,-3.5248,-3.5073,-3.5032,-3.5165,-3.3491,-3.1292,0.0,0.0,0.0,0.0,0.0,0.0,0.0,0.0,0.0,0.0,0.0,0.0,0.0,0.0,0.0,0.0,0.0,0.0,0.0,0.0,0.0,0.0,0.0,0.0,0.0,0.0,0.0,0.0,-1.6256,-1.6336,-1.6185,0.0,0.0,0.0,0.0,0.0,0.0,0.0,0.0,0.0,0.0,-2.9091,-2.9935,-3.1582,0.0,0.0,-3.2951,-3.2757,-3.2349,-3.2058,-3.0959,-2.8256,-2.7254,0.0,0.0,0.0,0.0,0.0,0.0,0.0,0.0,0.0,0.0,0.0,0.0,0.0,0.0,0.0,0.0,0.0,0.0,0.0,0.0,0.0,0.0,0.0,0.0,0.0,0.0,0.0,0.0,0.0,0.0,0.0,0.0,0.0,0.0,0.0,0.0,0.0,0.0,0.0,0.0,0.0,0.0,0.0,0.0,0.0,0.0,0.0,0.0,0.0,0.0,0.0,0.0,-2.7814,-2.9705,-3.2141,-3.4391,-3.6527,-3.6122,-3.5882,-3.5949,-3.4726,-3.278,0.0,0.0,0.0,0.0,0.0,0.0,0.0,0.0,0.0,0.0,0.0,0.0,0.0,0.0,0.0,0.0,0.0,0.0,0.0,0.0,0.0,0.0,0.0,0.0,0.0,0.0,0.0,0.0,-1.8285,-1.8302,-1.7793,0.0,0.0,0.0,0.0,0.0,0.0,0.0,0.0,0.0,0.0,-3.1281,-3.2403,-3.3909,-3.4957,-3.4967,-3.5075,-3.4956,-3.4489,-3.4155,-3.3129,-3.0653,0.0,0.0,0.0,0.0,0.0,0.0,0.0,0.0,0.0,0.0,0.0,0.0,0.0,0.0,0.0,0.0,0.0,0.0,0.0,0.0,0.0,0.0,0.0,0.0,0.0,0.0,0.0,0.0,0.0,0.0,-1.9194,0.0,0.0,0.0,0.0,0.0,0.0,0.0,0.0,0.0,0.0,0.0,0.0,0.0,0.0,0.0,0.0,0.0,0.0,0.0,0.0,0.0,0.0,-3.0197,-3.2925,-3.4422,-3.6677,-3.951,-3.816,-3.719,-3.6824,-3.5977,-3.4506,-3.2242,0.0,0.0,0.0,0.0,0.0,0.0,0.0,0.0,0.0,0.0,0.0,0.0,0.0,0.0,0.0,0.0,0.0,0.0,0.0,0.0,0.0,0.0,0.0,0.0,0.0,0.0,-1.8274,-1.9486,-2.0309,0.0,0.0,0.0,0.0,0.0,0.0,0.0,0.0,0.0,0.0,-3.1887,-3.469,-3.6028,-3.6489,-3.7098,-3.8346,-3.7549,-3.6754,-3.6749,-3.6039,-3.4802,0.0,0.0,0.0,0.0,0.0,0.0,0.0,0.0,0.0,0.0,0.0,0.0,0.0,0.0,0.0,0.0,0.0,0.0,0.0,0.0,0.0,0.0,0.0,0.0,0.0,0.0,0.0,-2.1818,-2.1776,0.0,0.0,0.0,0.0,0.0,0.0,0.0,0.0,0.0,0.0,0.0,-2.8608,-2.9618,0.0,0.0,0.0,0.0,0.0,0.0,0.0,0.0,0.0,0.0,0.0,0.0,-3.1002,-3.3447,-3.552,-3.7916,-4.0618,-3.9628,-3.91,-3.9181,-3.7676,-3.5433,-3.2398,0.0,0.0,0.0,0.0,0.0,0.0,0.0,0.0,0.0,0.0,0.0,0.0,0.0,0.0,0.0,0.0,0.0,0.0,0.0,0.0,0.0,0.0,0.0,0.0,0.0,-2.0637,0.0,0.0,0.0,0.0,0.0,0.0,0.0,0.0,0.0,0.0,0.0,-2.8998,-3.1399,-3.3587,-3.5471,-3.6939,-3.8054,-3.9025,0.0,0.0,0.0,0.0,0.0,0.0,0.0,0.0,0.0,0.0,0.0,0.0,0.0,0.0,-2.73,-2.414,-2.3866,-2.4156,-2.4111,0.0,0.0,0.0,0.0,0.0,0.0,0.0,0.0,0.0,0.0,0.0,0.0,0.0,0.0,-2.4992,0.0,-2.505,0.0,0.0,0.0,0.0,0.0,0.0,0.0,0.0,-3.0601,-3.1756,-3.2294,-3.2782,-3.3166,0.0,-3.208,-2.9893,0.0,0.0,0.0,0.0,0.0,0.0,0.0,0.0,-3.2625,-3.5007,-3.7055,-3.9291,-4.1565,-4.0839,-4.0424,-4.0496,-3.9003,-3.6821,-3.4028,-3.222,-2.9885,0.0,0.0,0.0,0.0,0.0,0.0,0.0,0.0,0.0,0.0,0.0,0.0,0.0,0.0,0.0,0.0,0.0,0.0,0.0,0.0,0.0,0.0,0.0,-2.3381,0.0,0.0,0.0,0.0,0.0,0.0,0.0,0.0,0.0,-2.7385,-2.9146,-3.1392,-3.4093,-3.5896,-3.7319,-3.8277,0.0,0.0,0.0,0.0,0.0,0.0,0.0,-3.8723,-3.771,-3.7466,-3.6997,-3.5828,-3.5069,-3.4123,-3.2771,0.0,0.0,-2.7479,-2.6947,-2.7309,-2.7548,-2.7439,-2.7476,-2.8069,-2.8391,-2.8851,0.0,0.0,0.0,0.0,0.0,0.0,0.0,0.0,-2.9416,-2.8883,0.0,-2.8771,0.0,0.0,0.0,0.0,0.0,-2.9916,0.0,0.0,-3.5243,-3.6384,-3.6391,-3.6432,-3.6835,-3.7406,-3.5139,-3.3584,-3.2682,-3.0448,0.0,0.0,0.0,0.0,0.0,0.0,-3.511,-3.7566,-3.9069,-4.0774,-4.2659,-4.184,-4.1158,-4.0727,-3.9916,-3.872,-3.714,-3.5625,-3.3741,-3.1284,-2.7922,0.0,0.0,0.0,0.0,0.0,0.0,0.0,0.0,0.0,0.0,0.0,0.0,0.0,0.0,0.0,0.0,0.0,0.0,0.0,0.0,-2.5129,0.0,0.0,0.0,0.0,0.0,0.0,0.0,0.0,0.0,0.0,-3.1008,-3.2397,-3.4303,-3.6575,0.0,0.0,0.0,0.0,-4.095,-4.0316,-4.018,-4.0197,-4.0248,-4.0104,-4.0014,-4.0122,0.0,0.0,-3.8525,-3.7496,-3.6758,-3.6459,-3.6568,-3.5515,-3.1637,-3.0814,-3.0879,-3.1436,-3.1468,-3.1708,-3.2198,-3.2031,-3.2096,-3.6574,0.0,0.0,0.0,0.0,-3.1373,-3.2027,-3.2704,-3.257,-3.2353,-3.2058,-3.1863,0.0,0.0,0.0,0.0,0.0,0.0,-3.427,-3.6953,-3.8285,-3.9478,-4.0563,-4.115,-4.1535,-4.1664,-3.9868,-3.8878,-3.8566,-3.6802,-3.3476,-2.8767,0.0,0.0,0.0,0.0,-3.7055,-3.9866,-4.0408,-4.1715,-4.4017,-4.3141,-4.2174,-4.1217,-4.0947,-4.0201,-3.8892,-3.7824,-3.6214,-3.3917,-3.1882,0.0,0.0,0.0,0.0,0.0,0.0,0.0,0.0,0.0,0.0,0.0,0.0,0.0,0.0,0.0,0.0,0.0,0.0,0.0,-2.7043,-2.7882,-2.8272,0.0,0.0,0.0,0.0,0.0,0.0,0.0,0.0,0.0,-3.7119,-3.5968,-3.5825,0.0,0.0,-3.9495,-4.0028,-4.0713,-4.1322,-4.161,-4.166,0.0,-4.2371,-4.1989,-4.1596,-4.1529,-4.1355,-4.1106,-4.0784,-4.0887,-4.0627,-3.9536,-3.9771,-3.9576,-3.7979,-3.6044,-3.4805,-3.4464,-3.4211,-3.4324,-3.4901,-3.4901,-3.5089,-4.1581,-3.8202,-3.6729,-3.5521,-3.4661,-3.5027,-3.5841,-3.6864,-3.675,-3.634,-3.5734,-3.5694,-3.4877,-3.3524,-3.3599,0.0,0.0,0.0,-3.779,-4.0634,-4.1442,-4.2488,-4.3699,-4.3883,-4.414,-4.4378,-4.3167,-4.2378,-4.2047,-4.1075,-3.8322,-3.3959,0.0,0.0,-3.5092,-3.7771,-4.0102,-4.1974,-4.229,-4.3154,-4.4601,-4.3778,-4.2959,-4.2231,-4.2195,-4.1685,-4.0594,-4.0337,-3.9062,-3.6577,-3.5214,-3.2665,0.0,0.0,0.0,0.0,0.0,0.0,0.0,0.0,0.0,0.0,0.0,-2.0173,-2.0518,0.0,0.0,0.0,-2.7001,-2.8182,-3.007,-3.037,0.0,0.0,0.0,0.0,0.0,0.0,0.0,-3.5454,-3.6776,-3.8486,-4.0845,-3.9439,-3.8676,-4.0121,-4.0561,-4.0798,-4.0959,0.0,-4.2591,-4.2709,-4.2997,-4.3352,-4.3792,-4.3758,-4.3669,-4.3833,-4.3799,-4.3669,-4.3576,-4.3914,-4.3839,-4.3045,-4.3075,-4.3139,-4.2334,-4.0849,-3.9249,-3.7809,-3.7404,-3.7372,-3.7485,-3.756,-3.7828,-4.5626,-4.4563,-4.091,-3.9258,-3.9093,-3.9148,-4.001,-4.137,-4.137,-4.0563,-3.9258,-3.9882,-3.8961,-3.689,-3.6872,0.0,-3.9221,-3.9937,-4.1534,-4.3809,-4.4562,-4.5333,-4.6049,-4.5351,-4.5369,-4.6085,-4.5278,-4.4525,-4.3808,-4.3717,-4.2892,-4.1407,-4.0708,-3.99,-3.9203,-4.1974,-4.357,-4.3717,-4.4342,-4.4727,-4.4783,-4.4066,-4.3628,-4.3503,-4.3503,-4.3066,-4.2192,-4.2832,-4.1977,-3.9373,-3.8053,-3.6123,-3.3339,0.0,0.0,0.0,0.0,0.0,0.0,0.0,0.0,0.0,0.0,0.0,0.0,0.0,0.0,0.0,-3.0514,0.0,-3.3214,-3.3049,0.0,0.0,0.0,-3.5623,-3.7089,-3.7666,-3.8507,-3.9953,0.0,0.0,-4.2921,-4.2655,-4.2452,-4.2762,-4.3135,-4.3156,-4.2557,-4.369,-4.4401,-4.3696,-4.4265,-4.4767,-4.4869,-4.528,-4.5764,-4.6187,-4.6527,-4.6316,-4.615,-4.617,-4.6226,-4.591,-4.6077,-4.581,-4.5,-4.4626,-4.4055,-4.1286,-4.0742,-4.0497,-3.9838,-3.994,-4.0166,-4.7259,-4.6434,-4.548,-4.4066,-4.2415,-4.302,-4.348,-4.3846,-4.3829,-4.3626,-4.3242,-4.2837,-4.2321,-4.1789,-4.1789,-4.2323,-4.3278,-4.3479,-4.4544,-4.6195,-4.6434,-4.6947,-4.77,-4.7535,-4.7553,-4.7664,-4.6892,-4.6434,-4.6214,-4.5626,-4.4819,-4.3902,-4.4268,-4.3461,-4.157,-4.28,-4.4103,-4.5314,-4.4929,-4.5021,-4.559,-4.5406,-4.5021,-4.4416,-4.438,-4.4013,-4.3189,-4.387,-4.3597,-4.2232,-4.1251,-3.9583,-3.7025,-3.3783,0.0,0.0,0.0,0.0,0.0,0.0,0.0,0.0,0.0,-2.5172,-2.5371,0.0,-2.9603,0.0,-3.4477,-3.6872,-3.7747,-3.8232,0.0,0.0,-3.9154,-3.9138,-3.9264,-4.0368,-4.1292,-4.1745,-4.2562,-4.384,-4.5693,-4.5505,-4.5653,-4.6794,-4.4934,-4.3572,-4.4005,-4.4823,-4.5382,-4.5263,-4.5788,-4.6261,-4.6278,-4.6413,-4.6599,-4.6722,-4.6727,-4.665,-4.6484,-4.6438,-4.6394,-4.629,-4.6171,-4.6001,-4.5847,-4.5673,-4.5177,-4.4023,-4.3359,-4.2726,-4.195,-4.1821,-4.1724,-4.8049,-4.7626,-4.7626,-4.6856,-4.5663,-4.5755,-4.5975,-4.6287,-4.6287,-4.6104,-4.5718,-4.4911,-4.4562,-4.458,-4.4562,-4.48,-4.5259,-4.5608,-4.625,-4.7094,-4.7461,-4.7865,-4.8306,-4.8324,-4.8324,-4.8268,-4.7865,-4.7626,-4.759,-4.7186,-4.6746,-4.6342,-4.6746,-4.6122,-4.4525,-4.4525,-4.5002,-4.5883,-4.5461,-4.5461,-4.5865,-4.5902,-4.5535,-4.4745,-4.4709,-4.4323,-4.3551,-4.4198,-4.4181,-4.3341,-4.2777,-4.1504,-3.9401,-3.6608,-3.4326,0.0,0.0,0.0,0.0,0.0,0.0,0.0,0.0,0.0,0.0,0.0,-3.3824,-3.5729,-3.8264,-3.9948,-4.0383,-4.0782,-4.1307,-4.2031,-4.2085,-4.23,-4.283,-4.3922,-4.4803,-4.524,-4.6104,-4.707,-4.8151,-4.7897,-4.8013,-4.9167,-4.7306,-4.5821,-4.5913,-4.6379,-4.6684,-4.6718,-4.7293,-4.7767,-4.7784,-4.7767,-4.7767,-4.7767,-4.7767,-4.7753,-4.7629,-4.7629,-4.7568,-4.7432,-4.7357,-4.7233,-4.7076,-4.6965,-4.6727,-4.6339,-4.5912,-4.4982,-4.3392,-4.2984,-4.2757,-4.8324,-4.8324,-4.8324,-4.8324,-4.8251,-4.7553,-4.7645,-4.8324,-4.8324,-4.7921,-4.7204,-4.6526,-4.6214,-4.6195,-4.6214,-4.6214,-4.6269,-4.6948,-4.7241,-4.7296,-4.7957,-4.8324,-4.8324,-4.8324,-4.8324,-4.8324,-4.8324,-4.8324,-4.8324,-4.8324,-4.8251,-4.8159,-4.8159,-4.7736,-4.6929,-4.625,-4.5902,-4.5902,-4.5993,-4.6049,-4.6049,-4.5957,-4.5516,-4.4764,-4.4709,-4.4323,-4.3552,-4.4216,-4.4272,-4.3595,-4.3451,-4.2759,-4.1359,-3.9067,-3.711,0.0,-3.4108,0.0,0.0,0.0,0.0,0.0,0.0,0.0,0.0,-3.6216,-3.8536,-4.0782,-4.1687,-4.2193,-4.2284,-4.2483,-4.3171,-4.453,-4.4802,-4.5436,-4.6812,-4.7591,-4.8279,-4.8963,-4.9673,-5.013,-5.0176,-4.9842,-4.9812,-5.043,-4.9767,-4.8878,-4.8404,-4.8145,-4.8003,-4.8115,-4.8694,-4.9086,-4.9238,-4.9289,-4.9289,-4.9289,-4.9289,-4.9289,-4.9289,-4.9289,-4.9227,-4.9118,-4.9087,-4.8961,-4.8607,-4.8526,-4.8478,-4.8299,-4.8216,-4.7341,-4.4925,-4.4138,-4.3861,-4.8324,-4.8324,-4.8324,-4.8324,-4.8288,-4.8141,-4.8158,-4.8324,-4.8324,-4.8214,-4.8067,-4.7921,-4.7847,-4.7865,-4.7847,-4.7847,-4.7847,-4.7993,-4.8067,-4.8086,-4.8233,-4.8324,-4.8324,-4.8324,-4.8324,-4.8324,-4.8324,-4.8324,-4.8324,-4.8324,-4.7976,-4.7333,-4.7314,-4.6948,-4.6159,0.0,0.0,0.0,-4.6562,-4.6874,-4.6856,-4.6232,-4.5516,-4.4745,-4.4709,0.0,-4.3571,-4.4251,-4.4582,-4.4382,-4.4364,0.0,0.0,0.0,0.0,0.0,0.0,0.0,0.0,0.0,0.0,0.0,-3.9026,-3.9007,-3.7522,-3.9441,-4.1524,-4.3244,-4.415,-4.4892,-4.5544,-4.6773,-4.7642,-4.7971,-4.855,-4.9075,-4.9401,-4.9528,-4.9709,-4.9836,-5.0039,-5.0365,-5.0959,-5.0982,-5.122,-5.1896,-5.1504,-5.1322,-5.1704,-5.0051,-4.9042,-4.9431,-4.9733,-5.0118,-5.0678,-5.0712,-5.0659,-5.0811,-5.0811,-5.076,-5.071,-5.0744,-5.0777,-5.0696,-5.0667,-5.0536,-5.0422,-5.0341,-5.0059,-4.9959,-4.9909,-4.9209,-4.6749,-4.6194,-4.5833,-4.9536,0.0,-4.9536,-4.9536,0.0,-4.9536,-4.9536,-4.9481,-4.8655,-4.8324,-4.8324,-4.8324,-4.8324,-4.8324,-4.8324,-4.8324,-4.8324,-4.8324,-4.8324,-4.8324,-4.8324,-4.8324,-4.8324,-4.8324,-4.8324,-4.8324,-4.8324,-4.8324,-4.8324,-4.8324,-4.8104,-4.77,-4.8086,-4.8104,-4.7737,-4.7719,-4.7315,-4.6507,-4.6892,-4.7278,-4.7645,-4.7315,-4.6709,-4.592,-4.5883,0.0,0.0,0.0,0.0,0.0,0.0,0.0,0.0,0.0,0.0,-4.3725,-4.2338,-4.1592,-4.185,-4.1922,-4.2068,-4.2413,-4.3864,-4.39,-4.1868,-4.3172,-4.4747,-4.6305,-4.691,-4.7472,-4.8227,-4.9064,-4.9575,-4.951,-4.9854,-5.0112,-5.0148,-5.0456,-5.0732,-5.083,-5.1094,-5.1493,-5.1968,-5.24,-5.2727,-5.3144,-5.3044,-5.3114,-5.3494,-5.1647,-5.0163,-5.0461,-5.0589,-5.0777,-5.1116,-5.1234,-5.1234,-5.1217,-5.1234,-5.1234,-5.1234,-5.1234,-5.1234,-5.1185,-5.112,-5.1072,-5.1007,-5.0908,-5.0776,-5.0577,-5.0476,-5.0108,-4.8755,-4.8229,-4.7564,-5.0984,-5.0984,-5.0966,-5.0984,-5.0965,-5.0984,-5.0984,-5.0873,0.0,0.0,0.0,-4.8324,-4.8324,-4.8324,-4.8324,-4.8324,-4.8324,-4.8324,-4.8379,-4.8526,-4.8526,-4.86,-4.8727,-4.8746,-4.8746,-4.8746,-4.8746,-4.8746,-4.8746,-4.8746,-4.8765,-4.882,-4.9407,-4.9738,-4.9812,-4.9831,-4.9132,-4.7791,-4.7333,-4.7406,-4.8067,-4.7957,-4.7572,-4.6892,-4.6874,-4.6581,-4.592,-4.5902,-4.5902,-4.5902,-4.5902,-4.592,-4.5993,-4.5407,-4.5132,-4.5277,-4.4766,-4.4711,-4.5363,-4.5457,-4.5749,-4.6306,-4.7597,-4.7684,-4.6094,-4.6708,-4.7723,-4.9046,-4.9262,-4.9556,-5.0105,-5.0388,-5.0482,-5.0395,-5.0482,-5.0613,-5.0627,-5.1135,-5.1669,-5.1954,-5.2418,-5.289,-5.3217,-5.3736,-5.415,-5.4196,-5.4249,-5.4532,-5.4632,-5.2907,-5.1417,-5.1563,-5.153,-5.1422,-5.1623,-5.1725,-5.1623,-5.1758,-5.1708,-5.1623,-5.1623,-5.1591,-5.164,-5.1758,-5.1607,-5.1626,-5.1494,-5.1545,-5.1378,-5.1179,-5.0995,-5.0843,-5.0724,-5.0173,-4.928,-5.1684,-5.1665,-5.1665,-5.1647,-5.1665,-5.1647,-5.1647,-5.154,-5.0065,-4.8985,-4.8324,-4.8324,-4.8324,-4.8324,-4.8324,-4.8324,-4.8324,-4.8324,-4.871,-4.9408,-4.9427,-4.9774,-5.0435,-5.0453,-5.0453,-5.0453,-5.0453,-5.0453,-5.0453,-5.0435,-5.0453,-5.0453,-5.0563,-5.0618,-5.0637,-5.0637,-5.0527,-5.0251,-4.8177,-4.7149,-4.7259,-4.6599,-4.6195,-4.6085,-4.6122,-4.603,-4.5902,-4.5938,-4.5902,-4.5902,-4.5902,-4.6214,-4.6855,-4.6837,-4.7388,-4.8727,-4.8764,-4.9018,-4.9649,-4.974,-4.9718,-4.9706,-4.9925,-4.9648,-4.879,-4.9343,-4.9886,-5.0192,-5.0195,-5.0232,-5.0414,-5.1034,-5.1435,-5.1468,-5.2032,-5.2411,-5.2393,-5.252,-5.2889,-5.3512,-5.3713,-5.4055,-5.4629,-5.4921,-5.5025,-5.5025,-5.5169,-5.5184,-5.5104,-5.3839,-5.2898,-5.2877,-5.252,-5.2501,-5.2907,-5.3162,-5.3061,-5.3196,-5.3078,-5.301,-5.2993,-5.2993,-5.2993,-5.3129,-5.301,-5.3027,-5.3011,-5.3163,-5.2944,-5.2758,-5.2588,-5.2449,-5.2344,-5.2045,-5.1221,-5.3149,-5.3167,-5.3167,-5.3031,-5.2822,-5.284,-5.2579,-5.2167,-5.1708,-5.0916,-4.9973,-4.9936,-4.9822,-4.9664,-4.9664,-4.9664,-4.9664,-4.9646,-4.9866,-5.0233,-5.0251,-5.0435,-5.0784,-5.082,-5.082,-5.082,-5.082,-5.082,-5.082,-5.082,-5.082,-5.0839,-5.1224,-5.1463,-5.1444,-5.1444,-5.1224,-5.0784,-4.9663,-4.9094,-4.9076,-4.8746,-4.8563,-4.8545,-4.8563,-4.8563,-4.8545,-4.8581,-4.8563,-4.8563,-4.8563,-4.8728,-4.9077,-4.9094,-4.9462,-5.0196,-5.0233,-5.0358,-5.0586,-5.0584,-5.0584,-5.0641,-5.0963,-5.1054,-5.0751,-5.0495,-5.0557,-5.0982,-5.1101,-5.1323,-5.1678,-5.2105,-5.2488,-5.2882,-5.3243,-5.3626,-5.4009,-5.41,-5.4287,-5.4665,-5.4711,-5.4862,-5.5359,-5.5716,-5.599,-5.609,-5.6319,-5.6569,-5.6511,-5.5677,-5.4839,-5.4475,-5.3873,-5.3633,-5.391,-5.3701,-5.3534,-5.3518,-5.3518,-5.3518,-5.3518,-5.3518,-5.3518,-5.3518,-5.3518,-5.3518,-5.3534,-5.3501,-5.3619,-5.3939,-5.3784,-5.3711,-5.396,-5.363,-5.2415,-5.4546,-5.4546,-5.4546,-5.4313,-5.3961,-5.3961,-5.3588,-5.3063,-5.3454,-5.3048,-5.211,-5.1632,-5.1268,-5.1043,-5.1024,-5.1024,-5.1023,-5.0926,-5.1015,-5.1181,-5.1081,-5.1169,-5.1334,-5.1353,-5.1334,-5.1353,-5.1353,-5.1334,-5.1353,-5.1353,-5.1334,-5.1426,-5.1958,-5.2252,-5.227,-5.227,-5.1958,-5.1371,-5.1353,-5.1169,-5.082,-5.082,-5.0802,-5.082,-5.0784,-5.082,-5.082,-5.082,-5.082,-5.082,-5.082,-5.082,-5.082,-5.082,-5.0875,-5.1041,-5.1077,-5.111,-5.1195,-5.1193,-5.1234,-5.1332,-5.182,-5.2221,-5.2433,-5.1794,-5.1451,-5.1907,-5.2249,-5.2636,-5.3061,-5.3434,-5.3785,-5.4304,-5.4355,-5.4596,-5.5158,-5.5304,-5.5419,-5.5619,-5.5624,-5.5702,-5.6094,-5.6571,-5.6933,-5.7125,-5.7496,-5.775,-5.7607,-5.722,-5.6599,-5.5925,-5.5082,-5.4419,-5.4359,-5.3898,-5.3568,-5.3518,-5.3518,-5.3602,-5.3704,-5.3771,-5.389,-5.4025,-5.4076,-5.4126,-5.4059,-5.4059,-5.4296,-5.4718,-5.4663,-5.4675,-5.4991,-5.4522,-5.3473,-5.5292,-5.5286,-5.5265,-5.5052,-5.4716,-5.4666,-5.4594,-5.458,-5.4998,-5.4952,-5.4216,-5.2585,-5.1804,-5.1696,-5.1736,-5.1757,-5.1724,-5.1393,-5.1677,-5.2252,-5.2013,-5.227,-5.2858,-5.2949,-5.2986,-5.291,-5.2892,-5.2818,-5.2818,-5.2873,-5.2949,-5.2986,-5.3078,-5.3059,-5.3057,-5.3057,-5.302,-5.2965,-5.2983,-5.2289,-5.0894,-5.082,-5.082,-5.082,-5.0839,-5.082,-5.0912,-5.082,-5.082,-5.082,-5.0857,-5.0839,-5.0839,-5.0839,-5.1132,-5.1811,-5.1885,-5.2197,-5.2855,-5.2965,-5.291,-5.2983,-5.3002,-5.3369,-5.4051,-5.4047,-5.3696,-5.3347,-5.3736,-5.4121,-5.4304,-5.4855,-5.524,-5.5365,-5.542,-5.5478,-5.5621,-5.557,-5.5827,-5.6616,-5.6648,-5.6909,-5.7483,-5.768,-5.7772,-5.7758,-5.7776,-5.787,-5.7896,-5.7753,-5.7594,-5.7039,-5.5841,-5.4799,-5.454,-5.3915,-5.3821,-5.3687,-5.3551,-5.3873,-5.4329,-5.4532,-5.4651,-5.4989,-5.5327,-5.5242,-5.5309,-5.5497,-5.5446,-5.5512,-5.5491,-5.5347,-5.5185,-5.4971,-5.4313,-5.5052,-5.5052,-5.5052,-5.508,-5.508,-5.4704,-5.4623,-5.4821,-5.5214,-5.5168,-5.4779,-5.4178,-5.3694,-5.328,-5.328,-5.3264,-5.3282,-5.3148,-5.3229,-5.3511,-5.318,-5.3208,-5.3445,-5.3293,-5.3185,-5.3185,-5.3185,-5.3185,-5.3185,-5.3185,-5.3185,-5.3185,-5.3185,-5.3185,-5.3185,-5.3185,-5.3185,-5.3185,-5.3185,-5.2855,-5.2307,-5.2215,-5.2215,-5.2213,-5.2215,-5.2234,-5.2234,-5.2194,-5.2234,-5.2234,-5.2213,-5.2215,-5.2213,-5.2215,-5.2362,-5.2674,-5.2711,-5.2858,-5.3167,-5.3185,-5.3387,-5.3867,-5.3922,-5.4252,-5.5005,-5.5097,-5.495,-5.4748,-5.4913,-5.5097,-5.5133,-5.5409,-5.5757,-5.618,-5.6308,-5.6473,-5.6969,-5.6987,-5.7171,-5.7483,-5.7501,-5.7611,-5.7905,-5.7978,-5.7978,-5.7978,-5.795,-5.8129,-5.8509,-5.8571,-5.8701,-5.8828,-5.8017,-5.684,-5.592,-5.5544,-5.5193,-5.4907,-5.4803,-5.5006,-5.5124,-5.526,-5.5395,-5.5716,-5.5801,-5.5818,-5.5597,-5.5715,-5.5766,-5.6104,-5.6763,-5.6788,-5.6623,-5.616,-5.5576,-5.467,-5.4654,-5.4557,-5.4735,-5.5028,-5.4413,-5.426,-5.4538,-5.5004,-5.5066,-5.487,-5.5214,-5.5118,-5.4642,-5.4594,-5.4594,-5.4578,-5.4399,-5.4347,-5.4364,-5.3925,-5.3758,-5.3814,-5.3502,-5.3336,-5.3316,-5.323,-5.3185,-5.3185,-5.3185,-5.3185,-5.3185,-5.3185,-5.3185,-5.3185,-5.3185,-5.3185,-5.3185,-5.3185,-5.3185,-5.3167,-5.3185,-5.3185,-5.3185,-5.3185,-5.3185,-5.3185,-5.3185,-5.3185,-5.3185,-5.3185,-5.3185,-5.3185,-5.3185,-5.3185,-5.3185,-5.3185,-5.3316,-5.3497,-5.3537,-5.3867,-5.4601,-5.473,-5.506,-5.5739,-5.5923,-5.6033,-5.6253,-5.6235,-5.6216,-5.5941,-5.6106,-5.6528,-5.7042,-5.7134,-5.7391,-5.7868,-5.7978,-5.7923,-5.7978,-5.7905,-5.8107,-5.829,-5.8364,-5.8437,-5.8694,-5.8731,-5.8804,-5.9349,-5.9533,-5.9669,-6.0115,-5.9826,-5.9014,-5.7511,-5.6662,-5.6518,-5.6133,-5.5808,-5.5649,-5.5936,-5.6021,-5.6241,-5.6562,-5.6359,-5.6376,-5.6596,-5.6511,-5.6359,-5.6951,-5.7476,-5.776,-5.7513,-5.7103,-5.6717,-5.4332,-5.4262,-5.3907,-5.4034,-5.4313,-5.3907,-5.3758,-5.3925,-5.4541,-5.4806,-5.484,-5.52,-5.5377,-5.5292,-5.526,-5.5332,-5.5233,-5.4642,-5.4511,-5.47,-5.4068,-5.3907,-5.4228,-5.387,-5.3662,-5.3564,-5.3316,-5.3185,-5.3185,-5.3185,-5.3185,-5.3185,-5.3185,-5.3185,-5.3185,-5.3185,-5.3185,-5.3185,-5.3185,-5.3185,-5.3185,-5.3185,-5.3185,-5.3185,-5.3185,-5.3185,-5.3185,-5.3185,-5.3185,-5.3185,-5.3185,-5.3185,-5.3185,-5.3185,-5.3203,-5.3222,-5.3222,-5.3592,-5.4234,-5.4344,-5.4693,-5.5372,-5.5578,-5.5886,-5.6638,-5.6748,-5.7024,-5.7758,-5.7666,-5.7428,-5.6932,-5.7262,-5.7685,-5.7795,-5.7886,-5.7905,-5.796,-5.7978,-5.7978,-5.8052,-5.818,-5.851,-5.9056,-5.9129,-5.9465,-5.9924,-6.0199,-6.0254,-6.0291,-6.0364,-6.0365,-6.0487,-6.0653,-6.0544,-5.9074,-5.8192,-5.725,-5.6913,-5.6799,-5.6143,-5.6444,-5.6833,-5.7154,-5.7425,-5.7408,-5.7476,-5.7695,-5.7712,-5.7577,-5.7729,-5.7695,-5.7845,-5.7808,-5.7698,-5.7345,-5.4514,-5.4262,-5.387,-5.3944,-5.4228,-5.3851,-5.3833,-5.4105,-5.4382,-5.4479,-5.4544,-5.4874,-5.5023,-5.5038,-5.5286,-5.539,-5.5358,-5.5118,-5.5071,-5.5127,-5.4635,-5.4361,-5.4245,-5.3888,-5.3564,-5.3398,-5.3251,-5.3185,-5.3185,-5.3185,-5.3185,-5.3185,-5.3185,-5.3185,-5.3185,-5.3185,-5.3185,-5.3185,-5.3185,-5.3185,-5.3222,-5.3185,-5.3185,-5.3185,-5.3185,-5.3185,-5.3185,-5.3185,-5.3185,-5.3185,-5.3185,-5.3185,-5.3185,-5.3185,-5.3445,-5.3904,-5.3959,-5.4326,-5.5023,-5.5152,-5.55,-5.6253,-5.6363,-5.6693,-5.7391,-5.7574,-5.7703,-5.7923,-5.7978,-5.7813,-5.7721,-5.785,-5.7978,-5.7978,-5.7997,-5.8015,-5.7978,-5.7997,-5.818,-5.8712,-5.9189,-5.9685,-5.9832,-5.9979,-6.0107,-6.0327,-6.0419,-6.0658,-6.1043,-6.1172,-6.1276,-6.174,-6.1963,-6.1919,-6.1464,-6.0286,-5.9377,-5.8808,-5.8386,-5.7998,-5.8049,-5.7625,-5.7772,-5.7664,-5.7848,-5.7865,-5.7831,-5.7831,-5.7881,-5.7881,-5.7881,-5.7881,-5.7881,-5.7808,-5.7625,-5.5384,-5.522,-5.4873,-5.4758,-5.4827,-5.4462,-5.4258,-5.4317,-5.4296,-5.4296,-5.4364,-5.4654,-5.481,-5.487,-5.5214,-5.539,-5.5358,-5.5273,-5.5273,-5.5345,-5.4976,-5.475,-5.4594,-5.4141,-5.3758,-5.3522,-5.3293,-5.3185,-5.3185,-5.3185,-5.3185,-5.3185,-5.3185,-5.3185,-5.3185,-5.3185,-5.3185,-5.3222,-5.3442,-5.3592,-5.3628,-5.3867,-5.3995,-5.3977,-5.3977,-5.3702,-5.324,-5.3445,-5.3445,-5.3222,-5.3185,-5.3335,-5.3555,-5.3592,-5.3959,-5.4656,-5.4785,-5.5133,-5.5849,-5.5978,-5.6326,-5.7097,-5.7189,-5.7446,-5.7923,-5.7978,-5.7978,-5.7978,-5.7978,-5.7978,-5.8052,-5.8235,-5.829,-5.8125,-5.8235,-5.8382,-5.84,-5.8657,-5.9024,-5.9538,-5.9997,-6.0419,-6.0731,-6.0786,-6.0951,-6.1135,-6.1172,-6.1465,-6.1851,-6.2016,-6.2144,-6.2652,-6.2588,-6.2512,-6.2219,-6.1462,-6.0735,-6.021,-5.9505,-5.9325,-5.896,-5.8493,-5.8101,-5.7974,-5.7881,-5.7881,-5.7881,-5.7881,-5.7881,-5.7881,-5.7881,-5.7881,-5.7881,-5.7881,-5.7698,-5.6939,-5.7059,-5.6909,-5.6382,-5.5974,-5.5618,-5.5066,-5.4559,-5.4484,-5.4578,-5.4685,-5.4752,-5.4913,-5.496,-5.5211,-5.5377,-5.5332,-5.5085,-5.5094,-5.5332,-5.5023,-5.5023,-5.5187,-5.4594,-5.4228,-5.4106,-5.3541,-5.3227,-5.3206,-5.3185,-5.3185,-5.3185,-5.3185,-5.3185,-5.3185,-5.3259,-5.3277,-5.3463,-5.4032,-5.4399,-5.4509,-5.5042,-5.5354,-5.5427,-5.5464,-5.484,-5.3405,-5.4032,-5.4106,-5.3463,-5.335,-5.3628,-5.4308,-5.4399,-5.4766,-5.5445,-5.5592,-5.5996,-5.6675,-5.6822,-5.7134,-5.7703,-5.7941,-5.7886,-5.796,-5.7978,-5.7978,-5.7978,-5.807,-5.8088,-5.8217,-5.8786,-5.8914,-5.8272,-5.8749,-5.9208,-5.9336,-5.9905,-6.0401,-6.0438,-6.0603,-6.0823,-6.1355,-6.1612,-6.1832,-6.2328,-6.2487,-6.2487,-6.2585,-6.2622,-6.275,-6.278,-6.2705,-6.2654,-6.2578,-6.2404,-6.1897,-6.1329,-6.0562,-6.0058,-5.9511,-5.9045,-5.8511,-5.8298,-5.7937,-5.7918,-5.7881,-5.7881,-5.7881,-5.7881,-5.7881,-5.7881,-5.7881,-5.7881,-5.7772,-5.7207,-5.7254,-5.6928,-5.6729,-5.657,-5.6449,-5.6227,-5.6021,-5.6021,-5.604,-5.5925,-5.5484,-5.5419,-5.5511,-5.5246,-5.5159,-5.5377,-5.5273,-5.5292,-5.5383,-5.526,-5.5113,-5.4981,-5.4746,-5.4378,-5.3944,-5.3662,-5.3402,-5.3227,-5.3185,-5.3185,-5.3185,-5.3185,-5.3185,-5.3259,-5.372,-5.4032,-5.4142,-5.4821,-5.5207,-5.5225,-5.5464,-5.5611,-5.5647,-5.6124,-5.5923,-5.495,-5.5097,-5.5078,-5.4803,-5.4858,-5.4968,-5.5152,-5.5207,-5.5611,-5.629,-5.6436,-5.6767,-5.7483,-5.7611,-5.7685,-5.7941,-5.7978,-5.7978,-5.7978,-5.7978,-5.7997,-5.807,-5.8474,-5.8841,-5.8969,-5.9538,-5.9648,-5.8909,-5.9515,-6.0028,-6.0157,-6.075,-6.1153,-6.13,-6.1704,-6.2144,-6.2328,-6.2401,-6.2475,-6.2695,-6.2823,-6.2823,-6.2823,-6.2823,-6.2823,-6.2798,-6.2773,-6.2748,-6.2679,-6.2629,-6.2378,-6.1942,-6.1329,-6.0724,-6.0153,-5.9462,-5.896,-5.8423,-5.8101,-5.7937,-5.7918,-5.7881,-5.7881,-5.7881,-5.7881,-5.7881,-5.7881,-5.7845,-5.7772,-5.8456,-5.8441,-5.8218,-5.7951,-5.7686,-5.7667,-5.7478,-5.72,-5.7029,-5.6998,-5.6847,-5.6413,-5.6285,-5.6433,-5.6101,-5.6087,-5.6268,-5.6014,-5.5842,-5.5766,-5.5498,-5.526,-5.5004,-5.4855,-5.4409,-5.3814,-5.3701,-5.3524,-5.3206,-5.3185,-5.3185,-5.3203,-5.3482,-5.3665,-5.3739,-5.4418,-5.484,-5.495,-5.5629,-5.6051,-5.6106,-5.6326,-5.6514,-5.6565,-5.6987,-5.6969,-5.651,-5.6473,-5.6198,-5.5743,-5.5614,-5.5721,-5.5978,-5.6069,-5.64,-5.706,-5.7281,-5.7483,-5.7923,-5.7941,-5.7978,-5.7978,-5.7978,-5.7978,-5.7978,-5.7978,-5.807,-5.8492,-5.8872,-5.9313,-5.9703,-6.0382,-6.0548,-6.0181,-6.0529,-6.097,-6.1263,-6.1722,-6.1998,-6.2144,-6.2456,-6.275,-6.2823,-6.2823,-6.2823,-6.2823,-6.2823,-6.2823,-6.2823,-6.2823,-6.2823,-6.2823,-6.2798,-6.2798,-6.2798,-6.2773,-6.2748,-6.2404,-6.2041,-6.1433,-6.0891,-6.0012,-5.933,-5.8493,-5.7991,-5.7954,-5.7881,-5.7881,-5.7881,-5.7881,-5.7881,-5.7881,-5.7881,-5.7881,-5.7845,-6.037,-6.0403,-6.037,-5.9793,-5.9149,-5.9111,-5.8734,-5.8105,-5.7741,-5.7639,-5.7601,-5.7422,-5.7377,-5.7472,-5.7478,-5.7499,-5.7714,-5.7027,-5.6683,-5.6492,-5.6071,-5.565,-5.5325,-5.5038,-5.4541,-5.3961,-5.3851,-5.3698,-5.3603,-5.3562,-5.334,-5.3679,-5.4267,-5.4494,-5.4641,-5.5262,-5.5647,-5.5757,-5.6455,-5.6859,-5.6895,-5.7501,-5.785,-5.7831,-5.7868,-5.785,-5.7758,-5.7721,-5.7171,-5.5996,-5.5923,-5.6253,-5.673,-5.6877,-5.7226,-5.7831,-5.796,-5.7923,-5.7978,-5.7978,-5.7978,-5.7978,-5.7978,-5.7978,-5.7978,-5.7997,-5.829,-5.8964,-5.9258,-5.9667,-6.0419,-6.119,-6.1557,-6.1649,-6.1612,-6.1961,-6.264,-6.2732,-6.2658,-6.2713,-6.2805,-6.2823,-6.2823,-6.2823,-6.2823,-6.2823,-6.2823,-6.2823,-6.2823,-6.2823,-6.2823,-6.2823,-6.2823,-6.2823,-6.2823,-6.2798,-6.2773,-6.2654,-6.2352,-6.196,-6.1365,-6.045,-5.9546,-5.8702,-5.8046,-5.7974,-5.7881,-5.7881,-5.7881,-5.7881,-5.7881,-5.7881,-5.7881,-5.7881,-5.7881,-6.0403,-6.0403,-6.0403,-6.0255,-6.0064,-6.0064,-5.9931,-5.9739,-5.9593,-5.9421,-5.9407,-5.8646,-5.8391,-5.853,-5.7828,-5.7601,-5.7846,-5.7695,-5.7562,-5.7523,-5.739,-5.6473,-5.5613,-5.5325,-5.5019,-5.4616,-5.4613,-5.4646,-5.4874,-5.4839,-5.5006,-5.5401,-5.5547,-5.5586,-5.5456,-5.6114,-5.6455,-5.6602,-5.7262,-5.7671,-5.7666,-5.7831,-5.7978,-5.7978,-5.7978,-5.7978,-5.7978,-5.7978,-5.7868,-5.7464,-5.7354,-5.7428,-5.7593,-5.7629,-5.7721,-5.7905,-5.7978,-5.7978,-5.7978,-5.7978,-5.7978,-5.7978,-5.7978,-5.7978,-5.7978,-5.7997,-5.84,-5.9093,-5.9703,-6.0419,-6.1208,-6.1979,-6.2401,-6.2493,-6.242,-6.253,-6.275,-6.2823,-6.2823,-6.2823,-6.2823,-6.2823,-6.2823,-6.2823,-6.2823,-6.2823,-6.2823,-6.2823,-6.2823,-6.2823,-6.2823,-6.2823,-6.2823,-6.2823,-6.2823,-6.2823,-6.278,-6.2755,-6.2559,-6.2326,-6.1648,-6.0802,-5.9835,-5.8909,-5.8334,-5.8101,-5.7974,-5.7881,-5.7881,-5.7881,-5.7881,-5.7881,-5.7881,-5.7881,-5.7881,-6.0403,-6.0403,-6.0403,-6.0403,-6.0403,-6.0403,-6.0403,-6.0403,-6.0403,-6.0403,-6.0227,-5.9716,-5.9449,-5.954,-5.892,-5.8725,-5.8885,-5.8574,-5.8402,-5.8345,-5.8001,-5.7332,-5.6625,-5.6454,-5.6248,-5.5879,-5.5845,-5.5926,-5.6018,-5.604,-5.6126,-5.6215,-5.6722,-5.6733,-5.6475,-5.7304,-5.7709,-5.7691,-5.8032,-5.8168,-5.8001,-5.7978,-5.7978,-5.7978,-5.7978,-5.7978,-5.7978,-5.7978,-5.7978,-5.796,-5.796,-5.7978,-5.7978,-5.7978,-5.7978,-5.7978,-5.7978,-5.7978,-5.7978,-5.7978,-5.7978,-5.7978,-5.7978,-5.7978,-5.807,-5.829,-5.8859,-5.9667,-6.0438,-6.1227,-6.1961,-6.2548,-6.2768,-6.2768,-6.2823,-6.2823,-6.2823,-6.2823,-6.2823,-6.2823,-6.2823,-6.2823,-6.2823,-6.2823,-6.2823,-6.2823,-6.2823,-6.2823,-6.2823,-6.2823,-6.2823,-6.2823,-6.2823,-6.2823,-6.2823,-6.2823,-6.2823,-6.278,-6.2603,-6.2423,-6.1814,-6.101,-6.0121,-5.923,-5.8685,-5.8244,-5.8046,-5.7881,-5.7881,-5.7881,-5.7881,-5.7881,-5.7881,-5.7881,-5.7881,-6.0417,-6.0417,-6.0417,-6.0417,-6.0417,-6.0436,-6.0417,-6.0403,-6.0403,-6.0403,-6.037,-6.0384,-6.0241,-6.0403,-6.0074,-6.0293,-6.0269,-5.9529,-5.9319,-5.9071,-5.8708,-5.8211,-5.8192,-5.7695,-5.7458,-5.7199,-5.7328,-5.7242,-5.7173,-5.7111,-5.6944,-5.7136,-5.7826,-5.7904,-5.7784,-5.8576,-5.8913,-5.8617,-5.8489,-5.8412,-5.8164,-5.8029,-5.7978,-5.7978,-5.7978,-5.7978,-5.7978,-5.7978,-5.7978,-5.7978,-5.7978,-5.7978,-5.7978,-5.7978,-5.7978,-5.7978,-5.7978,-5.7978,-5.7978,-5.7978,-5.7978,-5.7978,-5.7978,-5.807,-5.829,-5.8767,-5.9465,-6.0456,-6.1172,-6.1814,-6.2511,-6.2805,-6.2805,-6.2823,-6.2823,-6.2823,-6.2823,-6.2823,-6.2823,-6.2823,-6.2823,-6.2823,-6.2823,-6.2823,-6.2823,-6.2823,-6.2823,-6.2823,-6.2823,-6.2823,-6.2823,-6.2823,-6.2823,-6.2823,-6.2823,-6.2823,-6.2823,-6.278,-6.257,-6.2318,-6.1887,-6.1127,-6.0309,-5.9594,-5.9011,-5.8423,-5.7974,-5.7881,-5.7881,-5.7881,-5.7881,-5.7881,-5.7881,-5.7881,-5.7881,-6.0552,-6.0571,-6.0552,-6.0565,-6.0552,-6.0518,-6.0504,-6.0472,-6.0398,-6.0417,-6.0403,-6.0403,-6.0403,-6.0403,-6.0417,-6.0403,-6.0417,-6.0155,-6.0122,-6.0083,-5.9988,-5.9868,-5.9543,-5.8664,-5.7936,-5.7867,-5.781,-5.8073,-5.8434,-5.857,-5.8744,-5.8965,-5.9005,-5.9202,-5.8915,-5.9027,-5.9178,-5.9027,-5.8792,-5.8607,-5.8476,-5.819,-5.807,-5.8024,-5.8001,-5.7978,-5.7978,-5.7978,-5.7978,-5.7978,-5.7978,-5.7978,-5.7978,-5.7978,-5.7978,-5.7978,-5.7978,-5.7978,-5.7978,-5.7978,-5.7997,-5.807,-5.8125,-5.8272,-5.8891,-5.9129,-5.996,-6.0951,-6.152,-6.2016,-6.2658,-6.2823,-6.2823,-6.2823,-6.2823,-6.2823,-6.2823,-6.2823,-6.2823,-6.2823,-6.2823,-6.2823,-6.2823,-6.2823,-6.2823,-6.2823,-6.2823,-6.2823,-6.2823,-6.2823,-6.2823,-6.2823,-6.2823,-6.2823,-6.2823,-6.2823,-6.2823,-6.278,-6.2596,-6.2389,-6.196,-6.1508,-6.0784,-6.0027,-5.9297,-5.8755,-5.8227,-5.7881,-5.7881,-5.7881,-5.7881,-5.7881,-5.7881,-5.7881,-5.7881,-6.0578,-6.0552,-6.0591,-6.0578,-6.0552,-6.0552,-6.0552,-6.0539,-6.0493,-6.0499,-6.0499,-6.0499,-6.0499,-6.0499,-6.0499,-6.0499,-6.0499,-6.0499,-6.0499,-6.048,-6.048,-6.048,-6.0422,-5.972,-5.9146,-5.9119,-5.9184,-5.9439,-5.9693,-5.9742,-5.9741,-5.9817,-6.0019,-5.9833,-5.9588,-5.9658,-5.9656,-5.9485,-5.9288,-5.9084,-5.8852,-5.8708,-5.8415,-5.8257,-5.8097,-5.7978,-5.7978,-5.7978,-5.7978,-5.7978,-5.8001,-5.8001,-5.7978,-5.7978,-5.7978,-5.7978,-5.7978,-5.7978,-5.7978,-5.8015,-5.818,-5.8529,-5.8565,-5.9043,-5.9667,-6.007,-6.0639,-6.1429,-6.1942,-6.2383,-6.275,-6.2823,-6.2823,-6.2823,-6.2823,-6.2823,-6.2823,-6.2823,-6.2823,-6.2823,-6.2823,-6.2823,-6.2823,-6.2823,-6.2823,-6.2823,-6.2823,-6.2823,-6.2823,-6.2823,-6.2823,-6.2823,-6.2823,-6.2823,-6.2823,-6.2823,-6.2823,-6.2755,-6.2654,-6.2475,-6.2247,-6.1805,-6.1347,-6.0572,-5.9788,-5.9196,-5.872,-5.8334,-5.7918,-5.7881,-5.7881,-5.7881,-5.7881,-5.7881,-5.7881,-6.0585,-6.0533,-6.0604,-6.0604,-6.0565,-6.0604,-6.0617,-6.0617,-6.0604,-6.0578,-6.061,-6.0623,-6.0578,-6.0591,-6.0591,-6.061,-6.0591,-6.0591,-6.0597,-6.0597,-6.0597,-6.0597,-6.052,-6.0438,-6.0342,-6.052,-6.0373,-6.0437,-6.0424,-6.0533,-6.0264,-6.0045,-6.0261,-6.0217,-6.0049,-6.0178,-6.0193,-5.9925,-5.9741,-5.9571,-5.9288,-5.9197,-5.893,-5.871,-5.8458,-5.8301,-5.8304,-5.826,-5.8235,-5.8186,-5.8138,-5.8138,-5.816,-5.8042,-5.7978,-5.7978,-5.7978,-5.7978,-5.8052,-5.818,-5.8547,-5.9184,-5.9349,-5.9777,-6.0493,-6.1043,-6.1484,-6.1887,-6.2328,-6.2713,-6.2823,-6.2823,-6.2823,-6.2823,-6.2823,-6.2823,-6.2823,-6.2823,-6.2823,-6.2823,-6.2823,-6.2823,-6.2823,-6.2823,-6.2823,-6.2823,-6.2823,-6.2823,-6.2823,-6.2823,-6.2823,-6.2823,-6.2823,-6.2823,-6.2823,-6.2823,-6.2823,-6.2755,-6.2679,-6.2552,-6.2423,-6.2087,-6.1638,-6.0998,-6.0313,-5.9659,-5.8943,-5.8334,-5.8046,-5.7937,-5.7881,-5.7881,-5.7881,-5.7881,-5.7881,-6.0765,-6.0734,-6.0765,-6.0746,-6.0734,-6.0697,-6.0673,-6.066,-6.0629,-6.0604,-6.0604,-6.0623,-6.0617,-6.0623,-6.0604,-6.0604,-6.0636,-6.0629,-6.0617,-6.0636,-6.0636,-6.0617,-6.0629,-6.0667,-6.068,-6.0667,-6.0642,-6.0604,-6.0591,-6.0578,-6.0506,-6.0406,-6.0453,-6.0379,-6.0342,-6.0375,-6.0389,-6.0237,-6.0019,-5.9807,-5.9692,-5.9415,-5.9215,-5.9103,-5.8949,-5.891,-5.8949,-5.8968,-5.9007,-5.8969,-5.8669,-5.8747,-5.8916,-5.8554,-5.8285,-5.8207,-5.818,-5.8235,-5.8382,-5.8759,-5.9006,-5.9313,-5.9874,-6.0566,-6.119,-6.1557,-6.1961,-6.2383,-6.264,-6.2823,-6.2823,-6.2823,-6.2823,-6.2823,-6.2823,-6.2823,-6.2823,-6.2823,-6.2823,-6.2823,-6.2823,-6.2823,-6.2823,-6.2823,-6.2823,-6.2823,-6.2823,-6.2823,-6.2823,-6.2823,-6.2823,-6.2823,-6.2823,-6.2823,-6.2823,-6.2823,-6.2823,-6.278,-6.2679,-6.257,-6.2441,-6.231,-6.1869,-6.1326,-6.0638,-5.9885,-5.9146,-5.8458,-5.8082,-5.7937,-5.7918,-5.7881,-5.7881,-5.7881,-5.7881,-6.0788,-6.0765,-6.0769,-6.0788,-6.0765,-6.0765,-6.0765,-6.0753,-6.0729,-6.0704,-6.0704,-6.0685,-6.0704,-6.0704,-6.0704,-6.0704,-6.0704,-6.0685,-6.0704,-6.0704,-6.0704,-6.0704,-6.0685,-6.0734,-6.0753,-6.0734,-6.0697,-6.066,-6.0648,-6.0673,-6.0642,-6.0578,-6.0591,-6.0578,-6.0512,-6.0439,-6.0472,-6.0425,-6.0261,-6.014,-6.011,-5.9723,-5.9537,-5.9504,-5.9344,-5.9215,-5.9215,-5.9215,-5.9459,-5.9741,-5.9701,-5.9945,-6.0151,-6.0126,-5.9708,-5.9369,-5.9082,-5.9172,-5.9486,-6.0018,-6.0264,-6.0528,-6.1019,-6.1595,-6.2034,-6.2273,-6.2408,-6.2658,-6.2823,-6.2823,-6.2823,-6.2823,-6.2823,-6.2823,-6.2823,-6.2823,-6.2823,-6.2823,-6.2823,-6.2823,-6.2823,-6.2823,-6.2823,-6.2823,-6.2823,-6.2823,-6.2823,-6.2823,-6.2823,-6.2823,-6.2823,-6.2823,-6.2823,-6.2823,-6.2823,-6.2823,-6.2823,-6.278,-6.273,-6.2622,-6.2467,-6.2336,-6.2123,-6.172,-6.0956,-6.0282,-5.9626,-5.9045,-5.8528,-5.801,-5.7954,-5.7918,-5.7918,-5.7881,-5.7881,-6.0757,-6.0741,-6.0769,-6.0777,-6.0722,-6.0757,-6.08,-6.08,-6.08,-6.0769,-6.08,-6.0781,-6.0781,-6.08,-6.08,-6.08,-6.08,-6.08,-6.0769,-6.0769,-6.0769,-6.08,-6.08,-6.08,-6.08,-6.0788,-6.0769,-6.0757,-6.0741,-6.0746,-6.0729,-6.0667,-6.0673,-6.066,-6.0572,-6.0539,-6.0565,-6.0565,-6.0552,-6.0525,-6.0425,-6.0188,-6.0083,-6.02,-5.9885,-5.9878,-6.025,-6.0272,-6.0536,-6.0878,-6.1014,-6.1166,-6.1768,-6.1845,-6.1637,-6.1205,-6.0598,-6.0673,-6.0965,-6.1414,-6.1525,-6.1748,-6.2246,-6.2628,-6.2815,-6.2861,-6.2898,-6.283,-6.2935,-6.2904,-6.283,-6.2823,-6.2823,-6.2823,-6.2823,-6.2823,-6.2823,-6.2823,-6.2823,-6.2823,-6.2823,-6.2823,-6.2823,-6.2823,-6.2823,-6.2823,-6.2823,-6.2823,-6.2823,-6.2823,-6.2823,-6.2823,-6.2823,-6.2823,-6.2823,-6.2823,-6.2823,-6.278,-6.2755,-6.2672,-6.2545,-6.2389,-6.215,-6.1905,-6.1636,-6.0986,-6.0282,-5.9528,-5.8841,-5.8317,-5.8082,-5.7918,-5.7918,-5.7881,-5.7881,-6.08,-6.0788,-6.08,-6.08,-6.0788,-6.08,-6.08,-6.08,-6.08,-6.08,-6.08,-6.08,-6.08,-6.08,-6.08,-6.08,-6.08,-6.08,-6.08,-6.08,-6.08,-6.08,-6.08,-6.08,-6.08,-6.08,-6.08,-6.08,-6.0788,-6.08,-6.0777,-6.0717,-6.0685,-6.066,-6.0623,-6.0604,-6.061,-6.0623,-6.061,-6.0668,-6.0712,-6.0679,-6.1015,-6.1371,-6.1478,-6.1582,-6.201,-6.2022,-6.2273,-6.2429,-6.2241,-6.233,-6.2623,-6.2409,-6.293,-6.2957,-6.2512,-6.1542,-6.1899,-6.2368,-6.2644,-6.2813,-6.3081,-6.3308,-6.334,-6.3354,-6.3262,-6.283,-6.3115,-6.321,-6.2959,-6.2805,-6.2805,-6.2823,-6.2823,-6.2823,-6.2823,-6.2823,-6.2823,-6.2823,-6.2823,-6.2823,-6.2823,-6.2823,-6.2823,-6.2823,-6.2823,-6.2823,-6.2823,-6.2823,-6.2823,-6.2823,-6.2823,-6.2823,-6.2823,-6.2823,-6.2823,-6.2823,-6.2773,-6.2723,-6.2545,-6.2389,-6.2248,-6.2033,-6.1822,-6.159,-6.0939,-6.0121,-5.9212,-5.8599,-5.8227,-5.8046,-5.7881,-5.7881,-5.7881,-6.08,-6.08,-6.08,-6.08,-6.08,-6.08,-6.08,-6.08,-6.08,-6.08,-6.08,-6.08,-6.08,-6.08,-6.08,-6.08,-6.08,-6.08,-6.08,-6.08,-6.08,-6.08,-6.08,-6.08,-6.08,-6.08,-6.08,-6.08,-6.08,-6.08,-6.0788,-6.0765,-6.0765,-6.0765,-6.0781,-6.0699,-6.0673,-6.0826,-6.1153,-6.1627,-6.194,-6.2049,-6.2189,-6.2553,-6.2494,-6.2749,-6.2985,-6.3028,-6.3307,-6.3542,-6.3546,-6.3828,-6.4226,-6.4301,-6.4496,-6.4702,-6.4371,-6.3833,-6.3629,-6.3802,-6.3766,-6.363,-6.3707,-6.3723,-6.3609,-6.3696,-6.3785,-6.3587,-6.3494,-6.3377,-6.3181,-6.2959,-6.283,-6.2823,-6.2823,-6.2823,-6.2823,-6.2823,-6.2823,-6.2823,-6.2823,-6.2823,-6.2823,-6.2823,-6.2823,-6.2823,-6.2823,-6.2823,-6.2823,-6.2823,-6.2823,-6.2823,-6.2823,-6.2823,-6.2823,-6.2823,-6.2823,-6.2823,-6.2823,-6.2723,-6.2519,-6.2336,-6.2248,-6.2141,-6.195,-6.1692,-6.143,-6.0651,-5.9626,-5.8943,-5.8352,-5.8137,-5.7937,-5.7881,-5.7881,-6.08,-6.08,-6.08,-6.08,-6.08,-6.08,-6.08,-6.08,-6.08,-6.08,-6.08,-6.08,-6.08,-6.08,-6.08,-6.08,-6.08,-6.08,-6.08,-6.08,-6.08,-6.08,-6.08,-6.08,-6.08,-6.08,-6.08,-6.08,-6.08,-6.08,-6.08,-6.08,-6.0788,-6.0973,-6.1096,-6.1188,-6.1253,-6.1661,-6.2086,-6.2573,-6.2983,-6.3054,-6.322,-6.3393,-6.3475,-6.3539,-6.3731,-6.3786,-6.4208,-6.4501,-6.466,-6.4895,-6.5292,-6.5303,-6.5293,-6.5422,-6.5192,-6.5104,-6.4867,-6.4831,-6.4754,-6.4538,-6.4254,-6.4134,-6.3803,-6.4014,-6.4155,-6.4016,-6.4014,-6.3782,-6.349,-6.3158,-6.2984,-6.288,-6.2823,-6.2823,-6.2823,-6.2823,-6.2823,-6.2823,-6.2823,-6.2823,-6.2823,-6.2823,-6.2823,-6.2823,-6.2823,-6.2823,-6.2823,-6.2823,-6.2823,-6.2823,-6.2823,-6.2823,-6.2823,-6.2823,-6.2823,-6.2823,-6.2823,-6.2723,-6.2545,-6.2389,-6.2301,-6.2168,-6.2051,-6.1923,-6.1692,-6.0867,-6.0062,-5.9462,-5.8875,-5.8298,-5.7993,-5.7937,-5.7881,-6.08,-6.08,-6.08,-6.08,-6.08,-6.08,-6.08,-6.08,-6.08,-6.08,-6.08,-6.08,-6.08,-6.08,-6.08,-6.08,-6.08,-6.08,-6.08,-6.08,-6.08,-6.08,-6.08,-6.08,-6.08,-6.08,-6.08,-6.08,-6.0858,-6.1031,-6.0916,-6.08,-6.1069,-6.1416,-6.1743,-6.2,-6.2385,-6.2781,-6.3161,-6.3276,-6.3507,-6.3591,-6.3834,-6.436,-6.4494,-6.4743,-6.5492,-6.5298,-6.5194,-6.5386,-6.5386,-6.5405,-6.563,-6.5655,-6.5641,-6.5627,-6.5641,-6.5547,-6.5427,-6.5352,-6.5375,-6.5217,-6.4949,-6.4557,-6.4174,-6.4502,-6.452,-6.4293,-6.4407,-6.4214,-6.3825,-6.3422,-6.3205,-6.3032,-6.2904,-6.2823,-6.2823,-6.2823,-6.2823,-6.2823,-6.2823,-6.2823,-6.2823,-6.2823,-6.2823,-6.2823,-6.2823,-6.2823,-6.2823,-6.2823,-6.2823,-6.2823,-6.2823,-6.2823,-6.2823,-6.2823,-6.2823,-6.2823,-6.2823,-6.2723,-6.2596,-6.2467,-6.2336,-6.2195,-6.2051,-6.2023,-6.1969,-6.1315,-6.0669,-6.0012,-5.933,-5.8423,-5.801,-5.7901,-5.7881,-6.08,-6.08,-6.08,-6.08,-6.08,-6.08,-6.08,-6.08,-6.08,-6.08,-6.08,-6.08,-6.08,-6.08,-6.08,-6.08,-6.08,-6.08,-6.08,-6.08,-6.08,-6.08,-6.08,-6.0819,-6.08,-6.0839,-6.0839,-6.1166,-6.1601,-6.1581,-6.1993,-6.207,-6.1877,-6.2166,-6.257,-6.2954,-6.3397,-6.3878,-6.4166,-6.4282,-6.4859,-6.4916,-6.5051,-6.532,-6.5404,-6.5494,-6.5782,-6.5775,-6.5781,-6.5781,-6.5768,-6.5768,-6.5768,-6.5768,-6.5742,-6.5728,-6.5742,-6.5709,-6.5622,-6.5566,-6.5431,-6.5182,-6.5085,-6.4983,-6.4612,-6.4932,-6.5049,-6.4947,-6.481,-6.4576,-6.4407,-6.3825,-6.3377,-6.3186,-6.3056,-6.2904,-6.2823,-6.2823,-6.2823,-6.2823,-6.2823,-6.2823,-6.2823,-6.2823,-6.2823,-6.2823,-6.2823,-6.2823,-6.2823,-6.2823,-6.2823,-6.2823,-6.2823,-6.2823,-6.2823,-6.2823,-6.2823,-6.2823,-6.2823,-6.2705,-6.2603,-6.2493,-6.2336,-6.2195,-6.2078,-6.2023,-6.1923,-6.1766,-6.118,-6.0219,-5.9214,-5.8209,-5.7974,-5.7918,-5.7881,-6.08,-6.08,-6.08,-6.08,-6.08,-6.08,-6.08,-6.08,-6.08,-6.08,-6.08,-6.08,-6.08,-6.08,-6.08,-6.08,-6.08,-6.08,-6.08,-6.08,-6.08,-6.08,-6.0877,-6.1089,-6.132,-6.1243,-6.1531,-6.1973,-6.2435,-6.2454,-6.2916,-6.3224,-6.3205,-6.3339,-6.357,-6.4012,-6.4397,-6.4839,-6.5051,-6.5205,-6.5801,-6.582,-6.5801,-6.582,-6.5801,-6.582,-6.5878,-6.5865,-6.5865,-6.5865,-6.5865,-6.5878,-6.5878,-6.5878,-6.5853,-6.5859,-6.5859,-6.5808,-6.5742,-6.5594,-6.546,-6.5291,-6.5341,-6.5264,-6.5201,-6.5264,-6.531,-6.5314,-6.5101,-6.4932,-6.4827,-6.4273,-6.3718,-6.3517,-6.328,-6.311,-6.288,-6.2823,-6.2823,-6.2823,-6.2823,-6.2823,-6.2823,-6.2823,-6.2823,-6.2823,-6.2823,-6.2823,-6.2823,-6.2823,-6.2823,-6.2823,-6.2823,-6.2823,-6.2823,-6.2823,-6.2823,-6.2823,-6.278,-6.273,-6.2629,-6.2493,-6.2389,-6.2283,-6.2168,-6.2051,-6.1868,-6.1636,-6.0986,-6.0188,-5.9113,-5.7974,-5.7937,-5.7881,-5.7881,-6.08,-6.08,-6.08,-6.08,-6.08,-6.08,-6.08,-6.08,-6.08,-6.08,-6.08,-6.08,-6.08,-6.08,-6.08,-6.08,-6.0839,-6.0877,-6.0935,-6.0993,-6.1243,-6.0993,-6.1262,-6.1666,-6.207,-6.2274,-6.2531,-6.2897,-6.3301,-6.3301,-6.3801,-6.4359,-6.4436,-6.4436,-6.4628,-6.5397,-6.5801,-6.584,-6.5782,-6.582,-6.5859,-6.5878,-6.5878,-6.5878,-6.5878,-6.5878,-6.5878,-6.5878,-6.5878,-6.5878,-6.5878,-6.5878,-6.5878,-6.5878,-6.5878,-6.5897,-6.5897,-6.5878,-6.5865,-6.5715,-6.5613,-6.5523,-6.5556,-6.5494,-6.546,-6.5494,-6.5479,-6.5435,-6.5345,-6.515,-6.4966,-6.4704,-6.4214,-6.3867,-6.3627,-6.3303,-6.308,-6.2823,-6.2823,-6.2823,-6.2823,-6.2823,-6.2823,-6.2823,-6.2823,-6.2823,-6.2823,-6.2823,-6.2823,-6.2823,-6.2823,-6.2823,-6.2823,-6.2823,-6.2823,-6.2823,-6.2823,-6.2823,-6.2798,-6.273,-6.2629,-6.2519,-6.2415,-6.2336,-6.2195,-6.2023,-6.1766,-6.1487,-6.0789,-6.0093,-5.8823,-5.7918,-5.7918,-5.7881,-5.7881,-6.08,-6.08,-6.08,-6.08,-6.08,-6.08,-6.08,-6.08,-6.08,-6.08,-6.08,-6.08,-6.08,-6.08,-6.0877,-6.0916,-6.0954,-6.1543,-6.1658,-6.1704,-6.2089,-6.2435,-6.257,-6.2627,-6.2897,-6.2974,-6.3281,-6.3782,-6.4166,-6.4166,-6.4666,-6.5243,-6.534,-6.5474,-6.5493,-6.582,-6.5878,-6.5878,-6.5878,-6.5878,-6.5878,-6.5878,-6.5878,-6.5878,-6.5878,-6.5878,-6.5878,-6.5878,-6.5878,-6.5878,-6.5878,-6.5878,-6.5878,-6.5878,-6.5878,-6.5878,-6.5878,-6.5878,-6.5897,-6.5827,-6.5787,-6.5728,-6.5674,-6.5627,-6.5566,-6.5566,-6.5552,-6.5523,-6.5499,-6.5356,-6.5291,-6.4932,-6.4539,-6.435,-6.4053,-6.3602,-6.3257,-6.2959,-6.2823,-6.2823,-6.2823,-6.2823,-6.2823,-6.2823,-6.2823,-6.2823,-6.2823,-6.2823,-6.2823,-6.2823,-6.2823,-6.2823,-6.2823,-6.2823,-6.2823,-6.2823,-6.2823,-6.2823,-6.2798,-6.2748,-6.2647,-6.2545,-6.2415,-6.231,-6.2141,-6.1996,-6.1766,-6.1458,-6.0789,-5.9917,-5.8823,-5.8046,-5.7918,-5.7881,-5.7881,-6.0973,-6.1243,-6.1243,-6.1435,-6.1531,-6.105,-6.08,-6.0858,-6.1089,-6.1243,-6.132,-6.1531,-6.1723,-6.1704,-6.1666,-6.1685,-6.1743,-6.2185,-6.2512,-6.2589,-6.2993,-6.3108,-6.3231,-6.3615,-6.3762,-6.382,-6.4128,-6.4589,-6.5032,-6.5032,-6.532,-6.5686,-6.5878,-6.5801,-6.584,-6.5859,-6.5878,-6.5878,-6.5878,-6.5878,-6.5878,-6.5878,-6.5878,-6.5878,-6.5878,-6.5878,-6.5878,-6.5878,-6.5878,-6.5878,-6.5878,-6.5878,-6.5878,-6.5878,-6.5878,-6.5878,-6.5878,-6.5878,-6.5897,-6.5897,-6.584,-6.5833,-6.5761,-6.5701,-6.5688,-6.5674,-6.5641,-6.5613,-6.5585,-6.5523,-6.5431,-6.5066,-6.4949,-6.4738,-6.4273,-6.3803,-6.3422,-6.311,-6.2823,-6.2823,-6.2823,-6.2823,-6.2823,-6.2823,-6.2823,-6.2823,-6.2823,-6.2823,-6.2823,-6.2823,-6.2823,-6.2823,-6.2823,-6.2823,-6.2823,-6.2823,-6.2823,-6.2823,-6.2798,-6.2773,-6.2672,-6.257,-6.2415,-6.2257,-6.2114,-6.1978,-6.185,-6.1476,-6.0819,-6.0044,-5.9113,-5.8475,-5.801,-5.7881,-5.7881,-6.1377,-6.2082,-6.2139,-6.2551,-6.2935,-6.1647,-6.1012,-6.1012,-6.1793,-6.2139,-6.2178,-6.2858,-6.2962,-6.3135,-6.3173,-6.3077,-6.3096,-6.3212,-6.3339,-6.3435,-6.3724,-6.3666,-6.3916,-6.432,-6.457,-6.4897,-6.5166,-6.5378,-6.584,-6.5667,-6.5743,-6.5859,-6.5878,-6.5878,-6.5878,-6.5878,-6.5878,-6.5878,-6.5878,-6.5878,-6.5878,-6.5878,-6.5878,-6.5878,-6.5878,-6.5878,-6.5878,-6.5878,-6.5878,-6.5878,-6.5878,-6.5878,-6.5878,-6.5878,-6.5878,-6.5878,-6.5878,-6.5878,-6.5878,-6.5878,-6.5878,-6.5885,-6.5865,-6.5859,-6.582,-6.5774,-6.5761,-6.5682,-6.5641,-6.558,-6.5494,-6.5371,-6.5279,-6.486,-6.4389,-6.3973,-6.3583,-6.3233,-6.2929,-6.2823,-6.2823,-6.2823,-6.2823,-6.2823,-6.2823,-6.2823,-6.2823,-6.2823,-6.2823,-6.2823,-6.2823,-6.2823,-6.2823,-6.2823,-6.2823,-6.2823,-6.2823,-6.2823,-6.2823,-6.2773,-6.2698,-6.2596,-6.2441,-6.2283,-6.2114,-6.1978,-6.1895,-6.1505,-6.0927,-6.0125,-5.9347,-5.8668,-5.8137,-5.7954,-5.7881,-6.2724,-6.2954,-6.2954,-6.3108,-6.3212,-6.2801,-6.2589,-6.2647,-6.2897,-6.2954,-6.2993,-6.3173,-6.3481,-6.3288,-6.3288,-6.3346,-6.357,-6.3858,-6.4147,-6.4378,-6.4666,-6.4993,-6.5186,-6.5282,-6.5474,-6.5551,-6.5743,-6.5878,-6.5878,-6.5878,-6.5878,-6.5878,-6.5878,-6.5878,-6.5878,-6.5878,-6.5878,-6.5878,-6.5878,-6.5878,-6.5878,-6.5878,-6.5878,-6.5878,-6.5878,-6.5878,-6.5878,-6.5878,-6.5878,-6.5878,-6.5878,-6.5878,-6.5878,-6.5878,-6.5878,-6.5878,-6.5878,-6.5878,-6.5878,-6.5878,-6.5878,-6.5878,-6.5878,-6.5897,-6.5872,-6.5859,-6.5827,-6.5768,-6.5728,-6.5701,-6.5627,-6.5556,-6.545,-6.5147,-6.4647,-6.4156,-6.3761,-6.3331,-6.3014,-6.2823,-6.2823,-6.2823,-6.2823,-6.2823,-6.2823,-6.2823,-6.2823,-6.2823,-6.2823,-6.2823,-6.2823,-6.2823,-6.2823,-6.2823,-6.2823,-6.2823,-6.2823,-6.2823,-6.2823,-6.2798,-6.2767,-6.2665,-6.2485,-6.2401,-6.2359,-6.2205,-6.1996,-6.1579,-6.121,-6.0454,-5.9709,-5.896,-5.8351,-5.8082,-5.7881,-6.3512,-6.3788,-6.382,-6.4012,-6.432,-6.4339,-6.432,-6.4282,-6.3993,-6.382,-6.3858,-6.4224,-6.4339,-6.4416,-6.4436,-6.4436,-6.4493,-6.4878,-6.5128,-6.5263,-6.5628,-6.5686,-6.5859,-6.5878,-6.582,-6.5878,-6.5878,-6.5878,-6.5878,-6.5878,-6.5878,-6.5878,-6.5878,-6.5878,-6.5878,-6.5878,-6.5878,-6.5878,-6.5878,-6.5878,-6.5878,-6.5878,-6.5878,-6.5878,-6.5878,-6.5878,-6.5878,-6.5878,-6.5878,-6.5878,-6.5878,-6.5878,-6.5878,-6.5878,-6.5878,-6.5878,-6.5878,-6.5878,-6.5878,-6.5878,-6.5878,-6.5878,-6.5878,-6.5878,-6.5878,-6.5865,-6.5865,-6.5853,-6.5827,-6.5801,-6.5747,-6.5674,-6.5604,-6.5499,-6.4928,-6.4389,-6.3892,-6.3431,-6.3139,-6.288,-6.2823,-6.2823,-6.2823,-6.2823,-6.2823,-6.2823,-6.2823,-6.2823,-6.2823,-6.2823,-6.2823,-6.2823,-6.2823,-6.2823,-6.2823,-6.2823,-6.2823,-6.2823,-6.2823,-6.2798,-6.281,-6.2976,-6.3095,-6.291,-6.2685,-6.2477,-6.2277,-6.1977,-6.1561,-6.0699,-5.9838,-5.9164,-5.8475,-5.801,-5.7881,-6.3993,-6.4705,-6.4724,-6.5109,-6.582,-6.5763,-6.5763,-6.5801,-6.5013,-6.4705,-6.4839,-6.5493,-6.5686,-6.5493,-6.5493,-6.5532,-6.5493,-6.5628,-6.5667,-6.5859,-6.582,-6.5878,-6.5878,-6.5878,-6.5878,-6.5878,-6.5878,-6.5878,-6.5878,-6.5878,-6.5878,-6.5878,-6.5878,-6.5878,-6.5878,-6.5878,-6.5878,-6.5878,-6.5878,-6.5878,-6.5878,-6.5878,-6.5878,-6.5878,-6.5878,-6.5878,-6.5878,-6.5878,-6.5878,-6.5878,-6.5878,-6.5878,-6.5878,-6.5878,-6.5878,-6.5878,-6.5878,-6.5878,-6.5878,-6.5878,-6.5878,-6.5878,-6.5878,-6.5878,-6.5878,-6.5878,-6.5878,-6.5878,-6.5853,-6.5859,-6.582,-6.578,-6.5693,-6.5513,-6.5095,-6.4575,-6.4078,-6.3568,-6.3044,-6.2855,-6.2823,-6.2823,-6.2823,-6.2823,-6.2823,-6.2823,-6.2823,-6.2823,-6.2823,-6.2823,-6.2879,-6.2879,-6.2823,-6.2823,-6.2823,-6.2823,-6.2823,-6.2823,-6.2952,-6.308,-6.3275,-6.3515,-6.3771,-6.3575,-6.3338,-6.2875,-6.2567,-6.2367,-6.1813,-6.0516,-5.9741,-5.9265,-5.8668,-5.8082,-5.7881,-6.5397,-6.557,-6.559,-6.5724,-6.5878,-6.5878,-6.5878,-6.5878,-6.5705,-6.5551,-6.5647,-6.5782,-6.5878,-6.5878,-6.5878,-6.5878,-6.5878,-6.5878,-6.5878,-6.5878,-6.5878,-6.5878,-6.5878,-6.5878,-6.5878,-6.5878,-6.5878,-6.5878,-6.5878,-6.5878,-6.5878,-6.5878,-6.5878,-6.5878,-6.5878,-6.5878,-6.5878,-6.5878,-6.5878,-6.5878,-6.5878,-6.5878,-6.5878,-6.5878,-6.5878,-6.5878,-6.5878,-6.5878,-6.5878,-6.5878,-6.5878,-6.5878,-6.5878,-6.5878,-6.5878,-6.5878,-6.5878,-6.5878,-6.5878,-6.5878,-6.5878,-6.5878,-6.5878,-6.5878,-6.5878,-6.5878,-6.5878,-6.5878,-6.5897,-6.5885,-6.5891,-6.5839,-6.5767,-6.5528,-6.5276,-6.477,-6.4255,-6.3615,-6.3014,-6.2861,-6.2805,-6.2823,-6.2823,-6.2823,-6.2823,-6.2823,-6.2823,-6.2823,-6.286,-6.2879,-6.3025,-6.3007,-6.2842,-6.2823,-6.2879,-6.3062,-6.3172,-6.3374,-6.3576,-6.3668,-6.3796,-6.4158,-6.453,-6.4311,-6.4025,-6.3599,-6.3237,-6.2983,-6.2184,-6.087,-5.9838,-5.9414,-5.8668,-5.801,-5.7954,-6.5878,-6.5878,-6.5878,-6.5878,-6.5878,-6.5878,-6.5878,-6.5878,-6.5878,-6.5878,-6.5878,-6.5878,-6.5878,-6.5878,-6.5878,-6.5878,-6.5878,-6.5878,-6.5878,-6.5878,-6.5878,-6.5878,-6.5878,-6.5878,-6.5878,-6.5878,-6.5878,-6.5878,-6.5878,-6.5878,-6.5878,-6.5878,-6.5878,-6.5878,-6.5878,-6.5878,-6.5878,-6.5878,-6.5878,-6.5878,-6.5878,-6.5878,-6.5878,-6.5878,-6.5878,-6.5878,-6.5878,-6.5878,-6.5878,-6.5878,-6.5878,-6.5878,-6.5878,-6.5878,-6.5878,-6.5878,-6.5878,-6.5878,-6.5878,-6.5878,-6.5878,-6.5878,-6.5878,-6.5878,-6.5878,-6.5878,-6.5878,-6.5878,-6.5878,-6.5885,-6.5885,-6.5859,-6.582,-6.5679,-6.5479,-6.5144,-6.4313,-6.3479,-6.3044,-6.283,-6.2823,-6.2823,-6.2823,-6.2823,-6.2823,-6.2798,-6.2798,-6.2952,-6.297,-6.3264,-6.3337,-6.3319,-6.3264,-6.3301,-6.3503,-6.3649,-6.3759,-6.3961,-6.4218,-6.4714,-6.5073,-6.5184,-6.525,-6.5129,-6.4879,-6.4486,-6.4142,-6.3653,-6.2853,-6.162,-6.0589,-5.9644,-5.8823,-5.8082,-5.7937,-6.5878,-6.5878,-6.5878,-6.5878,-6.5878,-6.5878,-6.5878,-6.5878,-6.5878,-6.5878,-6.5878,-6.5878,-6.5878,-6.5878,-6.5878,-6.5878,-6.5878,-6.5878,-6.5878,-6.5878,-6.5878,-6.5878,-6.5878,-6.5878,-6.5878,-6.5878,-6.5878,-6.5878,-6.5878,-6.5878,-6.5878,-6.5878,-6.5878,-6.5878,-6.5878,-6.5878,-6.5878,-6.5878,-6.5878,-6.5878,-6.5878,-6.5878,-6.5878,-6.5878,-6.5878,-6.5878,-6.5878,-6.5878,-6.5878,-6.5878,-6.5878,-6.5878,-6.5878,-6.5878,-6.5878,-6.5878,-6.5878,-6.5878,-6.5878,-6.5878,-6.5878,-6.5878,-6.5878,-6.5897,-6.5897,-6.5917,-6.5917,-6.5955,-6.5955,-6.5917,-6.5917,-6.5904,-6.5884,-6.5811,-6.5628,-6.5364,-6.4388,-6.3445,-6.3123,-6.2879,-6.2879,-6.2879,-6.2897,-6.2879,-6.3007,-6.2964,-6.3037,-6.3092,-6.3294,-6.387,-6.42,-6.4108,-6.4016,-6.409,-6.4218,-6.431,-6.442,-6.4714,-6.5063,-6.5778,-6.625,-6.6199,-6.6125,-6.6041,-6.5783,-6.5359,-6.4685,-6.4088,-6.3199,-6.2302,-6.0919,-5.9741,-5.9011,-5.8334,-5.801,-6.5878,-6.5878,-6.5878,-6.5878,-6.5878,-6.5878,-6.5878,-6.5878,-6.5878,-6.5878,-6.5878,-6.5878,-6.5878,-6.5878,-6.5878,-6.5878,-6.5878,-6.5878,-6.5878,-6.5878,-6.5878,-6.5878,-6.5878,-6.5878,-6.5878,-6.5878,-6.5878,-6.5878,-6.5878,-6.5878,-6.5878,-6.5878,-6.5878,-6.5878,-6.5878,-6.5878,-6.5878,-6.5878,-6.5878,-6.5878,-6.5878,-6.5878,-6.5878,-6.5878,-6.5878,-6.5878,-6.5878,-6.5878,-6.5878,-6.5878,-6.5878,-6.5878,-6.5878,-6.5878,-6.5878,-6.5878,-6.5878,-6.5878,-6.5878,-6.5878,-6.5878,-6.5878,-6.5897,-6.5974,-6.5994,-6.6051,-6.6109,-6.6224,-6.6186,-6.6051,-6.6032,-6.6032,-6.6013,-6.5876,-6.5718,-6.5211,-6.4479,-6.3777,-6.3272,-6.3142,-6.311,-6.3154,-6.3172,-6.3392,-6.387,-6.3961,-6.431,-6.4365,-6.4383,-6.4732,-6.5063,-6.4971,-6.4842,-6.4916,-6.5081,-6.5063,-6.5191,-6.5503,-6.587,-6.6449,-6.6864,-6.7021,-6.6955,-6.6652,-6.6482,-6.6163,-6.5446,-6.4613,-6.3668,-6.2654,-6.1016,-5.9791,-5.9113,-5.8458,-5.8065]},{"header":{"parameterUnit":"m.s-1","parameterCategory":1,"la1":31.0,"la2":29.5877,"lo1":-88.7671,"lo2":-86.6584,"dx":0.0162,"dy":0.0185,"nx":115,"ny":88,"refTime":"2023-01-07T18:00:00:Z","depth":0,"parameterNumber":3,"parameterNumberName":"V-component_of_WINDS"},"data":[0.0,0.0,0.0,0.0,0.0,0.0,0.0,0.0,0.0,0.0,0.0,0.0,0.0,0.0,0.0,0.0,0.0,0.0,0.0,0.0,0.0,0.0,0.0,0.0,0.0,0.0,0.0,0.0,0.0,0.0,0.0,0.0,0.0,0.0,0.0,0.0,0.0,0.0,0.0,0.0,0.0,0.0,0.0,0.0,0.0,0.0,0.0,0.0,0.0,0.0,0.0,0.0,0.0,0.0,0.0,0.0,0.0,0.0,0.0,0.0,0.0,0.0,0.0,0.0,0.0,0.0,0.0,0.0,0.0,0.0,0.0,0.0,0.0,0.0,0.0,0.0,0.0,0.0,0.0,0.0,0.0,0.0,0.0,0.0,0.0,0.0,0.0,0.0,0.0,0.0,0.0,0.0,0.0,0.0,0.0,0.0,0.0,0.0,0.0,0.0,0.0,0.0,0.0,0.0,0.0,0.0,0.0,0.0,0.0,0.0,0.0,0.0,0.0,0.0,0.0,0.0,0.0,0.0,0.0,0.0,0.0,0.0,0.0,0.0,0.0,0.0,0.0,0.0,0.0,0.0,0.0,0.0,0.0,0.0,0.0,0.0,0.0,0.0,0.0,0.0,0.0,0.0,0.0,0.0,0.0,0.0,0.0,0.0,0.0,0.0,0.0,0.0,0.0,0.0,0.0,0.0,0.0,0.0,0.0,0.0,0.0,0.0,0.0,0.0,0.0,0.0,0.0,0.0,0.0,0.0,0.0,0.0,0.0,0.0,0.0,0.0,0.0,0.0,0.0,0.0,0.0,0.0,0.0,0.0,0.0,0.0,0.0,0.0,0.0,0.0,0.0,0.0,0.0,0.0,0.0,0.0,0.0,0.0,0.0,0.0,0.0,0.0,0.0,0.0,0.0,0.0,0.0,0.0,0.0,0.0,0.0,0.0,0.0,0.0,0.0,0.0,0.0,0.0,0.0,0.0,0.0,0.0,0.0,0.0,0.0,0.0,0.0,0.0,0.0,0.0,0.0,0.0,0.0,0.0,0.0,0.0,0.0,0.0,0.0,0.0,0.0,0.0,0.0,0.0,0.0,0.0,0.0,0.0,0.0,0.0,0.0,0.0,0.0,0.0,0.0,0.0,0.0,0.0,0.0,0.0,0.0,0.0,0.0,0.0,0.0,0.0,0.0,0.0,0.0,0.0,0.0,0.0,0.0,0.0,0.0,0.0,0.0,0.0,0.0,0.0,0.0,0.0,0.0,0.0,0.0,0.0,0.0,0.0,0.0,0.0,0.0,0.0,0.0,0.0,0.0,0.0,0.0,0.0,0.0,0.0,0.0,0.0,0.0,0.0,0.0,0.0,0.0,0.0,0.0,0.0,0.0,0.0,0.0,0.0,0.0,0.0,0.0,0.0,0.0,0.0,0.0,0.0,0.0,0.0,0.0,0.0,0.0,0.0,0.0,0.0,0.0,0.0,0.0,0.0,0.0,0.0,0.0,0.0,0.0,0.0,0.0,0.0,0.0,0.0,0.0,0.0,0.0,0.0,0.0,0.0,0.0,0.0,0.0,0.0,0.0,0.0,0.0,0.0,0.0,0.0,0.0,0.0,0.0,0.0,0.0,0.0,0.0,0.0,0.0,0.0,0.0,0.0,0.0,0.0,0.0,0.0,0.0,0.0,0.0,0.0,0.0,0.0,0.0,0.0,0.0,0.0,0.0,0.0,0.0,0.0,0.0,0.0,0.0,0.0,0.0,0.0,0.0,0.0,0.0,0.0,0.0,0.0,0.0,0.0,0.0,0.0,0.0,0.0,0.0,0.0,0.0,0.0,0.0,0.0,0.0,0.0,0.0,0.0,0.0,0.0,0.0,0.0,0.0,0.0,0.0,0.0,0.0,0.0,0.0,0.0,0.0,0.0,0.0,0.0,0.0,0.0,0.0,0.0,0.0,0.0,0.0,0.0,0.0,0.0,0.0,0.0,0.0,0.0,0.0,0.0,0.0,0.0,0.0,0.0,0.0,0.0,0.0,0.0,0.0,0.0,0.0,0.0,0.0,0.0,0.0,0.0,0.0,0.0,0.0,0.0,0.0,0.0,0.0,0.0,0.0,0.0,0.0,0.0,0.0,0.0,0.0,0.0,0.0,0.0,0.0,0.0,0.0,0.0,0.0,0.0,0.0,0.0,0.0,0.0,0.0,0.0,0.0,0.0,0.0,0.0,0.0,0.0,0.0,0.0,0.0,0.0,0.0,0.0,0.0,0.0,0.0,0.0,0.0,0.0,0.0,0.0,0.0,0.0,0.0,0.0,0.0,0.0,0.0,0.0,0.0,0.0,0.0,0.0,0.0,0.0,0.0,0.0,0.0,0.0,0.0,0.0,0.0,0.0,0.0,0.0,0.0,0.0,0.0,0.0,0.0,0.0,0.0,0.0,0.0,0.0,0.0,0.0,0.0,0.0,0.0,0.0,0.0,0.0,0.0,0.0,0.0,0.0,0.0,0.0,0.0,0.0,0.0,0.0,0.0,0.0,0.0,0.0,0.0,0.0,0.0,0.0,0.0,0.0,0.0,0.0,0.0,0.0,0.0,0.0,0.0,0.0,0.0,0.0,0.0,0.0,0.0,0.0,0.0,0.0,0.0,0.0,0.0,0.0,0.0,0.0,0.0,0.0,0.0,0.0,0.0,0.0,0.0,0.0,0.0,0.0,0.0,0.0,0.0,0.0,0.0,0.0,0.0,0.0,0.0,0.0,0.0,0.0,0.0,0.0,0.0,0.0,0.0,0.0,0.0,0.0,0.0,0.0,0.0,0.0,0.0,0.0,0.0,0.0,0.0,0.0,0.0,0.0,0.0,0.0,0.0,0.0,0.0,0.0,0.0,0.0,0.0,0.0,0.0,0.0,0.0,0.0,0.0,0.0,0.0,0.0,0.0,0.0,0.0,0.0,0.0,0.0,0.0,0.0,0.0,0.0,0.0,0.0,0.0,0.0,0.0,0.0,0.0,0.0,0.0,0.0,0.0,0.0,0.0,0.0,0.0,0.0,0.0,0.0,0.0,0.0,0.0,0.0,0.0,0.0,0.0,0.0,0.0,0.0,0.0,0.0,0.0,0.0,0.0,0.0,0.0,0.0,0.0,0.0,0.0,0.0,0.0,0.0,0.0,0.0,0.0,0.0,0.0,0.0,0.0,0.0,0.0,0.0,0.0,0.0,0.0,0.0,0.0,0.0,0.0,0.0,0.0,0.0,0.0,0.0,0.0,0.0,0.0,0.0,0.0,0.0,0.0,0.0,0.0,0.0,0.0,0.0,0.0,0.0,0.0,0.0,0.0,0.0,0.0,0.0,0.0,0.0,0.0,0.0,0.0,0.0,0.0,0.0,0.0,0.0,0.0,0.0,0.0,0.0,0.0,0.0,0.0,0.0,0.0,0.0,0.0,0.0,0.0,0.0,0.0,0.0,0.0,0.0,0.0,0.0,0.0,0.0,0.0,0.0,0.0,0.0,0.0,0.0,0.0,0.0,0.0,0.0,0.0,0.0,0.0,0.0,0.0,0.0,0.0,0.0,0.0,0.0,0.0,0.0,0.0,0.0,0.0,0.0,0.0,0.0,0.0,0.0,0.0,0.0,0.0,0.0,0.0,0.0,0.0,0.0,0.0,0.0,0.0,0.0,0.0,0.0,0.0,0.0,0.0,0.0,0.0,0.0,0.0,0.0,0.0,0.0,0.0,0.0,0.0,0.0,0.0,0.0,0.0,0.0,0.0,0.0,0.0,0.0,0.0,0.0,0.0,0.0,0.0,0.0,0.0,0.0,0.0,0.0,0.0,0.0,0.0,0.0,0.0,0.0,0.0,0.0,0.0,0.0,0.0,0.0,0.0,0.0,0.0,0.0,0.0,0.0,0.0,0.0,0.0,0.0,0.0,0.0,0.0,0.0,0.0,0.0,0.0,0.0,0.0,0.0,0.0,0.0,0.0,0.0,0.0,0.0,0.0,0.0,0.0,0.0,0.0,0.0,0.0,0.0,0.0,0.0,0.0,0.0,0.0,0.0,0.0,0.0,0.0,0.0,0.0,0.0,0.0,0.0,0.0,0.0,0.0,0.0,0.0,0.0,0.0,0.0,0.0,0.0,0.0,0.0,0.0,0.0,0.0,0.0,0.0,0.0,0.0,0.0,0.0,0.0,0.0,0.0,0.0,0.0,0.0,0.0,0.0,0.0,0.0,0.0,0.0,0.0,0.0,0.0,0.0,0.0,0.0,0.0,0.8201,0.0,0.0,0.0,0.9233,0.0,0.0,0.0,0.0,0.0,0.0,0.0,0.0,0.0,0.0,0.0,0.0,0.0,0.0,0.0,0.0,0.0,0.0,0.0,0.0,0.0,0.0,0.0,0.0,0.0,0.0,0.0,0.0,0.0,0.0,0.0,0.0,0.0,0.0,0.0,0.0,0.0,0.0,0.0,0.0,0.0,0.0,0.0,0.0,0.0,0.0,0.0,0.0,0.0,0.0,0.0,0.0,0.0,0.0,0.0,0.0,0.0,0.0,0.0,0.0,0.0,0.0,0.0,0.0,0.0,0.0,0.0,0.0,0.0,0.0,0.0,0.0,0.0,0.0,0.0,0.0,0.0,0.0,0.0,0.0,0.0,0.0,0.0,0.0,0.0,0.0,0.0,0.0,0.0,0.0,0.0,0.0,0.0,0.0,0.0,0.0,0.0,0.0,0.0,0.0,0.0,0.0,0.0,0.0,0.0,0.0,0.0,0.0,0.0,0.0,0.8169,0.8215,0.846,0.8652,0.8708,0.0,0.0,0.0,0.0,0.0,0.0,0.0,0.0,0.0,0.0,0.0,0.0,0.0,0.0,0.0,0.0,0.0,0.0,0.0,0.0,0.0,0.0,0.0,0.0,0.0,0.0,0.0,0.0,0.0,0.0,0.0,0.0,0.0,0.0,0.0,0.0,0.0,0.0,0.0,0.0,0.0,0.0,0.0,0.0,0.0,0.0,0.0,0.0,0.0,0.0,0.0,0.0,0.0,0.0,0.0,0.0,0.0,0.0,0.0,0.0,0.0,0.0,0.0,0.0,0.0,0.0,0.0,0.0,0.0,0.0,0.0,0.0,0.0,0.0,0.0,0.0,0.0,0.0,0.0,0.0,0.0,0.0,0.0,0.0,0.0,0.0,0.0,0.0,0.0,0.0,0.0,0.0,0.0,0.0,0.0,0.0,0.0,0.0,0.0,0.0,0.0,0.0,0.0,0.0,0.0,0.0,0.0,0.0,0.0,0.0,0.0,0.0,0.8404,0.8432,0.8326,0.0,0.0,0.0,0.0,0.0,0.0,0.0,0.0,0.0,0.0,0.0,0.0,0.0,0.0,0.0,0.0,0.0,0.0,0.0,0.0,0.0,0.0,0.0,0.0,0.0,0.0,0.0,0.0,0.0,0.0,0.0,0.0,0.0,0.0,0.0,0.0,0.0,0.0,0.0,0.0,0.0,0.0,0.0,0.0,0.0,0.0,0.0,0.0,0.0,0.0,0.0,0.0,0.0,0.0,0.0,0.0,0.0,0.0,0.0,0.0,0.0,0.0,0.0,0.0,0.0,0.0,0.0,0.0,0.0,0.0,0.0,0.0,0.0,0.0,0.0,0.0,0.0,0.0,0.0,0.0,0.0,0.0,0.0,0.0,0.0,0.0,0.0,0.0,0.0,0.0,0.0,0.0,0.0,0.0,0.0,0.0,0.0,0.0,0.0,0.0,0.0,0.0,0.0,0.0,0.0,0.0,0.0,0.0,0.0,0.0,0.8125,0.8201,0.823,0.0,0.8594,0.0,0.0,0.0,0.0,0.0,0.0,0.0,0.0,0.0,0.0,0.0,0.0,0.0,0.0,0.0,0.0,0.0,0.0,0.0,0.0,0.0,0.0,0.0,0.0,0.0,0.0,0.0,0.0,0.0,0.0,0.0,0.0,0.0,0.0,0.0,0.0,0.0,0.0,0.0,0.0,0.0,0.0,0.0,0.0,0.0,0.0,0.0,0.0,0.0,0.0,0.0,0.0,0.0,0.0,0.0,0.0,0.0,0.0,0.0,0.0,0.0,0.0,0.0,0.0,0.0,0.0,0.0,0.0,0.0,0.0,0.0,0.0,0.0,0.0,0.0,0.0,0.0,0.0,0.0,0.0,0.0,0.0,0.0,0.0,0.0,0.0,0.0,0.0,0.0,0.0,0.0,0.0,0.0,0.0,0.0,0.0,0.0,0.0,0.0,0.0,0.0,0.0,0.0,0.0,0.0,0.0,0.0,0.0,0.0,0.0,0.8058,0.8201,0.8201,0.8329,0.0,0.0,0.0,0.0,0.0,0.0,0.0,0.0,0.0,0.0,0.0,0.0,0.0,0.0,0.0,0.0,0.0,0.0,0.0,0.0,0.0,0.0,0.0,0.0,0.0,0.0,0.0,0.0,0.0,0.0,0.0,0.0,0.0,0.0,0.0,0.0,0.0,0.0,0.0,0.0,0.0,0.0,0.0,0.0,0.0,0.0,0.0,0.0,0.0,0.0,0.0,0.0,0.0,0.0,0.0,0.0,0.0,0.0,0.0,0.0,0.0,0.0,0.0,0.0,0.0,0.0,0.0,0.0,0.0,0.0,0.0,0.0,0.0,0.0,0.0,0.0,0.0,0.0,0.0,0.0,0.0,0.0,0.0,0.0,0.0,0.0,0.0,0.0,0.0,0.0,0.0,0.0,0.0,0.0,0.0,0.0,0.0,0.0,0.0,0.0,0.0,0.0,0.0,0.0,0.0,0.0,0.0,0.0,0.0,0.0,0.8093,0.8252,0.8534,0.8649,0.8744,0.8807,0.0,0.0,0.0,0.0,0.0,0.0,0.0,0.0,0.0,0.0,0.0,0.0,0.0,0.0,0.0,0.0,0.0,0.0,0.0,0.0,0.0,0.0,0.0,0.0,0.0,0.0,0.0,0.0,0.0,0.0,0.0,0.0,0.0,0.0,0.0,0.0,0.0,0.0,0.0,0.0,0.0,0.0,0.0,0.0,0.0,0.0,0.0,0.0,0.0,0.0,0.0,0.0,0.0,0.0,0.0,0.0,0.0,0.0,0.0,0.0,0.0,0.0,0.0,0.0,0.0,0.0,0.0,0.0,0.0,0.0,0.0,0.0,0.0,0.0,0.0,0.0,0.0,0.0,0.0,0.0,0.0,0.0,0.0,0.0,0.0,0.0,0.0,0.0,0.0,0.0,0.0,0.0,0.0,0.0,0.0,0.0,0.0,0.0,0.0,0.0,0.0,0.0,0.0,0.0,0.0,0.0,0.0,0.0,0.8525,0.856,0.8861,0.94,0.9738,0.9712,0.0,0.0,0.0,0.0,0.0,0.0,0.0,0.0,0.0,0.0,0.0,0.0,0.0,0.0,0.0,0.0,0.0,0.0,0.0,0.0,0.0,0.0,0.0,0.0,0.0,0.0,0.0,0.0,0.0,0.0,0.0,0.0,0.0,0.0,0.0,0.0,0.0,0.0,0.0,0.0,0.0,0.0,0.0,0.0,0.0,0.0,0.0,0.0,0.0,0.0,0.0,0.0,0.0,0.0,0.0,0.0,0.0,0.0,0.0,0.0,0.0,0.0,0.0,0.0,0.0,0.0,0.0,0.0,0.0,0.0,0.0,0.0,0.0,0.0,0.0,0.0,0.0,0.0,0.0,0.0,0.0,0.0,0.0,0.0,0.0,0.0,0.0,0.0,0.0,0.0,0.0,0.0,0.0,0.0,0.0,0.0,0.0,0.0,0.0,0.0,0.0,0.0,0.0,0.0,0.0,0.0,0.0,0.0,0.0,0.8581,0.8979,0.9262,0.9443,0.9603,0.9602,0.0,0.0,0.0,0.0,0.0,0.0,0.0,0.0,0.0,0.0,0.0,0.0,0.0,0.0,0.0,0.0,0.0,0.0,0.0,0.0,0.0,0.0,0.0,0.0,0.0,0.0,0.0,0.0,0.0,0.0,0.0,0.0,0.0,0.0,0.0,0.0,0.0,0.0,0.0,0.0,0.0,0.0,0.0,0.0,0.0,0.0,0.0,0.0,0.0,0.0,0.0,0.0,0.0,0.0,0.0,0.0,0.0,0.0,0.0,0.0,0.0,0.0,0.0,0.0,0.0,0.0,0.0,0.0,0.0,0.0,0.0,0.0,0.0,0.0,0.0,0.0,0.0,0.0,0.0,0.0,0.0,0.0,0.0,0.0,0.0,0.0,0.0,0.0,0.0,0.0,0.0,0.0,0.0,0.0,0.0,0.0,0.0,0.0,0.0,0.0,0.0,0.0,0.0,0.0,0.0,0.0,0.0,0.0,0.0,0.9231,0.9862,1.0152,1.0098,1.0106,0.999,0.0,0.0,0.0,0.0,0.0,0.0,0.0,0.0,0.0,0.0,0.0,0.0,0.0,0.0,0.0,0.0,0.0,0.0,0.0,0.0,0.0,0.0,0.0,0.0,0.0,0.0,0.0,0.0,0.0,0.0,0.0,0.0,0.0,0.0,0.0,0.0,0.0,0.0,0.0,0.0,0.0,0.0,0.0,0.0,0.0,0.0,0.0,0.0,0.0,0.0,0.0,0.0,0.0,0.0,0.0,0.0,0.0,0.0,0.0,0.0,0.0,0.0,0.0,0.0,0.0,0.0,0.0,0.0,0.0,0.0,0.0,0.0,0.0,0.0,0.0,0.0,0.0,0.0,0.0,0.0,0.0,0.0,0.0,0.0,0.0,0.0,0.0,0.0,0.0,0.0,0.0,0.0,0.0,0.0,0.0,0.0,0.0,0.0,0.0,0.0,0.0,0.0,0.0,0.0,0.0,0.0,0.0,0.0,0.914,1.0531,1.1243,1.156,1.1601,1.1449,1.1029,0.0,0.0,0.0,0.0,0.0,0.0,0.0,0.0,0.0,0.0,0.0,0.0,0.0,0.0,0.0,0.0,0.0,0.0,0.0,0.0,0.0,0.0,0.0,0.0,0.0,0.0,0.0,0.0,0.0,0.0,0.0,0.0,0.0,0.0,0.0,0.0,0.0,0.0,0.0,0.0,0.0,0.0,0.0,0.0,0.0,0.0,0.0,0.0,0.0,0.0,0.0,0.0,0.0,0.0,0.0,0.0,0.0,0.0,0.0,0.0,0.0,0.0,0.0,0.0,0.0,0.0,0.0,0.0,0.0,0.0,0.0,0.0,0.0,0.0,0.0,0.0,0.0,0.0,0.0,0.0,0.0,0.0,0.0,0.0,0.0,0.0,0.0,0.0,0.0,0.0,0.0,0.0,0.0,0.0,0.0,0.0,0.0,0.0,0.0,0.0,0.0,0.0,0.0,0.0,0.0,0.0,0.0,0.0,0.0,1.0535,1.1856,1.2537,1.2433,1.2163,1.1921,0.0,0.0,0.0,0.0,0.0,0.0,0.0,0.0,0.0,0.0,0.0,0.0,0.0,0.0,0.0,0.0,0.0,0.0,0.0,0.0,0.0,0.0,0.0,0.0,0.0,0.0,0.0,0.0,0.0,0.0,0.0,0.0,0.0,0.0,0.0,0.0,0.0,0.0,0.0,0.0,0.0,0.0,0.0,0.0,0.0,0.0,0.0,0.0,0.0,0.0,0.0,0.0,0.0,0.0,0.0,0.0,0.0,0.0,0.0,0.0,0.0,0.0,0.0,0.0,0.0,0.0,0.0,0.0,0.0,0.0,0.0,0.0,0.0,0.0,0.0,0.0,0.0,0.0,0.0,0.0,0.0,0.0,0.0,0.0,0.0,0.0,0.0,0.0,0.0,0.0,0.0,0.0,0.0,0.0,0.0,0.0,0.0,0.0,0.0,0.0,0.0,0.0,0.0,0.0,0.0,0.0,0.0,0.0,0.0,1.1503,1.2624,1.3171,1.3095,1.2861,1.2518,1.2041,0.0,0.0,0.0,0.0,0.0,0.0,0.0,0.0,0.0,0.0,0.0,0.0,0.0,0.0,0.0,0.0,0.0,0.0,0.0,0.0,0.0,0.0,0.0,0.0,0.0,0.0,0.0,0.0,0.0,0.0,0.0,0.0,0.0,0.0,0.0,0.0,0.0,0.0,0.0,0.0,0.0,0.0,0.0,0.0,0.0,0.0,0.0,0.0,0.0,0.0,0.0,0.0,0.0,0.0,0.0,0.0,0.0,0.0,0.0,0.0,0.0,0.0,0.0,0.0,0.0,0.0,0.0,0.0,0.0,0.0,0.0,0.0,0.0,0.0,0.0,0.0,0.0,0.0,0.0,0.0,0.0,0.0,0.0,0.0,0.0,0.0,0.0,0.0,0.0,0.0,0.0,0.0,0.0,0.0,0.0,0.0,0.0,0.0,0.0,0.0,0.0,0.0,0.0,0.0,0.0,0.0,0.0,0.0,1.3169,1.3508,1.3693,1.3665,1.3566,1.2967,0.0,0.0,0.0,0.0,0.0,0.0,0.0,0.0,0.0,0.0,0.0,0.0,0.0,0.0,0.0,0.0,0.0,0.0,0.0,0.0,0.0,0.0,0.0,0.0,0.0,0.0,0.0,0.0,0.0,0.0,0.0,0.0,0.0,0.0,0.0,0.0,0.0,0.0,0.0,0.0,0.0,0.0,0.0,0.0,0.0,0.0,0.0,0.0,0.0,0.0,0.0,0.0,0.0,0.0,0.0,0.0,0.0,0.0,0.0,0.0,0.0,0.0,0.0,0.0,0.0,0.0,0.0,0.0,0.0,0.0,0.0,0.0,0.0,0.0,0.0,0.0,0.0,0.0,0.0,0.0,0.0,0.0,0.0,0.0,0.0,0.0,0.0,0.0,0.0,0.0,0.0,0.0,0.0,0.0,0.0,0.0,0.0,0.0,0.0,0.0,0.0,0.0,0.0,0.0,0.0,0.0,0.0,0.0,0.0,1.4194,1.4684,1.48,1.4485,1.3945,1.3486,0.0,0.0,0.0,0.0,0.0,0.0,0.0,0.0,0.0,0.0,0.0,0.0,0.0,0.0,0.0,0.0,0.0,0.0,0.0,0.0,0.0,0.0,0.0,0.0,0.0,0.0,0.0,0.0,0.0,0.0,0.0,0.0,0.0,0.0,0.0,0.0,0.0,0.0,0.0,0.0,0.0,0.0,0.0,0.0,0.0,0.0,0.0,0.0,0.0,0.0,0.0,0.0,0.0,0.0,0.0,0.0,0.0,0.0,0.0,0.0,0.0,0.0,0.0,0.0,0.0,0.0,0.0,0.0,0.0,0.0,0.0,0.0,0.0,0.0,0.0,0.0,0.0,0.0,0.0,0.0,0.0,0.0,0.0,0.0,0.0,0.0,0.0,0.0,0.0,0.0,0.0,0.0,0.0,0.0,0.0,0.0,0.0,0.0,0.0,0.0,0.0,0.0,0.0,0.0,0.0,0.0,0.0,0.0,1.3734,1.4656,1.4925,1.511,1.5258,1.4595,1.3973,0.0,0.0,0.0,0.0,0.0,0.0,0.0,0.0,0.0,0.0,0.0,0.0,0.0,0.0,0.0,0.0,0.0,0.0,0.0,0.0,0.0,0.0,0.0,0.0,0.0,0.0,0.0,0.0,0.0,0.0,0.0,0.0,0.0,0.0,0.0,0.0,0.0,0.0,0.0,0.0,0.0,0.0,0.0,0.0,0.0,0.0,0.0,0.0,0.0,0.0,0.0,0.0,0.0,0.0,0.0,0.0,0.0,0.0,0.0,0.0,0.0,0.0,0.0,0.0,0.0,0.0,0.0,0.0,0.0,0.0,0.0,0.0,0.0,0.0,0.0,0.0,0.0,0.0,0.0,0.0,0.0,0.0,0.0,0.0,0.0,0.0,0.0,0.0,0.0,0.0,0.0,0.0,0.0,0.0,0.0,0.0,0.0,0.0,0.0,0.0,0.0,0.0,0.0,0.0,0.0,0.0,0.0,0.0,1.3984,1.489,1.4812,1.5129,1.5872,1.527,1.433,0.0,0.0,0.0,0.0,0.0,0.0,0.0,0.0,0.0,0.0,0.0,0.0,0.0,0.0,0.0,0.0,0.0,0.0,0.0,0.0,0.0,0.0,0.0,0.0,0.0,0.0,0.0,0.0,0.0,0.0,0.0,0.0,0.0,0.0,0.0,0.0,0.0,0.0,0.0,0.0,0.0,0.0,0.0,0.0,0.0,0.0,0.0,0.0,0.0,0.0,0.0,0.0,0.0,0.0,0.0,0.0,0.0,0.0,0.0,0.0,0.0,0.0,0.0,0.0,0.0,0.0,0.0,0.0,0.0,0.0,0.0,0.0,0.0,0.0,0.0,0.0,0.0,0.0,0.0,0.0,0.0,0.0,0.0,0.0,0.0,0.0,0.0,0.0,0.0,0.0,0.0,0.0,0.0,0.0,0.0,0.0,0.0,0.0,0.0,0.0,0.0,0.0,0.0,0.0,0.0,0.0,0.0,0.0,1.4478,1.5475,1.5791,1.5957,1.6038,1.5016,1.4264,0.0,0.0,0.0,0.0,0.0,0.0,0.0,0.0,0.0,0.0,0.0,0.0,0.0,0.0,0.0,0.0,0.0,0.0,0.0,0.0,0.0,0.0,0.0,0.0,0.0,0.0,0.0,0.0,0.0,0.0,0.0,0.0,0.0,0.0,0.0,0.0,0.0,0.0,0.0,0.0,0.0,0.0,0.0,0.0,0.0,0.0,0.0,0.0,1.547,0.0,0.0,0.0,0.0,0.0,0.0,0.0,0.0,0.0,0.0,0.0,0.0,0.0,0.0,0.0,0.0,0.0,0.0,0.0,0.0,0.0,0.0,0.0,0.0,0.0,0.0,0.0,0.0,0.0,0.0,0.0,0.0,0.0,0.0,0.0,0.0,0.0,0.0,0.0,0.0,0.0,0.0,0.0,0.0,0.0,0.0,0.0,0.0,0.0,0.0,0.0,0.0,0.0,0.0,0.0,0.0,0.0,0.0,0.0,1.4999,1.6136,1.6484,1.6606,1.6487,1.5581,1.4756,0.0,0.0,0.0,0.0,0.0,0.0,0.0,0.0,0.0,0.0,0.0,0.0,0.0,0.0,0.0,0.0,0.0,0.0,0.0,0.0,0.0,0.0,0.0,0.0,0.0,0.0,0.0,0.0,0.0,0.0,0.0,0.0,0.0,0.0,0.0,0.0,0.0,0.0,0.0,0.0,0.0,0.0,0.0,0.0,0.0,0.0,0.0,0.0,0.0,0.0,0.0,0.0,0.0,0.0,0.0,0.0,0.0,0.0,0.0,0.0,0.0,0.0,0.0,0.0,0.0,0.0,0.0,0.0,0.0,0.0,0.0,0.0,0.0,0.0,0.0,0.0,0.0,0.0,0.0,0.0,0.0,0.0,0.0,0.0,0.0,0.0,0.0,0.0,0.0,0.0,0.0,0.0,0.0,0.0,0.0,0.0,0.0,0.0,0.0,0.0,0.0,0.0,0.0,0.0,0.0,0.0,0.0,1.4223,1.5488,1.6814,1.7014,1.708,1.7092,1.6357,1.5391,1.4195,0.0,0.0,0.0,0.0,0.0,0.0,0.0,0.0,0.0,0.0,0.0,0.0,0.0,0.0,0.0,0.0,0.0,0.0,0.0,0.0,0.0,0.0,0.0,0.0,0.0,0.0,0.0,0.0,0.0,0.0,0.0,0.0,0.0,0.0,0.0,0.0,0.0,0.0,1.2005,1.333,0.0,0.0,0.0,0.0,0.0,0.0,0.0,0.0,1.528,0.0,0.0,0.0,0.0,0.0,0.0,0.0,0.0,0.0,0.0,0.0,0.0,0.0,0.0,0.0,0.0,0.0,0.0,0.0,0.0,0.0,0.0,0.0,0.0,0.0,0.0,0.0,0.0,0.0,0.0,0.0,0.0,0.0,0.0,0.0,0.0,0.0,0.0,0.0,0.0,0.0,0.0,0.0,0.0,0.0,0.0,0.0,0.0,0.0,0.0,0.0,0.0,0.0,0.0,0.0,0.0,1.3774,1.4456,1.5762,1.7734,1.7484,1.7396,1.7476,1.6663,1.5661,1.4384,0.0,0.0,0.0,0.0,0.0,0.0,0.0,0.0,0.0,0.0,0.0,0.0,0.0,0.0,0.0,0.0,0.0,0.0,0.0,0.0,0.0,0.0,0.0,0.0,0.0,0.0,0.0,0.0,0.0,0.0,0.0,0.0,0.0,0.0,0.0,0.0,0.0,0.0,0.0,1.4614,1.5142,0.0,0.0,0.0,0.0,0.0,0.0,0.0,0.0,1.5789,0.0,0.0,0.0,0.0,0.0,0.0,0.0,0.0,0.0,0.0,0.0,0.0,0.0,0.0,0.0,0.0,0.0,0.0,0.0,0.0,0.0,0.0,0.0,0.0,0.0,0.0,0.0,0.0,0.0,0.0,0.0,0.0,0.0,0.0,0.0,0.0,0.0,0.0,0.0,0.0,0.0,0.0,0.0,0.0,0.0,0.0,0.0,0.0,0.0,0.0,0.0,0.0,0.0,0.0,0.0,1.4182,1.484,1.6152,1.8198,1.793,1.7631,1.7494,1.6648,1.5585,0.0,0.0,0.0,0.0,0.0,0.0,0.0,0.0,0.0,0.0,0.0,0.0,0.0,0.0,0.0,0.0,0.0,0.0,0.0,0.0,0.0,0.0,0.0,0.0,0.0,0.0,0.0,0.0,0.0,0.0,0.0,0.0,0.0,0.0,0.0,0.0,0.0,0.0,0.0,0.0,1.5246,1.6132,1.7237,0.0,0.0,0.0,0.0,0.0,0.0,1.6892,1.6271,0.0,0.0,0.0,0.0,0.0,0.0,0.0,0.0,0.0,0.0,0.0,0.0,0.0,0.0,0.0,0.0,0.0,0.0,0.0,0.0,0.0,0.0,0.0,0.0,0.0,0.0,0.0,0.0,0.0,0.0,0.0,0.0,0.0,0.0,0.0,0.0,0.0,0.0,0.0,0.0,0.0,0.0,0.0,0.0,0.0,0.0,0.0,0.0,0.0,0.0,0.0,0.0,0.0,0.0,0.0,1.4321,1.5165,1.6582,1.8598,1.8315,1.7978,1.7627,1.6652,1.5527,0.0,0.0,0.0,0.0,0.0,0.0,0.0,0.0,0.0,0.0,0.0,0.0,0.0,0.0,0.0,0.0,0.0,0.0,0.0,0.0,0.0,0.0,0.0,0.0,0.0,0.0,0.0,0.0,0.0,0.0,0.0,0.0,0.0,0.0,0.0,0.0,0.0,0.0,0.0,0.0,0.0,1.7067,1.8074,1.8383,0.0,0.0,0.0,0.0,1.8706,1.7852,0.0,0.0,0.0,0.0,0.0,0.0,0.0,0.0,0.0,0.0,0.0,0.0,0.0,0.0,0.0,0.0,0.0,0.0,0.0,0.0,0.0,0.0,0.0,0.0,0.0,0.0,0.0,0.0,0.0,0.0,0.0,0.0,0.0,0.0,0.0,0.0,0.0,0.0,0.0,0.0,0.0,0.0,0.0,0.0,0.0,0.0,0.0,0.0,0.0,0.0,0.0,0.0,0.0,0.0,0.0,0.0,1.3686,1.5242,1.7073,1.9072,1.8789,1.85,1.8432,1.6914,1.5674,0.0,0.0,0.0,0.0,0.0,0.0,0.0,0.0,0.0,0.0,0.0,0.0,0.0,0.0,0.0,0.0,0.0,0.0,0.0,0.0,0.0,0.0,0.0,0.0,0.0,0.0,0.0,0.0,0.0,0.0,0.0,0.0,0.0,0.0,0.0,0.0,0.0,0.0,0.0,0.0,0.0,1.7606,1.8226,1.9069,1.9635,0.0,0.0,2.0415,2.0402,1.9836,0.0,0.0,0.0,0.0,0.0,0.0,0.0,0.0,0.0,0.0,0.0,0.0,0.0,0.0,0.0,0.0,0.0,0.0,0.0,0.0,0.0,0.0,0.0,0.0,0.0,0.0,0.0,0.0,0.0,0.0,0.0,0.0,0.0,0.0,0.0,0.0,0.0,0.0,0.0,0.0,0.0,0.0,0.0,0.0,0.0,0.0,0.0,0.0,0.0,0.0,0.0,0.0,0.0,0.0,0.0,1.1627,1.3243,1.5136,1.6982,1.8792,1.8705,1.8598,1.8588,1.7174,1.5918,0.0,0.0,0.0,0.0,0.0,0.0,0.0,0.0,0.0,0.0,0.0,0.0,0.0,0.0,0.0,0.0,0.0,0.0,0.0,0.0,0.0,0.0,0.0,0.0,0.0,0.0,0.0,0.0,0.0,0.0,0.0,0.0,0.0,0.0,0.0,0.0,0.0,0.0,0.0,0.0,0.0,0.0,1.9001,1.9757,0.0,0.0,0.0,2.138,2.0792,0.0,0.0,0.0,0.0,0.0,0.0,0.0,0.0,0.0,0.0,0.0,0.0,0.0,0.0,0.0,0.0,0.0,0.0,0.0,0.0,0.0,0.0,0.0,0.0,0.0,0.0,0.0,0.0,0.0,0.0,0.0,0.0,0.0,0.0,0.0,0.0,0.0,0.0,0.0,0.0,0.0,0.0,0.0,0.0,0.0,0.0,0.0,0.0,0.0,0.0,0.0,0.0,0.0,0.0,0.0,0.0,0.0,1.3244,1.5263,1.7209,1.9017,1.8968,1.8919,1.89,1.7691,0.0,0.0,0.0,0.0,0.0,0.0,0.0,0.0,0.0,0.0,0.0,0.0,0.0,0.0,0.0,0.0,0.0,0.0,0.0,0.0,0.0,0.0,0.0,0.0,0.0,0.0,0.0,0.7063,0.0,0.0,0.0,0.0,0.0,0.0,0.0,0.0,0.0,0.0,0.0,0.0,0.0,0.0,1.8093,1.9526,2.0617,2.1687,0.0,0.0,2.2849,2.2062,2.2175,2.1707,0.0,0.0,0.0,0.0,0.0,0.0,0.0,0.0,0.0,0.0,0.0,0.0,0.0,0.0,0.0,0.0,0.0,0.0,0.0,0.0,0.0,0.0,0.0,0.0,0.0,0.0,0.0,0.0,0.0,0.0,0.0,0.0,0.0,0.0,0.0,0.0,0.0,0.0,0.0,0.0,0.0,0.0,0.0,0.0,0.0,0.0,0.0,0.0,0.0,0.0,0.0,0.0,0.0,0.0,1.2088,1.3925,1.5864,1.7979,2.0342,2.0039,1.9824,1.9767,1.8594,1.7305,0.0,0.0,0.0,0.0,0.0,0.0,0.0,0.0,0.0,0.0,0.0,0.0,0.0,0.0,0.0,0.0,0.0,0.0,0.0,0.0,0.0,0.0,0.0,0.0,0.0,0.0,0.0,0.0,0.0,0.0,0.0,0.0,0.0,0.0,0.0,0.0,0.0,0.0,0.0,0.0,0.0,1.8679,1.9324,2.1716,2.3745,0.0,2.5182,2.536,2.5272,2.485,2.3841,2.1681,0.0,0.0,0.0,0.0,0.0,0.0,0.0,0.0,0.0,0.0,0.0,0.0,0.0,0.0,0.0,0.0,0.0,0.0,0.0,0.0,0.0,0.0,0.0,0.0,0.0,0.0,0.0,0.0,0.0,0.0,0.0,0.0,0.0,0.0,0.0,0.0,0.0,0.0,0.0,0.0,0.0,0.0,0.0,0.0,0.0,0.0,0.0,0.0,0.0,0.0,0.0,0.0,0.0,1.1622,1.2827,1.4875,1.7017,1.9238,1.9192,1.9468,2.0303,1.9336,1.8066,0.0,0.0,0.0,0.0,0.0,0.0,0.0,0.0,0.0,0.0,0.0,0.0,0.0,0.0,0.0,0.0,0.0,0.0,0.0,0.0,0.0,0.0,0.0,0.0,0.0,0.0,0.0,0.0,0.9576,0.9671,0.9581,0.0,0.0,0.0,0.0,0.0,0.0,0.0,0.0,0.0,0.0,1.8892,2.0096,2.1909,0.0,0.0,2.4718,2.4909,2.4543,2.4377,2.3595,2.1535,2.0724,0.0,0.0,0.0,0.0,0.0,0.0,0.0,0.0,0.0,0.0,0.0,0.0,0.0,0.0,0.0,0.0,0.0,0.0,0.0,0.0,0.0,0.0,0.0,0.0,0.0,0.0,0.0,0.0,0.0,0.0,0.0,0.0,0.0,0.0,0.0,0.0,0.0,0.0,0.0,0.0,0.0,0.0,0.0,0.0,0.0,0.0,0.0,0.0,0.0,0.0,0.0,0.0,1.145,1.2647,1.4436,1.6635,1.9167,1.9055,1.9584,2.0703,2.0049,1.8926,0.0,0.0,0.0,0.0,0.0,0.0,0.0,0.0,0.0,0.0,0.0,0.0,0.0,0.0,0.0,0.0,0.0,0.0,0.0,0.0,0.0,0.0,0.0,0.0,0.0,0.0,0.0,0.0,1.0319,1.0408,1.0118,0.0,0.0,0.0,0.0,0.0,0.0,0.0,0.0,0.0,0.0,1.9452,2.0892,2.2232,2.3302,2.4088,2.4617,2.4819,2.4431,2.4362,2.3849,2.2373,0.0,0.0,0.0,0.0,0.0,0.0,0.0,0.0,0.0,0.0,0.0,0.0,0.0,0.0,0.0,0.0,0.0,0.0,0.0,0.0,0.0,0.0,0.0,0.0,0.0,0.0,0.0,0.0,0.0,0.0,0.6939,0.0,0.0,0.0,0.0,0.0,0.0,0.0,0.0,0.0,0.0,0.0,0.0,0.0,0.0,0.0,0.0,0.0,0.0,0.0,0.0,0.0,0.0,1.1857,1.3807,1.4878,1.7103,2.0458,2.013,2.0245,2.11,2.0771,1.9922,1.8568,0.0,0.0,0.0,0.0,0.0,0.0,0.0,0.0,0.0,0.0,0.0,0.0,0.0,0.0,0.0,0.0,0.0,0.0,0.0,0.0,0.0,0.0,0.0,0.0,0.0,0.0,0.9563,1.0279,1.077,0.0,0.0,0.0,0.0,0.0,0.0,0.0,0.0,0.0,0.0,1.883,2.0536,2.1648,2.2801,2.3919,2.4902,2.5327,2.5556,2.5494,2.5352,2.5169,0.0,0.0,0.0,0.0,0.0,0.0,0.0,0.0,0.0,0.0,0.0,0.0,0.0,0.0,0.0,0.0,0.0,0.0,0.0,0.0,0.0,0.0,0.0,0.0,0.0,0.0,0.0,0.778,0.7899,0.0,0.0,0.0,0.0,0.0,0.0,0.0,0.0,0.0,0.0,0.0,1.0483,1.0963,0.0,0.0,0.0,0.0,0.0,0.0,0.0,0.0,0.0,0.0,0.0,0.0,1.1668,1.3091,1.4171,1.6046,1.8725,1.8584,1.8965,2.0072,2.0085,1.959,1.8611,0.0,0.0,0.0,0.0,0.0,0.0,0.0,0.0,0.0,0.0,0.0,0.0,0.0,0.0,0.0,0.0,0.0,0.0,0.0,0.0,0.0,0.0,0.0,0.0,0.0,1.0261,0.0,0.0,0.0,0.0,0.0,0.0,0.0,0.0,0.0,0.0,0.0,1.7038,1.8542,1.9982,2.1208,2.2141,2.3091,2.3973,0.0,0.0,0.0,0.0,0.0,0.0,0.0,0.0,0.0,0.0,0.0,0.0,0.0,0.0,2.1715,2.0211,2.0294,2.0586,2.0639,0.0,0.0,0.0,0.0,0.0,0.0,0.0,0.0,0.0,0.0,0.0,0.0,0.0,0.0,0.8881,0.0,0.8717,0.0,0.0,0.0,0.0,0.0,0.0,0.0,0.0,1.1289,1.1715,1.1834,1.2094,1.2236,0.0,1.1795,1.1065,0.0,0.0,0.0,0.0,0.0,0.0,0.0,0.0,1.1955,1.3002,1.3993,1.5576,1.7697,1.7704,1.821,1.9262,1.934,1.9066,1.8332,1.6907,1.564,0.0,0.0,0.0,0.0,0.0,0.0,0.0,0.0,0.0,0.0,0.0,0.0,0.0,0.0,0.0,0.0,0.0,0.0,0.0,0.0,0.0,0.0,0.0,1.1183,0.0,0.0,0.0,0.0,0.0,0.0,0.0,0.0,0.0,1.5336,1.6743,1.8399,1.9932,2.1144,2.2037,2.2603,0.0,0.0,0.0,0.0,0.0,0.0,0.0,2.3267,2.3279,2.3412,2.357,2.3827,2.4215,2.434,2.381,0.0,0.0,2.2703,2.2762,2.3119,2.3321,2.3539,2.3885,2.4453,2.5063,2.5751,0.0,0.0,0.0,0.0,0.0,0.0,0.0,0.0,0.9771,0.9945,0.0,1.0436,0.0,0.0,0.0,0.0,0.0,1.0889,0.0,0.0,1.2871,1.3333,1.3426,1.3486,1.3635,1.3892,1.3094,1.2515,1.2138,1.1195,0.0,0.0,0.0,0.0,0.0,0.0,1.2779,1.3626,1.4462,1.5805,1.7561,1.7599,1.795,1.8722,1.8613,1.8313,1.7814,1.7088,1.6229,1.5343,1.2909,0.0,0.0,0.0,0.0,0.0,0.0,0.0,0.0,0.0,0.0,0.0,0.0,0.0,0.0,0.0,0.0,0.0,0.0,0.0,0.0,1.0731,0.0,0.0,0.0,0.0,0.0,0.0,0.0,0.0,0.0,0.0,1.6401,1.8097,1.9805,2.1064,0.0,0.0,0.0,0.0,2.3643,2.3218,2.314,2.3149,2.3179,2.3388,2.3924,2.5132,0.0,0.0,2.5802,2.5891,2.5619,2.4534,2.5309,2.5981,2.5733,2.5627,2.5854,2.6436,2.664,2.6962,2.75,2.7844,2.8333,1.2504,0.0,0.0,0.0,0.0,1.0005,1.0522,1.1022,1.1414,1.1616,1.1628,1.1127,0.0,0.0,0.0,0.0,0.0,0.0,1.2516,1.3541,1.3935,1.4369,1.4814,1.5028,1.5169,1.5216,1.4609,1.4247,1.4132,1.344,1.2184,1.0506,0.0,0.0,0.0,0.0,1.3487,1.4559,1.5008,1.5752,1.6951,1.6939,1.72,1.7815,1.7751,1.7846,1.8084,1.7738,1.7032,1.5951,1.4488,0.0,0.0,0.0,0.0,0.0,0.0,0.0,0.0,0.0,0.0,0.0,0.0,0.0,0.0,0.0,0.0,0.0,0.0,0.0,1.096,1.1943,1.2514,0.0,0.0,0.0,0.0,0.0,0.0,0.0,0.0,0.0,1.8913,1.9631,2.0684,0.0,0.0,2.2803,2.3052,2.3506,2.3857,2.4023,2.4053,0.0,2.4463,2.4304,2.4319,2.4892,2.5218,2.5437,2.5547,2.586,2.6195,2.6292,2.6889,2.7519,2.8103,2.7845,2.7872,2.86,2.8962,2.9251,2.9809,3.0139,3.0637,1.4929,1.3294,1.2289,1.1713,1.1513,1.2018,1.2472,1.2919,1.324,1.3227,1.3006,1.2596,1.2094,1.1584,1.1242,0.0,0.0,0.0,1.3754,1.479,1.5084,1.5464,1.5905,1.5972,1.6066,1.6152,1.5712,1.5424,1.5304,1.495,1.3948,1.2402,0.0,0.0,1.2772,1.3748,1.4596,1.5277,1.5549,1.5974,1.6509,1.6368,1.649,1.6902,1.6941,1.7054,1.7336,1.7487,1.7187,1.6429,1.5311,1.4119,0.0,0.0,0.0,0.0,0.0,0.0,0.0,0.0,0.0,0.0,0.0,0.8151,0.829,0.0,0.0,0.0,1.0909,1.153,1.2687,1.293,0.0,0.0,0.0,0.0,0.0,0.0,0.0,1.5831,1.8336,2.0141,2.0198,2.0805,2.1715,2.3047,2.3418,2.3555,2.3588,0.0,2.459,2.4658,2.4824,2.5029,2.5283,2.5264,2.5339,2.5755,2.5928,2.6109,2.6377,2.6648,2.6996,2.7489,2.784,2.8351,2.9437,2.9272,2.9308,3.0277,3.056,3.0876,3.1593,3.2079,3.2666,1.6607,1.6274,1.489,1.4289,1.4229,1.4249,1.4563,1.5109,1.5109,1.4814,1.4289,1.4516,1.4133,1.3427,1.342,0.0,1.4275,1.4536,1.5117,1.5945,1.6219,1.65,1.676,1.6506,1.6513,1.6774,1.648,1.6206,1.5891,1.5858,1.5611,1.5122,1.4816,1.4522,1.4269,1.5277,1.5804,1.5858,1.6139,1.6279,1.6355,1.6039,1.5987,1.6211,1.6211,1.6155,1.6091,1.6657,1.6907,1.6662,1.5616,1.4917,1.4626,0.0,0.0,0.0,0.0,0.0,0.0,0.0,0.0,0.0,0.0,0.0,0.0,0.0,0.0,0.0,1.2328,0.0,1.4571,1.3816,0.0,0.0,0.0,1.4438,1.5032,1.6037,1.6944,1.7684,0.0,0.0,2.053,2.1558,2.2751,2.4132,2.4779,2.4979,2.457,2.5225,2.5635,2.5292,2.5557,2.5781,2.584,2.6143,2.6555,2.707,2.7338,2.735,2.7593,2.7673,2.7844,2.8065,2.8167,2.8487,2.9714,2.9818,3.0278,3.1182,3.1475,3.1854,3.2767,3.3439,3.3928,1.7259,1.6958,1.661,1.6039,1.5438,1.5658,1.5879,1.5959,1.6006,1.5879,1.5792,1.5591,1.5351,1.5158,1.5158,1.5404,1.5805,1.5825,1.6213,1.6871,1.6958,1.7146,1.7361,1.7301,1.7308,1.7348,1.7125,1.6958,1.6878,1.6607,1.6313,1.6033,1.6112,1.5818,1.513,1.5578,1.6052,1.6493,1.6353,1.6386,1.6593,1.6526,1.6442,1.6276,1.6263,1.6128,1.588,1.6457,1.6735,1.6636,1.6249,1.5792,1.5242,1.3778,0.0,0.0,0.0,0.0,0.0,0.0,0.0,0.0,0.0,1.017,1.025,0.0,1.1923,0.0,1.3886,1.4944,1.5539,1.5592,0.0,0.0,1.5968,1.6111,1.6819,1.771,1.8277,1.8314,1.9734,2.0735,2.0824,2.1644,2.2637,2.3586,2.4524,2.5156,2.5343,2.5879,2.6201,2.6133,2.6435,2.6709,2.6719,2.6797,2.6904,2.7043,2.7114,2.7206,2.745,2.7491,2.7602,2.7814,2.8086,2.8328,2.8649,2.8817,2.9338,3.0256,3.0999,3.1833,3.2849,3.3266,3.3637,1.7488,1.7393,1.7393,1.7054,1.662,1.6653,1.6734,1.6847,1.6904,1.6837,1.6697,1.6346,1.6219,1.6171,1.6219,1.6306,1.6473,1.6656,1.6891,1.7199,1.7333,1.7481,1.7582,1.7589,1.7589,1.7628,1.7422,1.7393,1.738,1.7174,1.7014,1.6867,1.7014,1.6787,1.6206,1.6206,1.638,1.67,1.6547,1.6547,1.6693,1.6707,1.6573,1.6286,1.6273,1.6132,1.5798,1.636,1.6629,1.6421,1.6474,1.6245,1.5669,1.4605,1.3738,0.0,0.0,0.0,0.0,0.0,0.0,0.0,0.0,0.0,0.0,0.0,1.3623,1.4435,1.546,1.614,1.6316,1.6529,1.6741,1.6982,1.7057,1.7305,1.8015,1.8644,1.9018,1.9087,2.0046,2.0712,2.0625,2.145,2.2325,2.2992,2.443,2.5465,2.5581,2.6307,2.6953,2.6973,2.7305,2.7578,2.7588,2.7578,2.7578,2.7578,2.7578,2.764,2.7776,2.7776,2.788,2.8149,2.8314,2.8521,2.8778,2.8922,2.9269,2.9878,3.046,3.1205,3.2182,3.2982,3.3782,1.7589,1.7589,1.7589,1.7589,1.7562,1.7367,1.74,1.7589,1.7589,1.7442,1.7239,1.6934,1.682,1.6814,1.682,1.682,1.684,1.7088,1.7253,1.7273,1.7514,1.7589,1.7589,1.7589,1.7589,1.7589,1.7589,1.7589,1.7589,1.7589,1.7562,1.7528,1.7528,1.7434,1.7139,1.6834,1.6707,1.6707,1.674,1.676,1.676,1.6727,1.6567,1.6293,1.6273,1.6132,1.5852,1.6367,1.6553,1.63,1.6462,1.6467,1.6188,1.5291,1.4665,0.0,1.3651,0.0,0.0,0.0,0.0,0.0,0.0,0.0,0.0,1.4586,1.557,1.6477,1.6895,1.7101,1.7138,1.7218,1.7497,1.7991,1.8101,1.8357,1.8913,1.9228,1.9506,1.9845,2.0069,2.019,2.0336,2.1092,2.1853,2.2387,2.4005,2.5174,2.5198,2.655,2.7715,2.7639,2.8043,2.834,2.8428,2.8457,2.8457,2.8457,2.8457,2.8457,2.8457,2.8457,2.8564,2.8789,2.8842,2.9056,2.9568,2.9664,2.978,3.0107,3.0202,3.0524,3.1457,3.2586,3.3732,1.7589,1.7589,1.7589,1.7589,1.7575,1.7522,1.7588,1.7589,1.7589,1.7549,1.7554,1.7442,1.7415,1.7422,1.7415,1.7415,1.7415,1.7527,1.7495,1.7502,1.7555,1.7589,1.7589,1.7589,1.7589,1.7589,1.7589,1.7589,1.7589,1.7589,1.7462,1.7286,1.728,1.7088,1.68,0.0,0.0,0.0,1.6947,1.7119,1.7112,1.6827,1.6567,1.6286,1.6273,0.0,1.5858,1.6161,1.6447,1.6594,1.6642,0.0,0.0,0.0,0.0,0.0,0.0,0.0,0.0,0.0,0.0,0.0,1.5817,1.576,1.516,1.5935,1.6829,1.7472,1.7838,1.8138,1.8401,1.8957,1.9309,1.9381,1.9616,1.9828,1.9959,2.0011,2.0084,2.0135,2.0154,2.0285,2.0589,2.0792,2.1085,2.1496,2.2662,2.3592,2.3836,2.6263,2.7747,2.7049,2.7994,2.8935,2.9333,2.9352,2.9248,2.9336,2.9336,2.9307,2.9277,2.9297,2.9316,2.9417,2.9622,2.9768,2.9923,3.0098,3.0302,3.069,3.0734,3.0899,3.1458,3.1822,3.2542,1.8029,0.0,1.8029,1.8029,0.0,1.8029,1.8029,1.8009,1.7709,1.7589,1.7589,1.7589,1.7589,1.7589,1.7589,1.7589,1.7589,1.7589,1.7589,1.7589,1.7589,1.7589,1.7589,1.7589,1.7589,1.7589,1.7589,1.7589,1.7589,1.7589,1.7508,1.742,1.7502,1.7508,1.7375,1.7368,1.7221,1.6927,1.7125,1.7266,1.74,1.7221,1.7001,1.677,1.6757,0.0,0.0,0.0,0.0,0.0,0.0,0.0,0.0,0.0,0.0,1.673,1.6146,1.5966,1.638,1.6303,1.6412,1.6868,1.75,1.757,1.6863,1.7443,1.8079,1.8708,1.8774,1.8999,1.9424,1.9699,1.9841,2.0003,2.0142,2.0183,2.0197,2.0321,2.0368,2.0279,2.0514,2.0674,2.0536,2.0773,2.0903,2.1068,2.2243,2.3026,2.2983,2.554,2.7663,2.7971,2.8622,2.9316,2.9512,2.958,2.958,2.957,2.958,2.958,2.958,2.958,2.958,2.9626,2.9738,2.9859,2.997,3.0137,3.0284,3.0615,3.0781,3.0932,3.1285,3.1771,3.269,1.7805,1.7805,1.7798,1.7805,1.786,1.7805,1.7805,1.7828,0.0,0.0,0.0,1.7589,1.7589,1.7589,1.7589,1.7589,1.7589,1.7589,1.7609,1.7662,1.7662,1.7689,1.7795,1.7742,1.7742,1.7742,1.7742,1.7742,1.7742,1.7742,1.7749,1.7769,1.7983,1.8103,1.8069,1.8075,1.7883,1.7454,1.7286,1.7313,1.7495,1.7455,1.7315,1.7125,1.7119,1.6954,1.6714,1.6707,1.6707,1.6707,1.6707,1.6827,1.7082,1.6864,1.6874,1.7154,1.6905,1.6995,1.7584,1.7449,1.7561,1.8124,1.8629,1.8783,1.8448,1.8753,1.916,1.9692,1.9467,1.952,1.999,1.9912,1.9886,2.0106,2.0204,2.0192,2.0262,2.0465,2.0549,2.0465,2.078,2.0967,2.0561,2.0897,2.1126,2.1008,2.1987,2.2937,2.2699,2.4953,2.7483,2.8803,2.9378,2.9763,2.9805,2.9863,2.9805,2.9883,2.9853,2.9805,2.9805,2.9861,2.9814,2.9883,2.9871,2.9956,3.0105,3.0211,3.0264,3.0524,3.0792,3.108,3.1236,3.2041,3.3084,1.5248,1.5243,1.5243,1.5237,1.5243,1.5237,1.5237,1.5389,1.7117,1.7829,1.7589,1.7589,1.7589,1.7589,1.7589,1.7589,1.7589,1.7589,1.7729,1.7922,1.7929,1.8116,1.8357,1.8364,1.8364,1.8364,1.8364,1.8364,1.8364,1.8357,1.8364,1.8364,1.8404,1.8424,1.843,1.843,1.839,1.829,1.7594,1.7219,1.7259,1.6961,1.6814,1.6774,1.6787,1.6754,1.6707,1.672,1.6707,1.6707,1.6707,1.682,1.717,1.7163,1.7306,1.7795,1.7809,1.8023,1.8625,1.8659,1.8774,1.908,1.9164,1.912,1.8851,1.9313,1.9588,1.9393,1.9331,1.9345,1.9415,1.9654,1.9808,1.9886,2.0104,2.0316,2.0309,2.0358,2.0435,2.0608,2.0686,2.0885,2.097,2.1082,2.1191,2.1191,2.1523,2.2016,2.339,2.5034,2.6663,2.8189,2.9413,3.0159,3.0392,3.0693,3.0635,3.0713,3.0644,3.0605,3.0596,3.0596,3.0596,3.0674,3.0605,3.0693,3.076,3.0771,3.0876,3.1077,3.1364,3.1671,3.1919,3.2442,3.2867,1.5177,1.5183,1.5183,1.5583,1.6212,1.6218,1.6138,1.5949,1.6242,1.6666,1.7024,1.7072,1.746,1.8076,1.8076,1.8076,1.8076,1.807,1.815,1.8283,1.829,1.8357,1.8484,1.8497,1.8497,1.8497,1.8497,1.8497,1.8497,1.8497,1.8497,1.8504,1.8644,1.8731,1.8724,1.8724,1.8644,1.8484,1.8137,1.7929,1.7923,1.7742,1.7675,1.7669,1.7675,1.7675,1.7669,1.7682,1.7675,1.7675,1.7675,1.7736,1.7862,1.7929,1.8003,1.827,1.8283,1.8453,1.8851,1.8913,1.8913,1.8871,1.9181,1.9215,1.8912,1.9257,1.9534,1.957,1.9424,1.9444,1.9773,1.9806,1.9951,2.0233,2.0438,2.0585,2.0732,2.0767,2.0771,2.0711,2.0865,2.0854,2.0698,2.097,2.1073,2.0971,2.1197,2.1856,2.2904,2.4137,2.5572,2.7309,2.8645,2.95,2.9806,3.046,3.083,3.0898,3.0898,3.0898,3.0898,3.0898,3.0898,3.0898,3.0898,3.0898,3.0908,3.0889,3.1035,3.1378,3.1681,3.2034,3.2342,3.2624,3.2991,1.4743,1.4743,1.4743,1.551,1.6626,1.6626,1.6511,1.616,1.4887,1.4961,1.5869,1.6094,1.672,1.7576,1.7631,1.7631,1.7693,1.7971,1.8128,1.8187,1.8466,1.8624,1.8684,1.8691,1.8684,1.8691,1.8691,1.8684,1.8691,1.8691,1.8684,1.8718,1.8911,1.9018,1.9025,1.9025,1.8911,1.8698,1.8691,1.8624,1.8497,1.8497,1.849,1.8497,1.8484,1.8497,1.8497,1.8497,1.8497,1.8497,1.8497,1.8497,1.8497,1.8497,1.8517,1.8577,1.8591,1.8729,1.895,1.9013,1.8901,1.8747,1.9118,1.933,1.9149,1.9301,1.9493,1.9666,1.9535,1.9614,2.0037,2.0045,2.011,2.0506,2.0593,2.0617,2.0898,2.0953,2.0927,2.0726,2.0935,2.0895,2.0625,2.08,2.1004,2.0933,2.1283,2.1664,2.2041,2.2973,2.4317,2.5782,2.7538,2.8783,2.8979,3.003,3.0772,3.0898,3.0898,3.0947,3.1006,3.1045,3.1113,3.1191,3.1221,3.125,3.1211,3.1211,3.1348,3.1671,3.1959,3.2286,3.2635,3.2922,3.3252,1.2195,1.213,1.2315,1.29,1.4023,1.4138,1.4183,1.3925,1.2697,1.2813,1.4084,1.4583,1.4977,1.5068,1.5141,1.5208,1.5321,1.6266,1.6916,1.7293,1.8355,1.9025,1.9239,1.9272,1.9285,1.9323,1.9316,1.929,1.929,1.931,1.9272,1.9285,1.9319,1.9312,1.9377,1.9377,1.9363,1.9343,1.935,1.9032,1.8524,1.8497,1.8497,1.8497,1.8504,1.8497,1.8531,1.8497,1.8497,1.8497,1.851,1.8504,1.8504,1.8504,1.8611,1.8858,1.8885,1.8998,1.9303,1.9343,1.9323,1.935,1.9357,1.9491,1.9673,1.9738,1.9676,1.9549,1.9625,1.9765,1.9832,2.0033,2.0174,2.0288,2.0308,2.0261,2.0382,2.0295,2.0388,2.0676,2.0758,2.0784,2.0922,2.1065,2.1099,2.1022,2.1315,2.1565,2.1719,2.2097,2.2614,2.3626,2.5965,2.8224,2.8847,3.0039,3.0761,3.0918,3.0918,3.1103,3.1367,3.1484,3.1553,3.1748,3.1943,3.1974,3.2013,3.2041,3.2012,3.2131,3.2361,3.2684,3.2995,3.3275,3.3528,1.29,1.29,1.29,1.2779,1.2779,1.4147,1.4381,1.3605,1.2367,1.2483,1.3531,1.3195,1.3761,1.5215,1.5215,1.5273,1.5278,1.5806,1.6083,1.6296,1.7472,1.8126,1.8338,1.9068,1.9424,1.9424,1.9424,1.9424,1.9424,1.9424,1.9424,1.9424,1.9424,1.9424,1.9424,1.9424,1.9424,1.9424,1.9424,1.9303,1.9038,1.9005,1.9005,1.9068,1.9005,1.9011,1.9011,1.9062,1.9011,1.9011,1.9068,1.9005,1.9068,1.9005,1.9058,1.9172,1.9185,1.9239,1.9417,1.9424,1.9497,1.9606,1.9626,1.9746,2.002,2.0054,2.0,1.9927,1.9987,2.0054,2.0067,2.0167,2.0294,2.0448,2.0494,2.0555,2.0735,2.0742,2.0808,2.0922,2.0929,2.0969,2.1076,2.1102,2.1102,2.1102,2.1235,2.1373,2.1585,2.1753,2.202,2.2729,2.4776,2.6732,2.7957,2.9456,3.0594,3.1382,3.1641,3.1758,3.1826,3.1904,3.1982,3.2168,3.2217,3.2226,3.218,3.2248,3.2278,3.2473,3.2855,3.3201,3.352,3.3495,3.3558,1.4202,1.4262,1.4555,1.4028,1.3084,1.5154,1.5623,1.455,1.3015,1.284,1.349,1.2367,1.2788,1.4386,1.4565,1.4565,1.4624,1.5278,1.5391,1.5332,1.6744,1.7337,1.7161,1.8292,1.8887,1.8946,1.9243,1.9424,1.9424,1.9424,1.9424,1.9424,1.9424,1.9424,1.9424,1.9424,1.9424,1.9424,1.9424,1.9424,1.9417,1.9424,1.9424,1.9424,1.9424,1.9424,1.9424,1.9424,1.9424,1.9424,1.9424,1.9424,1.9424,1.9424,1.9424,1.9424,1.9424,1.9406,1.9537,1.9486,1.9606,1.9873,1.992,2.004,2.0287,2.0354,2.0394,2.0474,2.0468,2.0461,2.0361,2.0421,2.0575,2.0762,2.0795,2.0889,2.1062,2.1102,2.1082,2.1102,2.1076,2.1149,2.1216,2.1243,2.1269,2.1363,2.1376,2.1403,2.1675,2.1742,2.1939,2.2476,2.3717,2.5126,2.6818,2.8871,3.0368,3.1275,3.1655,3.2129,3.2295,3.2344,3.2471,3.2656,3.2539,3.2549,3.2676,3.2627,3.2539,3.2881,3.3184,3.3432,3.3625,3.3552,3.3743,1.5515,1.5688,1.6803,1.6455,1.551,1.6803,1.7337,1.6744,1.4614,1.3665,1.361,1.2427,1.1897,1.2195,1.2251,1.2014,1.2371,1.4386,1.4798,1.4083,1.6208,1.6803,1.5806,1.6985,1.763,1.7987,1.8946,1.9424,1.9424,1.9424,1.9424,1.9424,1.9424,1.9424,1.9424,1.9424,1.9424,1.9424,1.9424,1.9424,1.9424,1.9424,1.9424,1.9424,1.9424,1.9424,1.9424,1.9424,1.9424,1.9424,1.9424,1.9424,1.9424,1.9424,1.943,1.9437,1.9437,1.9506,1.974,1.978,1.9907,2.0154,2.016,2.0341,2.0615,2.0655,2.0755,2.1022,2.0989,2.0902,2.0722,2.0842,2.0995,2.1036,2.1069,2.1076,2.1096,2.1102,2.1102,2.1129,2.1176,2.1296,2.1568,2.1594,2.1643,2.181,2.1911,2.1931,2.1944,2.1971,2.2195,2.254,2.3207,2.4078,2.5533,2.7756,2.9565,3.05,3.1322,3.217,3.2588,3.2812,3.2998,3.3154,3.3144,3.3184,3.331,3.332,3.3242,3.333,3.331,3.3481,3.3544,3.3733,3.3948,1.4862,1.5688,1.6985,1.675,1.5806,1.6979,1.7038,1.622,1.5337,1.4917,1.4679,1.3555,1.302,1.296,1.213,1.1837,1.1893,1.2788,1.2904,1.2664,1.4257,1.5268,1.5747,1.6926,1.7987,1.8713,1.9185,1.9424,1.9424,1.9424,1.9424,1.9424,1.9424,1.9424,1.9424,1.9424,1.9424,1.9424,1.9424,1.9424,1.9437,1.9424,1.9424,1.9424,1.9424,1.9424,1.9424,1.9424,1.9424,1.9424,1.9424,1.9424,1.9424,1.9424,1.9452,1.9619,1.9639,1.9773,2.0027,2.0074,2.0201,2.0474,2.0514,2.0635,2.0889,2.0955,2.1002,2.1082,2.1102,2.1042,2.1009,2.1056,2.1102,2.1102,2.1109,2.1116,2.1102,2.1109,2.1176,2.137,2.1543,2.1724,2.1777,2.183,2.1877,2.1957,2.1991,2.2078,2.2218,2.2265,2.2378,2.2701,2.3167,2.3614,2.3979,2.637,2.8401,2.9561,3.0556,3.1327,3.1847,3.2686,3.302,3.3209,3.3398,3.3408,3.3389,3.3389,3.3418,3.3418,3.3418,3.3418,3.3418,3.3544,3.3859,1.4711,1.5314,1.6515,1.6285,1.5269,1.6391,1.6459,1.5639,1.5569,1.5569,1.5332,1.4262,1.3729,1.349,1.2367,1.1837,1.1893,1.2191,1.2191,1.1953,1.3135,1.3968,1.4565,1.6101,1.7337,1.8233,1.9068,1.9424,1.9424,1.9424,1.9424,1.9424,1.9424,1.9424,1.9424,1.9424,1.9424,1.9437,1.9517,1.9506,1.9519,1.9606,1.9653,1.9646,1.9646,1.9546,1.9444,1.9452,1.9452,1.9437,1.9424,1.9412,1.9492,1.9506,1.9639,1.9893,1.994,2.0067,2.0327,2.0374,2.0501,2.0782,2.0815,2.0909,2.1082,2.1102,2.1102,2.1102,2.1102,2.1102,2.1129,2.1196,2.1216,2.1156,2.1196,2.1249,2.1256,2.1349,2.1483,2.167,2.1837,2.1991,2.2104,2.2124,2.2184,2.2251,2.2265,2.2372,2.2512,2.2572,2.2619,2.2881,2.3167,2.3372,2.365,2.5145,2.6803,2.7917,2.9345,3.0228,3.1185,3.2174,3.2956,3.3219,3.3418,3.3418,3.3418,3.3418,3.3418,3.3418,3.3418,3.3418,3.3418,3.3418,3.3733,1.5323,1.4557,1.5582,1.5437,1.4541,1.5489,1.579,1.5645,1.5623,1.565,1.5487,1.4351,1.3882,1.3449,1.2556,1.1897,1.2014,1.2844,1.2719,1.2014,1.302,1.302,1.2487,1.4565,1.5806,1.6284,1.824,1.9307,1.9366,1.9424,1.9424,1.9424,1.9424,1.9424,1.9424,1.945,1.9457,1.9459,1.9666,1.98,1.984,2.0034,2.0147,2.0174,2.0187,1.996,1.9504,1.9666,1.9693,1.9459,1.9484,1.9519,1.9766,1.98,1.9933,2.018,2.0234,2.0381,2.0628,2.0681,2.0795,2.1002,2.1089,2.1069,2.1096,2.1102,2.1102,2.1102,2.1136,2.1142,2.1189,2.1396,2.1443,2.1209,2.1383,2.155,2.1597,2.1804,2.1984,2.1997,2.2058,2.2138,2.2331,2.2425,2.2505,2.2686,2.282,2.282,2.2779,2.2792,2.2839,2.2928,2.3133,2.327,2.3475,2.3877,2.5008,2.627,2.7759,2.8969,3.0077,3.1065,3.21,3.2565,3.3282,3.3355,3.3418,3.3418,3.3418,3.3418,3.3418,3.3418,3.3418,3.3418,3.3607,1.4529,1.4341,1.5587,1.5866,1.5489,1.5854,1.599,1.5932,1.5932,1.5937,1.5838,1.5387,1.4655,1.3905,1.3263,1.2608,1.1897,1.2191,1.2195,1.1962,1.2251,1.2724,1.32,1.3904,1.5208,1.675,1.7695,1.8583,1.9307,1.9424,1.9424,1.9424,1.9424,1.9424,1.945,1.9553,1.9666,1.9706,1.9953,2.0094,2.01,2.0187,2.0241,2.0254,2.0428,2.0354,2.0,2.0054,2.0047,1.9947,1.9967,2.0007,2.0074,2.0094,2.0241,2.0488,2.0541,2.0661,2.0922,2.0969,2.0995,2.1089,2.1102,2.1102,2.1102,2.1102,2.1109,2.1136,2.1283,2.1416,2.1463,2.167,2.171,2.1514,2.1735,2.1923,2.197,2.2111,2.2258,2.2311,2.2458,2.2619,2.2686,2.2712,2.2739,2.2819,2.2866,2.2866,2.2866,2.2866,2.2866,2.2934,2.3003,2.3071,2.3201,2.3338,2.3945,2.4948,2.627,2.7593,2.8772,3.0216,3.1185,3.2301,3.2956,3.3282,3.3355,3.3418,3.3418,3.3418,3.3418,3.3418,3.3418,3.3481,3.3607,1.3697,1.3761,1.4515,1.4852,1.4784,1.478,1.4731,1.4793,1.5214,1.5406,1.5365,1.5248,1.4819,1.4005,1.3469,1.2756,1.2024,1.1906,1.187,1.1853,1.1797,1.2251,1.3015,1.355,1.5025,1.7097,1.7513,1.8169,1.9366,1.9424,1.9424,1.943,1.9466,1.9533,1.9559,1.9806,1.996,2.0,2.0247,2.0401,2.0421,2.0501,2.05,2.0588,2.0742,2.0735,2.0568,2.0555,2.0454,2.022,2.0173,2.0281,2.0374,2.0408,2.0528,2.0768,2.0848,2.0922,2.1082,2.1089,2.1102,2.1102,2.1102,2.1102,2.1102,2.1102,2.1136,2.1289,2.1501,2.1661,2.173,2.1977,2.2038,2.1904,2.2031,2.2191,2.2298,2.2465,2.2565,2.2619,2.2732,2.2839,2.2866,2.2866,2.2866,2.2866,2.2866,2.2866,2.2866,2.2866,2.2866,2.2866,2.2934,2.2934,2.2934,2.3003,2.3071,2.3877,2.4752,2.6077,2.727,2.9108,3.0475,3.2174,3.3228,3.3292,3.3418,3.3418,3.3418,3.3418,3.3418,3.3418,3.3418,3.3418,3.3481,1.2832,1.277,1.2832,1.2914,1.2843,1.2834,1.282,1.2682,1.3663,1.4171,1.4161,1.4317,1.4173,1.3864,1.3072,1.2616,1.2268,1.2121,1.2048,1.2008,1.1918,1.2019,1.2139,1.296,1.4614,1.6626,1.6979,1.7772,1.8719,1.8836,1.9283,1.9207,1.9417,1.9767,1.982,2.0114,2.0254,2.0294,2.0548,2.0695,2.0708,2.0929,2.1056,2.1049,2.1062,2.1056,2.1022,2.1009,2.0808,2.0381,2.0354,2.0474,2.0648,2.0702,2.0828,2.1049,2.1096,2.1082,2.1102,2.1102,2.1102,2.1102,2.1102,2.1102,2.1102,2.1109,2.1216,2.1534,2.1641,2.1717,2.1991,2.2271,2.2405,2.2438,2.2425,2.2552,2.2799,2.2832,2.2806,2.2826,2.2859,2.2866,2.2866,2.2866,2.2866,2.2866,2.2866,2.2866,2.2866,2.2866,2.2866,2.2866,2.2866,2.2866,2.2866,2.2934,2.3003,2.327,2.4013,2.4955,2.6285,2.8188,3.0095,3.179,3.3092,3.3219,3.3418,3.3418,3.3418,3.3418,3.3418,3.3418,3.3418,3.3418,3.3418,1.277,1.277,1.277,1.2808,1.2767,1.2767,1.2739,1.2698,1.3007,1.3241,1.3306,1.408,1.3884,1.311,1.355,1.3232,1.2493,1.2264,1.2235,1.2227,1.2199,1.2004,1.1821,1.2139,1.3209,1.4634,1.5017,1.5412,1.6646,1.6962,1.7475,1.847,1.8586,1.914,1.9979,2.0285,2.0548,2.0601,2.0842,2.0919,2.0989,2.1049,2.1102,2.1102,2.1102,2.1102,2.1102,2.1102,2.1062,2.0915,2.0875,2.0902,2.0962,2.0975,2.1009,2.1076,2.1102,2.1102,2.1102,2.1102,2.1102,2.1102,2.1102,2.1102,2.1102,2.1109,2.1256,2.1581,2.173,2.1991,2.2278,2.2559,2.2712,2.2746,2.2719,2.2759,2.2839,2.2866,2.2866,2.2866,2.2866,2.2866,2.2866,2.2866,2.2866,2.2866,2.2866,2.2866,2.2866,2.2866,2.2866,2.2866,2.2866,2.2866,2.2866,2.2866,2.2928,2.2996,2.3468,2.4081,2.5614,2.7469,2.9426,3.1322,3.2502,3.2956,3.3219,3.3418,3.3418,3.3418,3.3418,3.3418,3.3418,3.3418,3.3418,1.277,1.277,1.277,1.277,1.277,1.277,1.277,1.277,1.277,1.277,1.2939,1.3444,1.3384,1.2791,1.3332,1.3221,1.2584,1.245,1.2414,1.2402,1.2328,1.2186,1.2036,1.2,1.2663,1.3803,1.3859,1.4724,1.5799,1.5937,1.6758,1.786,1.7681,1.8229,1.9377,1.9243,1.9449,1.9865,2.0195,2.0456,2.1039,2.1102,2.1102,2.1102,2.1102,2.1102,2.1102,2.1102,2.1102,2.1096,2.1096,2.1102,2.1102,2.1102,2.1102,2.1102,2.1102,2.1102,2.1102,2.1102,2.1102,2.1102,2.1102,2.1102,2.1136,2.1216,2.1423,2.1717,2.1997,2.2285,2.2552,2.2766,2.2846,2.2846,2.2866,2.2866,2.2866,2.2866,2.2866,2.2866,2.2866,2.2866,2.2866,2.2866,2.2866,2.2866,2.2866,2.2866,2.2866,2.2866,2.2866,2.2866,2.2866,2.2866,2.2866,2.2866,2.2866,2.2928,2.3406,2.3884,2.521,2.7004,2.8838,3.0669,3.1781,3.2702,3.3092,3.3418,3.3418,3.3418,3.3418,3.3418,3.3418,3.3418,3.3418,1.2704,1.2704,1.2704,1.2704,1.2704,1.2708,1.2704,1.277,1.277,1.277,1.2832,1.2766,1.2873,1.277,1.2906,1.2816,1.2742,1.2653,1.2609,1.2556,1.2479,1.2373,1.2369,1.2264,1.2804,1.3666,1.3962,1.4471,1.5052,1.5436,1.6396,1.706,1.665,1.7152,1.8081,1.7629,1.7731,1.8622,1.9145,1.9686,2.0526,2.0906,2.1102,2.1102,2.1102,2.1102,2.1102,2.1102,2.1102,2.1102,2.1102,2.1102,2.1102,2.1102,2.1102,2.1102,2.1102,2.1102,2.1102,2.1102,2.1102,2.1102,2.1102,2.1136,2.1216,2.139,2.1643,2.2004,2.2265,2.2498,2.2752,2.2859,2.2859,2.2866,2.2866,2.2866,2.2866,2.2866,2.2866,2.2866,2.2866,2.2866,2.2866,2.2866,2.2866,2.2866,2.2866,2.2866,2.2866,2.2866,2.2866,2.2866,2.2866,2.2866,2.2866,2.2866,2.2866,2.2928,2.355,2.4156,2.5083,2.6737,2.8443,2.9956,3.113,3.2301,3.3219,3.3418,3.3418,3.3418,3.3418,3.3418,3.3418,3.3418,3.3418,1.2045,1.2048,1.2045,1.1978,1.2045,1.2312,1.2379,1.2441,1.27,1.2704,1.277,1.277,1.277,1.277,1.2704,1.277,1.2704,1.2718,1.2779,1.2771,1.2751,1.2657,1.2588,1.2403,1.2447,1.2763,1.275,1.3007,1.3356,1.3724,1.4171,1.5455,1.5535,1.5932,1.7033,1.6926,1.7039,1.7555,1.8326,1.8972,1.9495,2.0392,2.0849,2.0976,2.1039,2.1102,2.1102,2.1102,2.1102,2.1102,2.1102,2.1102,2.1102,2.1102,2.1102,2.1102,2.1102,2.1102,2.1102,2.1102,2.1109,2.1136,2.1156,2.1209,2.1507,2.1594,2.1824,2.2184,2.2392,2.2572,2.2806,2.2866,2.2866,2.2866,2.2866,2.2866,2.2866,2.2866,2.2866,2.2866,2.2866,2.2866,2.2866,2.2866,2.2866,2.2866,2.2866,2.2866,2.2866,2.2866,2.2866,2.2866,2.2866,2.2866,2.2866,2.2866,2.2866,2.2928,2.3482,2.4027,2.4955,2.595,2.7461,2.9034,3.054,3.1653,3.2692,3.3418,3.3418,3.3418,3.3418,3.3418,3.3418,3.3418,3.3418,1.1912,1.2045,1.1846,1.1912,1.2045,1.2045,1.2045,1.2111,1.2239,1.2309,1.2309,1.2309,1.2309,1.2309,1.2309,1.2309,1.2309,1.2309,1.2309,1.2305,1.2305,1.2305,1.2293,1.2218,1.2101,1.223,1.2108,1.2228,1.2348,1.2494,1.3244,1.4637,1.4132,1.4572,1.5619,1.5429,1.5359,1.6009,1.6651,1.7361,1.8133,1.8722,1.9616,2.0202,2.0716,2.1102,2.1102,2.1102,2.1102,2.1102,2.1039,2.1039,2.1102,2.1102,2.1102,2.1102,2.1102,2.1102,2.1102,2.1116,2.1176,2.1303,2.1316,2.149,2.1717,2.1864,2.2071,2.2358,2.2545,2.2706,2.2839,2.2866,2.2866,2.2866,2.2866,2.2866,2.2866,2.2866,2.2866,2.2866,2.2866,2.2866,2.2866,2.2866,2.2866,2.2866,2.2866,2.2866,2.2866,2.2866,2.2866,2.2866,2.2866,2.2866,2.2866,2.2866,2.2866,2.2996,2.327,2.3747,2.4285,2.5285,2.6278,2.7924,2.9565,3.0734,3.1717,3.2502,3.3355,3.3418,3.3418,3.3418,3.3418,3.3418,3.3418,1.1776,1.2041,1.178,1.178,1.1978,1.178,1.1714,1.1714,1.178,1.1912,1.185,1.1784,1.1912,1.1846,1.1846,1.185,1.1846,1.1846,1.1916,1.1916,1.1916,1.1916,1.1901,1.1816,1.1798,1.2107,1.1941,1.2022,1.2088,1.2041,1.2672,1.3932,1.3153,1.335,1.4002,1.3617,1.3551,1.4525,1.5103,1.5684,1.6651,1.7044,1.7876,1.8652,1.9489,2.0075,2.0005,2.0132,2.0265,2.0462,2.0659,2.0659,2.0596,2.0982,2.1102,2.1102,2.1102,2.1102,2.1129,2.1176,2.1309,2.1614,2.1675,2.1757,2.2017,2.2218,2.2378,2.2525,2.2686,2.2826,2.2866,2.2866,2.2866,2.2866,2.2866,2.2866,2.2866,2.2866,2.2866,2.2866,2.2866,2.2866,2.2866,2.2866,2.2866,2.2866,2.2866,2.2866,2.2866,2.2866,2.2866,2.2866,2.2866,2.2866,2.2866,2.2866,2.2866,2.2996,2.3201,2.3543,2.3884,2.4692,2.5689,2.7078,2.8526,2.9826,3.1258,3.2502,3.3092,3.3282,3.3418,3.3418,3.3418,3.3418,3.3418,1.092,1.0982,1.092,1.0916,1.0982,1.1181,1.1314,1.138,1.1648,1.178,1.178,1.1784,1.1714,1.1784,1.178,1.178,1.1718,1.1648,1.1714,1.1718,1.1718,1.1714,1.1648,1.1449,1.1383,1.1449,1.1582,1.178,1.1846,1.1912,1.2173,1.2565,1.2437,1.2696,1.2964,1.2902,1.2836,1.3354,1.4132,1.4842,1.5298,1.6268,1.691,1.7367,1.7882,1.8011,1.7882,1.7818,1.7689,1.7748,1.878,1.8664,1.8647,1.9876,2.0711,2.0755,2.0889,2.0909,2.0961,2.1241,2.1476,2.1661,2.1718,2.2044,2.2271,2.2405,2.2552,2.2706,2.2799,2.2866,2.2866,2.2866,2.2866,2.2866,2.2866,2.2866,2.2866,2.2866,2.2866,2.2866,2.2866,2.2866,2.2866,2.2866,2.2866,2.2866,2.2866,2.2866,2.2866,2.2866,2.2866,2.2866,2.2866,2.2866,2.2866,2.2866,2.2866,2.2928,2.3201,2.355,2.3891,2.4231,2.5232,2.6427,2.7874,2.937,3.0872,3.2237,3.3029,3.3282,3.3355,3.3418,3.3418,3.3418,3.3418,1.0787,1.092,1.0784,1.0787,1.092,1.092,1.092,1.0986,1.1118,1.1251,1.1251,1.1247,1.1251,1.1251,1.1251,1.1251,1.1251,1.1247,1.1251,1.1251,1.1251,1.1251,1.1247,1.0982,1.0986,1.0982,1.1181,1.138,1.1446,1.1314,1.1582,1.1912,1.1846,1.1912,1.2243,1.2503,1.2441,1.2568,1.3153,1.3608,1.3739,1.5098,1.5814,1.6014,1.6597,1.698,1.698,1.698,1.705,1.7272,1.7755,1.7686,1.7817,1.8239,1.9185,1.9219,1.984,2.0303,2.041,2.0666,2.0971,2.1806,2.1533,2.1661,2.2349,2.2665,2.2637,2.2806,2.2866,2.2866,2.2866,2.2866,2.2866,2.2866,2.2866,2.2866,2.2866,2.2866,2.2866,2.2866,2.2866,2.2866,2.2866,2.2866,2.2866,2.2866,2.2866,2.2866,2.2866,2.2866,2.2866,2.2866,2.2866,2.2866,2.2866,2.2866,2.2866,2.2928,2.3065,2.3413,2.3823,2.4163,2.4706,2.5644,2.7219,2.8592,2.9891,3.1065,3.211,3.3155,3.3292,3.3355,3.3355,3.3418,3.3418,1.085,1.1052,1.0784,1.0853,1.1049,1.085,1.0721,1.0721,1.0721,1.0784,1.0721,1.0717,1.0717,1.0721,1.0721,1.0721,1.0721,1.0721,1.0784,1.0784,1.0784,1.0721,1.0721,1.0721,1.0721,1.0787,1.0784,1.085,1.1052,1.0916,1.1118,1.1449,1.1314,1.138,1.1843,1.2111,1.1978,1.1978,1.2045,1.2177,1.2568,1.3481,1.4286,1.4383,1.5487,1.5974,1.5792,1.5939,1.6008,1.6241,1.6563,1.6748,1.6695,1.6933,1.6877,1.683,1.8094,1.8985,1.9295,1.9364,1.9916,2.0736,2.0601,2.1183,2.1782,2.2183,2.2428,2.2791,2.2441,2.2585,2.2791,2.2866,2.2866,2.2866,2.2866,2.2866,2.2866,2.2866,2.2866,2.2866,2.2866,2.2866,2.2866,2.2866,2.2866,2.2866,2.2866,2.2866,2.2866,2.2866,2.2866,2.2866,2.2866,2.2866,2.2866,2.2866,2.2866,2.2928,2.2996,2.3277,2.3618,2.4027,2.4638,2.5247,2.5846,2.7153,2.8592,3.0086,3.1451,3.2492,3.3029,3.3355,3.3355,3.3418,3.3418,1.0721,1.0787,1.0721,1.0721,1.0787,1.0721,1.0721,1.0721,1.0721,1.0721,1.0721,1.0721,1.0721,1.0721,1.0721,1.0721,1.0721,1.0721,1.0721,1.0721,1.0721,1.0721,1.0721,1.0721,1.0721,1.0721,1.0721,1.0721,1.0787,1.0721,1.0853,1.1185,1.1247,1.138,1.1578,1.178,1.185,1.1784,1.185,1.1861,1.1939,1.2207,1.2414,1.2626,1.3068,1.3511,1.3747,1.3963,1.4091,1.4198,1.5086,1.4964,1.4314,1.5055,1.4891,1.5115,1.6094,1.7792,1.7822,1.8031,1.8408,1.9204,1.9663,2.0494,2.0963,2.1044,2.1321,2.2791,2.1809,2.1534,2.2372,2.2859,2.2859,2.2866,2.2866,2.2866,2.2866,2.2866,2.2866,2.2866,2.2866,2.2866,2.2866,2.2866,2.2866,2.2866,2.2866,2.2866,2.2866,2.2866,2.2866,2.2866,2.2866,2.2866,2.2866,2.2866,2.2866,2.2866,2.3003,2.314,2.3618,2.4027,2.4442,2.4984,2.545,2.5906,2.7211,2.8838,3.066,3.1899,3.2692,3.3092,3.3418,3.3418,3.3418,1.0721,1.0721,1.0721,1.0721,1.0721,1.0721,1.0721,1.0721,1.0721,1.0721,1.0721,1.0721,1.0721,1.0721,1.0721,1.0721,1.0721,1.0721,1.0721,1.0721,1.0721,1.0721,1.0721,1.0721,1.0721,1.0721,1.0721,1.0721,1.0721,1.0721,1.0787,1.092,1.092,1.092,1.1265,1.1387,1.1314,1.1342,1.1403,1.1631,1.176,1.1921,1.2018,1.2088,1.2289,1.241,1.2528,1.2609,1.2808,1.2928,1.3579,1.3567,1.3286,1.3594,1.3709,1.3679,1.4197,1.5399,1.6456,1.6798,1.7235,1.802,1.8946,1.9634,2.0132,1.9854,1.9501,2.0201,2.0554,2.0975,2.1678,2.2372,2.2791,2.2866,2.2866,2.2866,2.2866,2.2866,2.2866,2.2866,2.2866,2.2866,2.2866,2.2866,2.2866,2.2866,2.2866,2.2866,2.2866,2.2866,2.2866,2.2866,2.2866,2.2866,2.2866,2.2866,2.2866,2.2866,2.2866,2.314,2.3686,2.4163,2.4442,2.4713,2.5187,2.5712,2.6234,2.78,2.9891,3.1258,3.2428,3.2892,3.3282,3.3418,3.3418,1.0721,1.0721,1.0721,1.0721,1.0721,1.0721,1.0721,1.0721,1.0721,1.0721,1.0721,1.0721,1.0721,1.0721,1.0721,1.0721,1.0721,1.0721,1.0721,1.0721,1.0721,1.0721,1.0721,1.0721,1.0721,1.0721,1.0721,1.0721,1.0721,1.0721,1.0721,1.0721,1.0787,1.0751,1.0842,1.0996,1.1076,1.1011,1.1297,1.1456,1.1602,1.1757,1.1931,1.1964,1.2051,1.2135,1.2172,1.2399,1.2481,1.2611,1.2715,1.2835,1.2839,1.2989,1.3136,1.3088,1.3338,1.3764,1.4752,1.534,1.607,1.6916,1.7895,1.839,1.9507,1.8734,1.8245,1.8659,1.8734,1.9576,2.0629,2.1747,2.2304,2.2654,2.2866,2.2866,2.2866,2.2866,2.2866,2.2866,2.2866,2.2866,2.2866,2.2866,2.2866,2.2866,2.2866,2.2866,2.2866,2.2866,2.2866,2.2866,2.2866,2.2866,2.2866,2.2866,2.2866,2.2866,2.2866,2.314,2.3618,2.4027,2.4306,2.4645,2.4991,2.5255,2.5712,2.7419,2.9051,3.0216,3.1387,3.2565,3.3146,3.3282,3.3418,1.0721,1.0721,1.0721,1.0721,1.0721,1.0721,1.0721,1.0721,1.0721,1.0721,1.0721,1.0721,1.0721,1.0721,1.0721,1.0721,1.0721,1.0721,1.0721,1.0721,1.0721,1.0721,1.0721,1.0721,1.0721,1.0721,1.0721,1.0721,1.0731,1.0761,1.0741,1.0721,1.0768,1.0829,1.0887,1.1002,1.107,1.107,1.1279,1.13,1.1341,1.1427,1.1399,1.1566,1.1808,1.2073,1.2212,1.2397,1.2525,1.2562,1.2562,1.2565,1.2534,1.2613,1.2685,1.2757,1.2685,1.2964,1.346,1.3817,1.3896,1.4533,1.5518,1.6921,1.825,1.7132,1.6987,1.7679,1.7409,1.811,1.9437,2.0837,2.1609,2.2166,2.2585,2.2866,2.2866,2.2866,2.2866,2.2866,2.2866,2.2866,2.2866,2.2866,2.2866,2.2866,2.2866,2.2866,2.2866,2.2866,2.2866,2.2866,2.2866,2.2866,2.2866,2.2866,2.2866,2.2866,2.2866,2.314,2.3482,2.3823,2.4163,2.4578,2.4991,2.5059,2.5194,2.6501,2.7808,2.9108,3.0475,3.2301,3.3155,3.3345,3.3418,1.0721,1.0721,1.0721,1.0721,1.0721,1.0721,1.0721,1.0721,1.0721,1.0721,1.0721,1.0721,1.0721,1.0721,1.0721,1.0721,1.0721,1.0721,1.0721,1.0721,1.0721,1.0721,1.0721,1.0724,1.0721,1.0727,1.0727,1.0785,1.0793,1.0789,1.0931,1.0945,1.0911,1.0962,1.1033,1.1101,1.1179,1.1263,1.1314,1.1335,1.1436,1.1447,1.147,1.1518,1.1606,1.1769,1.1821,1.1968,1.2043,1.2043,1.2115,1.2115,1.2115,1.2115,1.2259,1.233,1.2259,1.2327,1.2681,1.2968,1.3535,1.46,1.5026,1.5376,1.671,1.5589,1.5093,1.5443,1.6009,1.6851,1.7409,1.9437,2.0975,2.1603,2.2097,2.2585,2.2866,2.2866,2.2866,2.2866,2.2866,2.2866,2.2866,2.2866,2.2866,2.2866,2.2866,2.2866,2.2866,2.2866,2.2866,2.2866,2.2866,2.2866,2.2866,2.2866,2.2866,2.2866,2.2866,2.3133,2.3406,2.3754,2.4163,2.4578,2.4924,2.5059,2.5255,2.5584,2.6761,2.8723,3.0743,3.2765,3.3219,3.3355,3.3418,1.0721,1.0721,1.0721,1.0721,1.0721,1.0721,1.0721,1.0721,1.0721,1.0721,1.0721,1.0721,1.0721,1.0721,1.0721,1.0721,1.0721,1.0721,1.0721,1.0721,1.0721,1.0721,1.0734,1.0772,1.0812,1.0799,1.085,1.0928,1.1009,1.1012,1.1094,1.1148,1.1145,1.1168,1.1209,1.1287,1.1355,1.1433,1.147,1.1497,1.1603,1.1606,1.1603,1.1606,1.1603,1.1606,1.1616,1.1688,1.1688,1.1688,1.1688,1.1616,1.1616,1.1616,1.176,1.1835,1.1835,1.19,1.2259,1.2824,1.3392,1.4102,1.3963,1.4319,1.4604,1.4319,1.4106,1.4181,1.4955,1.5589,1.5938,1.79,1.9785,2.0485,2.1327,2.1885,2.2654,2.2866,2.2866,2.2866,2.2866,2.2866,2.2866,2.2866,2.2866,2.2866,2.2866,2.2866,2.2866,2.2866,2.2866,2.2866,2.2866,2.2866,2.2866,2.2866,2.2866,2.2866,2.2928,2.3065,2.3338,2.3754,2.4027,2.4299,2.4645,2.4991,2.539,2.5846,2.7153,2.8789,3.0936,3.3219,3.3282,3.3418,3.3418,1.0721,1.0721,1.0721,1.0721,1.0721,1.0721,1.0721,1.0721,1.0721,1.0721,1.0721,1.0721,1.0721,1.0721,1.0721,1.0721,1.0727,1.0734,1.0744,1.0755,1.0799,1.0755,1.0802,1.0873,1.0945,1.0911,1.1026,1.109,1.1162,1.1162,1.125,1.1348,1.1362,1.1362,1.1396,1.1531,1.1603,1.1609,1.1599,1.1606,1.1613,1.1616,1.1616,1.1616,1.1616,1.1616,1.1616,1.1616,1.1616,1.1616,1.1616,1.1616,1.1616,1.1616,1.1616,1.1619,1.1619,1.1616,1.1688,1.2402,1.2828,1.3182,1.3114,1.3325,1.3392,1.3325,1.3396,1.3611,1.4039,1.4742,1.5447,1.6433,1.811,1.9298,2.0138,2.1258,2.2029,2.2866,2.2866,2.2866,2.2866,2.2866,2.2866,2.2866,2.2866,2.2866,2.2866,2.2866,2.2866,2.2866,2.2866,2.2866,2.2866,2.2866,2.2866,2.2866,2.2866,2.2866,2.2934,2.3065,2.3338,2.3686,2.3959,2.4163,2.4578,2.5059,2.5584,2.61,2.7543,2.8986,3.1524,3.3355,3.3355,3.3418,3.3418,1.0721,1.0721,1.0721,1.0721,1.0721,1.0721,1.0721,1.0721,1.0721,1.0721,1.0721,1.0721,1.0721,1.0721,1.0734,1.0741,1.0748,1.0782,1.0803,1.088,1.0948,1.1009,1.1033,1.1043,1.109,1.1104,1.1158,1.1246,1.1314,1.1314,1.1402,1.1504,1.1521,1.1545,1.1548,1.1606,1.1616,1.1616,1.1616,1.1616,1.1616,1.1616,1.1616,1.1616,1.1616,1.1616,1.1616,1.1616,1.1616,1.1616,1.1616,1.1616,1.1616,1.1616,1.1616,1.1616,1.1616,1.1616,1.1619,1.1903,1.2119,1.233,1.2617,1.2757,1.2968,1.2968,1.3039,1.3182,1.34,1.3892,1.4102,1.5589,1.6992,1.7619,1.867,2.0283,2.1396,2.2372,2.2866,2.2866,2.2866,2.2866,2.2866,2.2866,2.2866,2.2866,2.2866,2.2866,2.2866,2.2866,2.2866,2.2866,2.2866,2.2866,2.2866,2.2866,2.2866,2.2866,2.2934,2.3071,2.3345,2.3618,2.3959,2.4231,2.4713,2.5127,2.5584,2.6167,2.7543,2.9304,3.1524,3.3092,3.3355,3.3418,3.3418,1.0751,1.0799,1.0799,1.0833,1.085,1.0765,1.0721,1.0731,1.0772,1.0799,1.0812,1.085,1.0884,1.088,1.0873,1.0877,1.0887,1.0965,1.1023,1.1036,1.1107,1.1128,1.122,1.1289,1.1243,1.1253,1.1307,1.1389,1.1467,1.1467,1.1518,1.1582,1.1616,1.1603,1.1609,1.1613,1.1616,1.1616,1.1616,1.1616,1.1616,1.1616,1.1616,1.1616,1.1616,1.1616,1.1616,1.1616,1.1616,1.1616,1.1616,1.1616,1.1616,1.1616,1.1616,1.1616,1.1616,1.1616,1.1619,1.1619,1.1832,1.1979,1.2262,1.2474,1.2545,1.2617,1.2685,1.2828,1.2971,1.3182,1.3535,1.5022,1.5518,1.6216,1.79,1.9507,2.0837,2.1885,2.2866,2.2866,2.2866,2.2866,2.2866,2.2866,2.2866,2.2866,2.2866,2.2866,2.2866,2.2866,2.2866,2.2866,2.2866,2.2866,2.2866,2.2866,2.2866,2.2866,2.2934,2.3003,2.3277,2.355,2.3959,2.4367,2.4781,2.5119,2.5382,2.6174,2.7477,2.9043,3.0936,3.2247,3.3155,3.3418,3.3418,1.0822,1.0877,1.0887,1.1029,1.1097,1.087,1.0758,1.0758,1.0826,1.0887,1.0894,1.1084,1.1173,1.1203,1.121,1.1193,1.1197,1.1217,1.1168,1.1185,1.1236,1.1226,1.127,1.1341,1.1385,1.1443,1.1491,1.1528,1.1609,1.1579,1.1592,1.1613,1.1616,1.1616,1.1616,1.1616,1.1616,1.1616,1.1616,1.1616,1.1616,1.1616,1.1616,1.1616,1.1616,1.1616,1.1616,1.1616,1.1616,1.1616,1.1616,1.1616,1.1616,1.1616,1.1616,1.1616,1.1616,1.1616,1.1616,1.1616,1.1616,1.1691,1.1688,1.1835,1.2051,1.2191,1.2262,1.247,1.2685,1.2896,1.3325,1.3821,1.4248,1.5721,1.7404,1.8874,2.0277,2.1465,2.2516,2.2866,2.2866,2.2866,2.2866,2.2866,2.2866,2.2866,2.2866,2.2866,2.2866,2.2866,2.2866,2.2866,2.2866,2.2866,2.2866,2.2866,2.2866,2.2866,2.2866,2.3003,2.3208,2.3482,2.3891,2.4299,2.4781,2.5119,2.5322,2.6107,2.7286,2.892,3.0484,3.1854,3.2892,3.3292,3.3418,1.106,1.1101,1.1101,1.1128,1.1217,1.1073,1.1036,1.1046,1.109,1.1101,1.1107,1.121,1.1265,1.1231,1.1231,1.1241,1.1209,1.126,1.1311,1.1352,1.1402,1.146,1.1494,1.1511,1.1545,1.1558,1.1592,1.1616,1.1616,1.1616,1.1616,1.1616,1.1616,1.1616,1.1616,1.1616,1.1616,1.1616,1.1616,1.1616,1.1616,1.1616,1.1616,1.1616,1.1616,1.1616,1.1616,1.1616,1.1616,1.1616,1.1616,1.1616,1.1616,1.1616,1.1616,1.1616,1.1616,1.1616,1.1616,1.1616,1.1616,1.1616,1.1616,1.1619,1.1763,1.1835,1.1903,1.2115,1.233,1.2474,1.2757,1.3114,1.3539,1.4666,1.6418,1.817,1.9646,2.1113,2.216,2.2866,2.2866,2.2866,2.2866,2.2866,2.2866,2.2866,2.2866,2.2866,2.2866,2.2866,2.2866,2.2866,2.2866,2.2866,2.2866,2.2866,2.2866,2.2866,2.2866,2.2934,2.3078,2.3352,2.383,2.4266,2.48,2.4975,2.5127,2.5981,2.6694,2.8271,2.977,3.1267,3.2511,3.3029,3.3418,1.1199,1.1319,1.1253,1.1287,1.1341,1.1345,1.1341,1.1335,1.1284,1.1253,1.126,1.1324,1.1345,1.1358,1.1362,1.1362,1.1372,1.144,1.1484,1.1508,1.1572,1.1582,1.1613,1.1616,1.1606,1.1616,1.1616,1.1616,1.1616,1.1616,1.1616,1.1616,1.1616,1.1616,1.1616,1.1616,1.1616,1.1616,1.1616,1.1616,1.1616,1.1616,1.1616,1.1616,1.1616,1.1616,1.1616,1.1616,1.1616,1.1616,1.1616,1.1616,1.1616,1.1616,1.1616,1.1616,1.1616,1.1616,1.1616,1.1616,1.1616,1.1616,1.1616,1.1616,1.1616,1.1688,1.1688,1.176,1.1903,1.2047,1.2334,1.2617,1.2975,1.34,1.5438,1.7404,1.9077,2.0686,2.1741,2.2654,2.2866,2.2866,2.2866,2.2866,2.2866,2.2866,2.2866,2.2866,2.2866,2.2866,2.2866,2.2866,2.2866,2.2866,2.2866,2.2866,2.2866,2.2866,2.2866,2.2934,2.3016,2.3468,2.3983,2.4465,2.493,2.5084,2.5162,2.5277,2.5973,2.7742,2.9509,3.0881,3.2247,3.3155,3.3418,1.1284,1.1409,1.1413,1.148,1.1606,1.1596,1.1596,1.1603,1.1463,1.1409,1.1433,1.1548,1.1582,1.1548,1.1548,1.1555,1.1548,1.1572,1.1579,1.1613,1.1606,1.1616,1.1616,1.1616,1.1616,1.1616,1.1616,1.1616,1.1616,1.1616,1.1616,1.1616,1.1616,1.1616,1.1616,1.1616,1.1616,1.1616,1.1616,1.1616,1.1616,1.1616,1.1616,1.1616,1.1616,1.1616,1.1616,1.1616,1.1616,1.1616,1.1616,1.1616,1.1616,1.1616,1.1616,1.1616,1.1616,1.1616,1.1616,1.1616,1.1616,1.1616,1.1616,1.1616,1.1616,1.1616,1.1616,1.1616,1.176,1.1835,1.2051,1.2266,1.2621,1.3329,1.4804,1.67,1.8374,2.0196,2.2016,2.2722,2.2866,2.2866,2.2866,2.2866,2.2866,2.2866,2.2866,2.2866,2.2866,2.2866,2.2886,2.2886,2.2866,2.2866,2.2866,2.2866,2.2866,2.2866,2.2913,2.2959,2.3109,2.3589,2.424,2.4803,2.5349,2.5244,2.5279,2.5356,2.6079,2.8139,2.9705,3.0687,3.1854,3.3029,3.3418,1.1531,1.1562,1.1565,1.1589,1.1616,1.1616,1.1616,1.1616,1.1586,1.1558,1.1575,1.1599,1.1616,1.1616,1.1616,1.1616,1.1616,1.1616,1.1616,1.1616,1.1616,1.1616,1.1616,1.1616,1.1616,1.1616,1.1616,1.1616,1.1616,1.1616,1.1616,1.1616,1.1616,1.1616,1.1616,1.1616,1.1616,1.1616,1.1616,1.1616,1.1616,1.1616,1.1616,1.1616,1.1616,1.1616,1.1616,1.1616,1.1616,1.1616,1.1616,1.1616,1.1616,1.1616,1.1616,1.1616,1.1616,1.1616,1.1616,1.1616,1.1616,1.1616,1.1616,1.1616,1.1616,1.1616,1.1616,1.1616,1.1619,1.1691,1.1767,1.2054,1.2338,1.3257,1.4173,1.5924,1.7744,1.9982,2.216,2.2647,2.2859,2.2866,2.2866,2.2866,2.2866,2.2866,2.2866,2.2866,2.2879,2.2886,2.2939,2.2933,2.2873,2.2866,2.2886,2.2953,2.2993,2.3066,2.314,2.3173,2.322,2.3988,2.4771,2.5333,2.5787,2.5696,2.5549,2.5447,2.6556,2.8303,2.9509,3.0354,3.1854,3.3155,3.3292,1.1616,1.1616,1.1616,1.1616,1.1616,1.1616,1.1616,1.1616,1.1616,1.1616,1.1616,1.1616,1.1616,1.1616,1.1616,1.1616,1.1616,1.1616,1.1616,1.1616,1.1616,1.1616,1.1616,1.1616,1.1616,1.1616,1.1616,1.1616,1.1616,1.1616,1.1616,1.1616,1.1616,1.1616,1.1616,1.1616,1.1616,1.1616,1.1616,1.1616,1.1616,1.1616,1.1616,1.1616,1.1616,1.1616,1.1616,1.1616,1.1616,1.1616,1.1616,1.1616,1.1616,1.1616,1.1616,1.1616,1.1616,1.1616,1.1616,1.1616,1.1616,1.1616,1.1616,1.1616,1.1616,1.1616,1.1616,1.1616,1.1616,1.1691,1.1691,1.1835,1.2051,1.2692,1.3396,1.4591,1.7458,2.0473,2.2016,2.2791,2.2866,2.2866,2.2866,2.2866,2.2866,2.2934,2.2934,2.2913,2.2919,2.3026,2.3053,2.3046,2.3026,2.304,2.3113,2.3166,2.3207,2.328,2.3374,2.3554,2.3765,2.4534,2.5292,2.5655,2.5966,2.6054,2.5915,2.5718,2.6276,2.7839,2.89,2.99,3.1524,3.3029,3.3282,1.1616,1.1616,1.1616,1.1616,1.1616,1.1616,1.1616,1.1616,1.1616,1.1616,1.1616,1.1616,1.1616,1.1616,1.1616,1.1616,1.1616,1.1616,1.1616,1.1616,1.1616,1.1616,1.1616,1.1616,1.1616,1.1616,1.1616,1.1616,1.1616,1.1616,1.1616,1.1616,1.1616,1.1616,1.1616,1.1616,1.1616,1.1616,1.1616,1.1616,1.1616,1.1616,1.1616,1.1616,1.1616,1.1616,1.1616,1.1616,1.1616,1.1616,1.1616,1.1616,1.1616,1.1616,1.1616,1.1616,1.1616,1.1616,1.1616,1.1616,1.1616,1.1616,1.1616,1.1619,1.1619,1.1623,1.1623,1.163,1.163,1.1623,1.1623,1.1695,1.1914,1.242,1.3054,1.4043,1.7479,2.0768,2.1966,2.2886,2.2886,2.2886,2.2893,2.2886,2.2933,2.2995,2.3021,2.3042,2.3115,2.3247,2.3367,2.3333,2.33,2.3327,2.3374,2.3407,2.3447,2.3554,2.3681,2.3941,2.4359,2.4998,2.5466,2.5682,2.5913,2.6241,2.6135,2.5893,2.6664,2.7413,2.8569,2.9705,3.113,3.2502,3.3155,1.1616,1.1616,1.1616,1.1616,1.1616,1.1616,1.1616,1.1616,1.1616,1.1616,1.1616,1.1616,1.1616,1.1616,1.1616,1.1616,1.1616,1.1616,1.1616,1.1616,1.1616,1.1616,1.1616,1.1616,1.1616,1.1616,1.1616,1.1616,1.1616,1.1616,1.1616,1.1616,1.1616,1.1616,1.1616,1.1616,1.1616,1.1616,1.1616,1.1616,1.1616,1.1616,1.1616,1.1616,1.1616,1.1616,1.1616,1.1616,1.1616,1.1616,1.1616,1.1616,1.1616,1.1616,1.1616,1.1616,1.1616,1.1616,1.1616,1.1616,1.1616,1.1616,1.1619,1.1633,1.1636,1.1647,1.1657,1.1677,1.167,1.1647,1.1643,1.1643,1.1863,1.2805,1.3595,1.543,1.8033,2.0569,2.2484,2.2904,2.3048,2.2986,2.2993,2.3073,2.3247,2.328,2.3407,2.3427,2.3434,2.3561,2.3681,2.3647,2.3601,2.3627,2.3688,2.3681,2.3728,2.3841,2.3975,2.4268,2.4668,2.5308,2.5702,2.5836,2.6272,2.6648,2.6442,2.6105,2.6454,2.7243,2.8452,2.9648,3.0936,3.2237,3.3019]}]]